Wetterdaten: Mittwoch, 11.01.2023
Datum Zeit Temp. 2m Temp +5 cm Feuchte A. Luftdruck Regen Wind Richtung Richtung Sonnenschein UV Solar Taupunkt Windchill Windben
11.01.2023 00:00 5,0 C 4,4 C 93 % 1014,7 hPa 0,0 l/m 17,7 km/h (3 Bft) S 180 0 min 0,0 UV-I 0 W/m 4,0 C -2,2 C 24,1 km/h (4 Bft)
11.01.2023 00:01 5,1 C 4,4 C 93 % 1014,7 hPa 0,0 l/m 20,9 km/h (4 Bft) S 180 0 min 0,0 UV-I 0 W/m 4,1 C -3,4 C 25,7 km/h (4 Bft)
11.01.2023 00:02 5,1 C 4,4 C 93 % 1014,7 hPa 0,0 l/m 17,7 km/h (3 Bft) S 180 0 min 0,0 UV-I 0 W/m 4,1 C -2,1 C 27,4 km/h (4 Bft)
11.01.2023 00:03 5,1 C 4,4 C 93 % 1014,8 hPa 0,0 l/m 24,1 km/h (4 Bft) S 180 0 min 0,0 UV-I 0 W/m 4,1 C -4,5 C 37,0 km/h (5 Bft)
11.01.2023 00:04 5,1 C 4,4 C 93 % 1014,7 hPa 0,0 l/m 17,7 km/h (3 Bft) S-SW 202 0 min 0,0 UV-I 0 W/m 4,1 C -2,1 C 27,4 km/h (4 Bft)
11.01.2023 00:05 5,1 C 4,4 C 93 % 1014,6 hPa 0,0 l/m 19,3 km/h (3 Bft) S 180 0 min 0,0 UV-I 0 W/m 4,1 C -2,8 C 29,0 km/h (5 Bft)
11.01.2023 00:06 5,1 C 4,4 C 93 % 1014,7 hPa 0,0 l/m 24,1 km/h (4 Bft) S 180 0 min 0,0 UV-I 0 W/m 4,1 C -4,5 C 29,0 km/h (5 Bft)
11.01.2023 00:07 5,1 C 4,4 C 93 % 1014,7 hPa 0,0 l/m 22,5 km/h (4 Bft) S 180 0 min 0,0 UV-I 0 W/m 4,1 C -4,0 C 29,0 km/h (5 Bft)
11.01.2023 00:08 5,2 C 4,4 C 93 % 1014,6 hPa 0,0 l/m 24,1 km/h (4 Bft) S 180 0 min 0,0 UV-I 0 W/m 4,2 C -4,4 C 46,7 km/h (6 Bft)
11.01.2023 00:09 5,2 C 4,4 C 93 % 1014,5 hPa 0,0 l/m 19,3 km/h (3 Bft) S 180 0 min 0,0 UV-I 0 W/m 4,2 C -2,6 C 25,7 km/h (4 Bft)
11.01.2023 00:10 5,2 C 4,4 C 93 % 1014,5 hPa 0,0 l/m 14,5 km/h (3 Bft) S 180 0 min 0,0 UV-I 0 W/m 4,2 C -0,4 C 17,7 km/h (3 Bft)
11.01.2023 00:11 5,2 C 4,4 C 93 % 1014,6 hPa 0,0 l/m 22,5 km/h (4 Bft) S 180 0 min 0,0 UV-I 0 W/m 4,2 C -3,8 C 29,0 km/h (5 Bft)
11.01.2023 00:12 5,2 C 4,4 C 93 % 1014,5 hPa 0,0 l/m 19,3 km/h (3 Bft) S 180 0 min 0,0 UV-I 0 W/m 4,2 C -2,6 C 27,4 km/h (4 Bft)
11.01.2023 00:13 5,3 C 4,4 C 93 % 1014,5 hPa 0,0 l/m 16,1 km/h (3 Bft) S 180 0 min 0,0 UV-I 0 W/m 4,3 C -1,1 C 22,5 km/h (4 Bft)
11.01.2023 00:14 5,3 C 4,4 C 93 % 1014,5 hPa 0,0 l/m 19,3 km/h (3 Bft) S 180 0 min 0,0 UV-I 0 W/m 4,3 C -2,5 C 27,4 km/h (4 Bft)
11.01.2023 00:15 5,3 C 4,4 C 93 % 1014,4 hPa 0,0 l/m 24,1 km/h (4 Bft) S-SW 202 0 min 0,0 UV-I 0 W/m 4,3 C -4,2 C 33,8 km/h (5 Bft)
11.01.2023 00:16 5,3 C 5,0 C 93 % 1014,3 hPa 0,0 l/m 16,1 km/h (3 Bft) S 180 0 min 0,0 UV-I 0 W/m 4,3 C -1,1 C 19,3 km/h (3 Bft)
11.01.2023 00:17 5,3 C 5,0 C 93 % 1014,4 hPa 0,0 l/m 12,9 km/h (3 Bft) S 180 0 min 0,0 UV-I 0 W/m 4,3 C 0,6 C 19,3 km/h (3 Bft)
11.01.2023 00:18 5,3 C 5,0 C 93 % 1014,4 hPa 0,0 l/m 20,9 km/h (4 Bft) S 180 0 min 0,0 UV-I 0 W/m 4,3 C -3,1 C 29,0 km/h (5 Bft)
11.01.2023 00:19 5,3 C 5,0 C 93 % 1014,3 hPa 0,0 l/m 24,1 km/h (4 Bft) S 180 0 min 0,0 UV-I 0 W/m 4,3 C -4,2 C 32,2 km/h (5 Bft)
11.01.2023 00:20 5,3 C 5,0 C 93 % 1014,6 hPa 0,0 l/m 24,1 km/h (4 Bft) S 180 0 min 0,0 UV-I 0 W/m 4,3 C -4,2 C 33,8 km/h (5 Bft)
11.01.2023 00:21 5,3 C 5,0 C 93 % 1014,2 hPa 0,0 l/m 22,5 km/h (4 Bft) S 180 0 min 0,0 UV-I 0 W/m 4,3 C -3,7 C 32,2 km/h (5 Bft)
11.01.2023 00:22 5,3 C 5,0 C 93 % 1014,2 hPa 0,0 l/m 29,0 km/h (5 Bft) S 180 0 min 0,0 UV-I 0 W/m 4,3 C -5,7 C 41,8 km/h (6 Bft)
11.01.2023 00:23 5,4 C 5,0 C 93 % 1014,4 hPa 0,0 l/m 20,9 km/h (4 Bft) S 180 0 min 0,0 UV-I 0 W/m 4,4 C -3,0 C 27,4 km/h (4 Bft)
11.01.2023 00:24 5,4 C 5,0 C 93 % 1014,3 hPa 0,0 l/m 24,1 km/h (4 Bft) S 180 0 min 0,0 UV-I 0 W/m 4,4 C -4,1 C 38,6 km/h (5 Bft)
11.01.2023 00:25 5,4 C 5,0 C 93 % 1014,3 hPa 0,0 l/m 35,4 km/h (5 Bft) S 180 0 min 0,0 UV-I 0 W/m 4,4 C -7,1 C 41,8 km/h (6 Bft)
11.01.2023 00:26 5,4 C 5,0 C 93 % 1014,3 hPa 0,0 l/m 17,7 km/h (3 Bft) S-SW 202 0 min 0,0 UV-I 0 W/m 4,4 C -1,7 C 29,0 km/h (5 Bft)
11.01.2023 00:27 5,5 C 5,0 C 93 % 1014,3 hPa 0,0 l/m 25,7 km/h (4 Bft) S 180 0 min 0,0 UV-I 0 W/m 4,5 C -4,5 C 32,2 km/h (5 Bft)
11.01.2023 00:28 5,5 C 5,0 C 93 % 1014,4 hPa 0,0 l/m 19,3 km/h (3 Bft) S 180 0 min 0,0 UV-I 0 W/m 4,5 C -2,2 C 24,1 km/h (4 Bft)
11.01.2023 00:29 5,5 C 5,0 C 93 % 1014,3 hPa 0,0 l/m 22,5 km/h (4 Bft) S 180 0 min 0,0 UV-I 0 W/m 4,5 C -3,4 C 32,2 km/h (5 Bft)
11.01.2023 00:30 5,5 C 5,0 C 93 % 1014,3 hPa 0,0 l/m 19,3 km/h (3 Bft) S 180 0 min 0,0 UV-I 0 W/m 4,5 C -2,2 C 48,3 km/h (6 Bft)
11.01.2023 00:31 5,6 C 5,0 C 93 % 1014,3 hPa 0,0 l/m 24,1 km/h (4 Bft) S 180 0 min 0,0 UV-I 0 W/m 4,6 C -3,8 C 37,0 km/h (5 Bft)
11.01.2023 00:32 5,6 C 5,0 C 93 % 1014,3 hPa 0,0 l/m 24,1 km/h (4 Bft) S 180 0 min 0,0 UV-I 0 W/m 4,6 C -3,8 C 40,2 km/h (6 Bft)
11.01.2023 00:33 5,6 C 5,0 C 93 % 1014,3 hPa 0,0 l/m 25,7 km/h (4 Bft) S 180 0 min 0,0 UV-I 0 W/m 4,6 C -4,3 C 33,8 km/h (5 Bft)
11.01.2023 00:34 5,6 C 5,0 C 93 % 1014,4 hPa 0,0 l/m 24,1 km/h (4 Bft) S-SW 202 0 min 0,0 UV-I 0 W/m 4,6 C -3,8 C 45,1 km/h (6 Bft)
11.01.2023 00:35 5,6 C 5,0 C 93 % 1014,3 hPa 0,0 l/m 24,1 km/h (4 Bft) S 180 0 min 0,0 UV-I 0 W/m 4,6 C -3,8 C 30,6 km/h (5 Bft)
11.01.2023 00:36 5,6 C 5,0 C 93 % 1014,3 hPa 0,0 l/m 19,3 km/h (3 Bft) S-SW 202 0 min 0,0 UV-I 0 W/m 4,6 C -2,1 C 30,6 km/h (5 Bft)
11.01.2023 00:37 5,6 C 5,0 C 93 % 1014,2 hPa 0,0 l/m 22,5 km/h (4 Bft) S-SW 202 0 min 0,0 UV-I 0 W/m 4,6 C -3,3 C 32,2 km/h (5 Bft)
11.01.2023 00:38 5,6 C 5,0 C 93 % 1014,3 hPa 0,0 l/m 22,5 km/h (4 Bft) S 180 0 min 0,0 UV-I 0 W/m 4,6 C -3,3 C 30,6 km/h (5 Bft)
11.01.2023 00:39 5,6 C 5,0 C 93 % 1014,3 hPa 0,0 l/m 20,9 km/h (4 Bft) S-SW 202 0 min 0,0 UV-I 0 W/m 4,6 C -2,7 C 25,7 km/h (4 Bft)
11.01.2023 00:40 5,6 C 5,0 C 93 % 1014,3 hPa 0,0 l/m 20,9 km/h (4 Bft) S 180 0 min 0,0 UV-I 0 W/m 4,6 C -2,7 C 37,0 km/h (5 Bft)
11.01.2023 00:41 5,6 C 5,0 C 93 % 1014,3 hPa 0,0 l/m 32,2 km/h (5 Bft) S 180 0 min 0,0 UV-I 0 W/m 4,6 C -6,1 C 46,7 km/h (6 Bft)
11.01.2023 00:42 5,6 C 5,0 C 93 % 1014,2 hPa 0,0 l/m 24,1 km/h (4 Bft) S 180 0 min 0,0 UV-I 0 W/m 4,6 C -3,8 C 35,4 km/h (5 Bft)
11.01.2023 00:43 5,6 C 5,0 C 93 % 1014,2 hPa 0,0 l/m 27,4 km/h (4 Bft) S-SW 202 0 min 0,0 UV-I 0 W/m 4,6 C -4,8 C 38,6 km/h (5 Bft)
11.01.2023 00:44 5,6 C 5,0 C 93 % 1014,2 hPa 0,0 l/m 25,7 km/h (4 Bft) S-SW 202 0 min 0,0 UV-I 0 W/m 4,6 C -4,3 C 38,6 km/h (5 Bft)
11.01.2023 00:45 5,6 C 5,0 C 93 % 1014,2 hPa 0,0 l/m 27,4 km/h (4 Bft) S 180 0 min 0,0 UV-I 0 W/m 4,6 C -4,8 C 38,6 km/h (5 Bft)
11.01.2023 00:46 5,6 C 5,0 C 93 % 1014,2 hPa 0,0 l/m 20,9 km/h (4 Bft) S 180 0 min 0,0 UV-I 0 W/m 4,6 C -2,7 C 30,6 km/h (5 Bft)
11.01.2023 00:47 5,6 C 5,0 C 93 % 1014,2 hPa 0,0 l/m 30,6 km/h (5 Bft) S 180 0 min 0,0 UV-I 0 W/m 4,6 C -5,7 C 43,5 km/h (6 Bft)
11.01.2023 00:48 5,6 C 5,0 C 93 % 1014,1 hPa 0,0 l/m 27,4 km/h (4 Bft) S 180 0 min 0,0 UV-I 0 W/m 4,6 C -4,8 C 43,5 km/h (6 Bft)
11.01.2023 00:49 5,6 C 5,0 C 93 % 1014,2 hPa 0,0 l/m 22,5 km/h (4 Bft) S 180 0 min 0,0 UV-I 0 W/m 4,6 C -3,3 C 45,1 km/h (6 Bft)
11.01.2023 00:50 5,6 C 5,0 C 93 % 1014,1 hPa 0,0 l/m 25,7 km/h (4 Bft) S 180 0 min 0,0 UV-I 0 W/m 4,6 C -4,3 C 40,2 km/h (6 Bft)
11.01.2023 00:51 5,6 C 5,0 C 93 % 1014,1 hPa 0,0 l/m 24,1 km/h (4 Bft) S 180 0 min 0,0 UV-I 0 W/m 4,6 C -3,8 C 40,2 km/h (6 Bft)
11.01.2023 00:52 5,7 C 5,0 C 93 % 1014,0 hPa 0,0 l/m 24,1 km/h (4 Bft) S 180 0 min 0,0 UV-I 0 W/m 4,7 C -3,7 C 38,6 km/h (5 Bft)
11.01.2023 00:53 5,7 C 5,0 C 93 % 1014,0 hPa 0,0 l/m 25,7 km/h (4 Bft) S 180 0 min 0,0 UV-I 0 W/m 4,7 C -4,2 C 33,8 km/h (5 Bft)
11.01.2023 00:54 5,7 C 5,0 C 93 % 1014,1 hPa 0,0 l/m 27,4 km/h (4 Bft) S 180 0 min 0,0 UV-I 0 W/m 4,7 C -4,7 C 41,8 km/h (6 Bft)
11.01.2023 00:55 5,7 C 5,0 C 93 % 1014,0 hPa 0,0 l/m 25,7 km/h (4 Bft) S 180 0 min 0,0 UV-I 0 W/m 4,7 C -4,2 C 43,5 km/h (6 Bft)
11.01.2023 00:56 5,7 C 5,0 C 93 % 1014,0 hPa 0,0 l/m 27,4 km/h (4 Bft) S 180 0 min 0,0 UV-I 0 W/m 4,7 C -4,7 C 40,2 km/h (6 Bft)
11.01.2023 00:57 5,7 C 5,0 C 93 % 1014,0 hPa 0,0 l/m 25,7 km/h (4 Bft) S 180 0 min 0,0 UV-I 0 W/m 4,7 C -4,2 C 37,0 km/h (5 Bft)
11.01.2023 00:58 5,8 C 5,0 C 93 % 1014,0 hPa 0,0 l/m 20,9 km/h (4 Bft) S 180 0 min 0,0 UV-I 0 W/m 4,8 C -2,5 C 30,6 km/h (5 Bft)
11.01.2023 00:59 5,8 C 5,0 C 93 % 1013,9 hPa 0,0 l/m 24,1 km/h (4 Bft) S 180 0 min 0,0 UV-I 0 W/m 4,8 C -3,6 C 32,2 km/h (5 Bft)
11.01.2023 01:00 5,8 C 5,0 C 93 % 1013,9 hPa 0,0 l/m 27,4 km/h (4 Bft) S 180 0 min 0,0 UV-I 0 W/m 4,8 C -4,6 C 38,6 km/h (5 Bft)
11.01.2023 01:01 5,8 C 5,0 C 93 % 1014,0 hPa 0,0 l/m 22,5 km/h (4 Bft) S 180 0 min 0,0 UV-I 0 W/m 4,8 C -3,0 C 37,0 km/h (5 Bft)
11.01.2023 01:02 5,8 C 5,0 C 93 % 1013,9 hPa 0,0 l/m 24,1 km/h (4 Bft) S 180 0 min 0,0 UV-I 0 W/m 4,8 C -3,6 C 29,0 km/h (5 Bft)
11.01.2023 01:03 5,8 C 5,0 C 93 % 1014,0 hPa 0,0 l/m 24,1 km/h (4 Bft) S-SW 202 0 min 0,0 UV-I 0 W/m 4,8 C -3,6 C 33,8 km/h (5 Bft)
11.01.2023 01:04 5,8 C 5,6 C 93 % 1014,0 hPa 0,0 l/m 25,7 km/h (4 Bft) S 180 0 min 0,0 UV-I 0 W/m 4,8 C -4,1 C 30,6 km/h (5 Bft)
11.01.2023 01:05 5,8 C 5,6 C 93 % 1013,9 hPa 0,0 l/m 22,5 km/h (4 Bft) S 180 0 min 0,0 UV-I 0 W/m 4,8 C -3,0 C 30,6 km/h (5 Bft)
11.01.2023 01:06 5,8 C 5,6 C 93 % 1013,9 hPa 0,0 l/m 27,4 km/h (4 Bft) S 180 0 min 0,0 UV-I 0 W/m 4,8 C -4,6 C 38,6 km/h (5 Bft)
11.01.2023 01:07 5,9 C 5,6 C 93 % 1013,9 hPa 0,0 l/m 24,1 km/h (4 Bft) S 180 0 min 0,0 UV-I 0 W/m 4,9 C -3,4 C 38,6 km/h (5 Bft)
11.01.2023 01:08 5,9 C 5,6 C 93 % 1013,9 hPa 0,0 l/m 24,1 km/h (4 Bft) S 180 0 min 0,0 UV-I 0 W/m 4,9 C -3,4 C 33,8 km/h (5 Bft)
11.01.2023 01:09 5,9 C 5,6 C 93 % 1013,9 hPa 0,0 l/m 29,0 km/h (5 Bft) S 180 0 min 0,0 UV-I 0 W/m 4,9 C -4,9 C 49,9 km/h (6 Bft)
11.01.2023 01:10 5,9 C 5,6 C 93 % 1013,9 hPa 0,0 l/m 27,4 km/h (4 Bft) S-SW 202 0 min 0,0 UV-I 0 W/m 4,9 C -4,4 C 41,8 km/h (6 Bft)
11.01.2023 01:11 5,9 C 5,6 C 93 % 1013,8 hPa 0,0 l/m 30,6 km/h (5 Bft) S-SW 202 0 min 0,0 UV-I 0 W/m 4,9 C -5,3 C 45,1 km/h (6 Bft)
11.01.2023 01:12 5,9 C 5,6 C 93 % 1013,9 hPa 0,0 l/m 27,4 km/h (4 Bft) S 180 0 min 0,0 UV-I 0 W/m 4,9 C -4,4 C 45,1 km/h (6 Bft)
11.01.2023 01:13 6,0 C 5,6 C 93 % 1013,9 hPa 0,0 l/m 30,6 km/h (5 Bft) S-SW 202 0 min 0,0 UV-I 0 W/m 5,0 C -5,1 C 40,2 km/h (6 Bft)
11.01.2023 01:14 6,0 C 5,6 C 93 % 1014,0 hPa 0,0 l/m 20,9 km/h (4 Bft) S 180 0 min 0,0 UV-I 0 W/m 5,0 C -2,2 C 35,4 km/h (5 Bft)
11.01.2023 01:15 6,1 C 5,6 C 93 % 1014,0 hPa 0,0 l/m 32,2 km/h (5 Bft) S 180 0 min 0,0 UV-I 0 W/m 5,1 C -5,4 C 48,3 km/h (6 Bft)
11.01.2023 01:16 6,0 C 5,6 C 93 % 1014,0 hPa 0,0 l/m 27,4 km/h (4 Bft) S 180 0 min 0,0 UV-I 0 W/m 5,0 C -4,3 C 40,2 km/h (6 Bft)
11.01.2023 01:17 6,0 C 5,6 C 93 % 1014,1 hPa 0,0 l/m 27,4 km/h (4 Bft) S 180 0 min 0,0 UV-I 0 W/m 5,0 C -4,3 C 35,4 km/h (5 Bft)
11.01.2023 01:18 6,1 C 5,6 C 93 % 1014,0 hPa 0,0 l/m 22,5 km/h (4 Bft) S-SW 202 0 min 0,0 UV-I 0 W/m 5,1 C -2,6 C 30,6 km/h (5 Bft)
11.01.2023 01:19 6,1 C 5,6 C 93 % 1014,0 hPa 0,0 l/m 22,5 km/h (4 Bft) S-SW 202 0 min 0,0 UV-I 0 W/m 5,1 C -2,6 C 30,6 km/h (5 Bft)
11.01.2023 01:20 6,0 C 5,6 C 93 % 1014,0 hPa 0,2 l/m 29,0 km/h (5 Bft) S-SW 202 0 min 0,0 UV-I 0 W/m 5,0 C -4,7 C 46,7 km/h (6 Bft)
11.01.2023 01:21 6,1 C 5,6 C 93 % 1014,0 hPa 0,0 l/m 29,0 km/h (5 Bft) S 180 0 min 0,0 UV-I 0 W/m 5,1 C -4,6 C 38,6 km/h (5 Bft)
11.01.2023 01:22 6,1 C 5,6 C 93 % 1014,0 hPa 0,0 l/m 27,4 km/h (4 Bft) S 180 0 min 0,0 UV-I 0 W/m 5,1 C -4,1 C 46,7 km/h (6 Bft)
11.01.2023 01:23 6,1 C 5,6 C 93 % 1014,0 hPa 0,0 l/m 27,4 km/h (4 Bft) S-SW 202 0 min 0,0 UV-I 0 W/m 5,1 C -4,1 C 43,5 km/h (6 Bft)
11.01.2023 01:24 6,1 C 5,6 C 93 % 1014,0 hPa 0,0 l/m 17,7 km/h (3 Bft) S 180 0 min 0,0 UV-I 0 W/m 5,1 C -0,8 C 32,2 km/h (5 Bft)
11.01.2023 01:25 6,1 C 5,6 C 93 % 1014,0 hPa 0,0 l/m 27,4 km/h (4 Bft) S 180 0 min 0,0 UV-I 0 W/m 5,1 C -4,1 C 48,3 km/h (6 Bft)
11.01.2023 01:26 6,1 C 5,6 C 93 % 1013,9 hPa 0,0 l/m 33,8 km/h (5 Bft) S 180 0 min 0,0 UV-I 0 W/m 5,1 C -5,7 C 49,9 km/h (6 Bft)
11.01.2023 01:27 6,1 C 5,6 C 93 % 1014,0 hPa 0,0 l/m 27,4 km/h (4 Bft) S 180 0 min 0,0 UV-I 0 W/m 5,1 C -4,1 C 38,6 km/h (5 Bft)
11.01.2023 01:28 6,1 C 5,6 C 93 % 1013,8 hPa 0,0 l/m 24,1 km/h (4 Bft) S 180 0 min 0,0 UV-I 0 W/m 5,1 C -3,2 C 35,4 km/h (5 Bft)
11.01.2023 01:29 6,1 C 5,6 C 93 % 1013,8 hPa 0,0 l/m 22,5 km/h (4 Bft) S-SW 202 0 min 0,0 UV-I 0 W/m 5,1 C -2,6 C 32,2 km/h (5 Bft)
11.01.2023 01:30 6,1 C 5,6 C 93 % 1013,8 hPa 0,0 l/m 22,5 km/h (4 Bft) S 180 0 min 0,0 UV-I 0 W/m 5,1 C -2,6 C 37,0 km/h (5 Bft)
11.01.2023 01:31 6,1 C 5,6 C 93 % 1013,9 hPa 0,0 l/m 20,9 km/h (4 Bft) S-SW 202 0 min 0,0 UV-I 0 W/m 5,1 C -2,1 C 32,2 km/h (5 Bft)
11.01.2023 01:32 6,2 C 5,6 C 93 % 1013,7 hPa 0,0 l/m 27,4 km/h (4 Bft) S 180 0 min 0,0 UV-I 0 W/m 5,2 C -4,0 C 45,1 km/h (6 Bft)
11.01.2023 01:33 6,2 C 5,6 C 93 % 1013,8 hPa 0,0 l/m 25,7 km/h (4 Bft) S 180 0 min 0,0 UV-I 0 W/m 5,2 C -3,5 C 37,0 km/h (5 Bft)
11.01.2023 01:34 6,2 C 5,6 C 93 % 1013,8 hPa 0,0 l/m 29,0 km/h (5 Bft) S 180 0 min 0,0 UV-I 0 W/m 5,2 C -4,4 C 43,5 km/h (6 Bft)
11.01.2023 01:35 6,2 C 5,6 C 93 % 1013,8 hPa 0,0 l/m 30,6 km/h (5 Bft) S 180 0 min 0,0 UV-I 0 W/m 5,2 C -4,8 C 40,2 km/h (6 Bft)
11.01.2023 01:36 6,2 C 5,6 C 93 % 1013,9 hPa 0,0 l/m 27,4 km/h (4 Bft) S 180 0 min 0,0 UV-I 0 W/m 5,2 C -4,0 C 40,2 km/h (6 Bft)
11.01.2023 01:37 6,2 C 5,6 C 93 % 1013,8 hPa 0,0 l/m 25,7 km/h (4 Bft) S 180 0 min 0,0 UV-I 0 W/m 5,2 C -3,5 C 38,6 km/h (5 Bft)
11.01.2023 01:38 6,2 C 5,6 C 93 % 1013,8 hPa 0,0 l/m 30,6 km/h (5 Bft) S 180 0 min 0,0 UV-I 0 W/m 5,2 C -4,8 C 40,2 km/h (6 Bft)
11.01.2023 01:39 6,2 C 5,6 C 93 % 1013,8 hPa 0,0 l/m 24,1 km/h (4 Bft) S 180 0 min 0,0 UV-I 0 W/m 5,2 C -3,0 C 38,6 km/h (5 Bft)
11.01.2023 01:40 6,2 C 5,6 C 93 % 1013,8 hPa 0,0 l/m 25,7 km/h (4 Bft) S 180 0 min 0,0 UV-I 0 W/m 5,2 C -3,5 C 38,6 km/h (5 Bft)
11.01.2023 01:41 6,3 C 5,6 C 93 % 1013,8 hPa 0,0 l/m 27,4 km/h (4 Bft) S 180 0 min 0,0 UV-I 0 W/m 5,3 C -3,9 C 40,2 km/h (6 Bft)
11.01.2023 01:42 6,2 C 5,6 C 93 % 1013,9 hPa 0,0 l/m 19,3 km/h (3 Bft) S 180 0 min 0,0 UV-I 0 W/m 5,2 C -1,4 C 29,0 km/h (5 Bft)
11.01.2023 01:43 6,3 C 5,6 C 93 % 1013,8 hPa 0,0 l/m 24,1 km/h (4 Bft) S-SW 202 0 min 0,0 UV-I 0 W/m 5,3 C -2,9 C 40,2 km/h (6 Bft)
11.01.2023 01:44 6,3 C 5,6 C 93 % 1013,8 hPa 0,0 l/m 24,1 km/h (4 Bft) S 180 0 min 0,0 UV-I 0 W/m 5,3 C -2,9 C 37,0 km/h (5 Bft)
11.01.2023 01:45 6,3 C 5,6 C 93 % 1013,9 hPa 0,0 l/m 25,7 km/h (4 Bft) S 180 0 min 0,0 UV-I 0 W/m 5,3 C -3,4 C 40,2 km/h (6 Bft)
11.01.2023 01:46 6,3 C 5,6 C 93 % 1013,9 hPa 0,0 l/m 24,1 km/h (4 Bft) S 180 0 min 0,0 UV-I 0 W/m 5,3 C -2,9 C 33,8 km/h (5 Bft)
11.01.2023 01:47 6,3 C 5,6 C 93 % 1013,9 hPa 0,0 l/m 25,7 km/h (4 Bft) S 180 0 min 0,0 UV-I 0 W/m 5,3 C -3,4 C 37,0 km/h (5 Bft)
11.01.2023 01:48 6,3 C 5,6 C 93 % 1013,9 hPa 0,0 l/m 27,4 km/h (4 Bft) S-SW 202 0 min 0,0 UV-I 0 W/m 5,3 C -3,9 C 33,8 km/h (5 Bft)
11.01.2023 01:49 6,2 C 5,6 C 93 % 1013,9 hPa 0,0 l/m 25,7 km/h (4 Bft) S 180 0 min 0,0 UV-I 0 W/m 5,2 C -3,5 C 35,4 km/h (5 Bft)
11.01.2023 01:50 6,3 C 5,6 C 93 % 1013,9 hPa 0,0 l/m 22,5 km/h (4 Bft) S 180 0 min 0,0 UV-I 0 W/m 5,3 C -2,4 C 32,2 km/h (5 Bft)
11.01.2023 01:51 6,3 C 5,6 C 93 % 1014,0 hPa 0,0 l/m 22,5 km/h (4 Bft) S 180 0 min 0,0 UV-I 0 W/m 5,3 C -2,4 C 37,0 km/h (5 Bft)
11.01.2023 01:52 6,3 C 5,6 C 93 % 1013,9 hPa 0,0 l/m 22,5 km/h (4 Bft) S 180 0 min 0,0 UV-I 0 W/m 5,3 C -2,4 C 32,2 km/h (5 Bft)
11.01.2023 01:53 6,3 C 5,6 C 93 % 1013,9 hPa 0,0 l/m 20,9 km/h (4 Bft) S-SW 202 0 min 0,0 UV-I 0 W/m 5,3 C -1,8 C 27,4 km/h (4 Bft)
11.01.2023 01:54 6,3 C 5,6 C 93 % 1013,9 hPa 0,0 l/m 20,9 km/h (4 Bft) S-SW 202 0 min 0,0 UV-I 0 W/m 5,3 C -1,8 C 29,0 km/h (5 Bft)
11.01.2023 01:55 6,3 C 5,6 C 93 % 1013,9 hPa 0,0 l/m 19,3 km/h (3 Bft) S-SW 202 0 min 0,0 UV-I 0 W/m 5,3 C -1,2 C 33,8 km/h (5 Bft)
11.01.2023 01:56 6,3 C 5,6 C 93 % 1013,8 hPa 0,0 l/m 22,5 km/h (4 Bft) S-SW 202 0 min 0,0 UV-I 0 W/m 5,3 C -2,4 C 32,2 km/h (5 Bft)
11.01.2023 01:57 6,3 C 5,6 C 93 % 1014,0 hPa 0,0 l/m 17,7 km/h (3 Bft) S 180 0 min 0,0 UV-I 0 W/m 5,3 C -0,6 C 30,6 km/h (5 Bft)
11.01.2023 01:58 6,3 C 5,6 C 93 % 1013,9 hPa 0,0 l/m 17,7 km/h (3 Bft) S-SW 202 0 min 0,0 UV-I 0 W/m 5,3 C -0,6 C 29,0 km/h (5 Bft)
11.01.2023 01:59 6,3 C 5,6 C 93 % 1014,0 hPa 0,0 l/m 22,5 km/h (4 Bft) S 180 0 min 0,0 UV-I 0 W/m 5,3 C -2,4 C 35,4 km/h (5 Bft)
11.01.2023 02:00 6,3 C 5,6 C 93 % 1013,9 hPa 0,0 l/m 19,3 km/h (3 Bft) S 180 0 min 0,0 UV-I 0 W/m 5,3 C -1,2 C 25,7 km/h (4 Bft)
11.01.2023 02:01 6,3 C 5,6 C 93 % 1014,0 hPa 0,0 l/m 20,9 km/h (4 Bft) S 180 0 min 0,0 UV-I 0 W/m 5,3 C -1,8 C 32,2 km/h (5 Bft)
11.01.2023 02:02 6,3 C 5,6 C 93 % 1014,0 hPa 0,0 l/m 19,3 km/h (3 Bft) S-SW 202 0 min 0,0 UV-I 0 W/m 5,3 C -1,2 C 24,1 km/h (4 Bft)
11.01.2023 02:03 6,3 C 5,6 C 93 % 1014,0 hPa 0,0 l/m 20,9 km/h (4 Bft) S-SW 202 0 min 0,0 UV-I 0 W/m 5,3 C -1,8 C 27,4 km/h (4 Bft)
11.01.2023 02:04 6,3 C 5,6 C 93 % 1013,9 hPa 0,0 l/m 20,9 km/h (4 Bft) S-SW 202 0 min 0,0 UV-I 0 W/m 5,3 C -1,8 C 27,4 km/h (4 Bft)
11.01.2023 02:05 6,3 C 5,6 C 93 % 1013,9 hPa 0,0 l/m 22,5 km/h (4 Bft) S 180 0 min 0,0 UV-I 0 W/m 5,3 C -2,4 C 33,8 km/h (5 Bft)
11.01.2023 02:06 6,4 C 6,1 C 93 % 1013,9 hPa 0,0 l/m 20,9 km/h (4 Bft) S 180 0 min 0,0 UV-I 0 W/m 5,4 C -1,7 C 32,2 km/h (5 Bft)
11.01.2023 02:07 6,4 C 6,1 C 93 % 1013,9 hPa 0,0 l/m 20,9 km/h (4 Bft) S-SW 202 0 min 0,0 UV-I 0 W/m 5,4 C -1,7 C 29,0 km/h (5 Bft)
11.01.2023 02:08 6,4 C 6,1 C 93 % 1013,9 hPa 0,0 l/m 19,3 km/h (3 Bft) S 180 0 min 0,0 UV-I 0 W/m 5,4 C -1,1 C 25,7 km/h (4 Bft)
11.01.2023 02:09 6,4 C 6,1 C 93 % 1013,9 hPa 0,0 l/m 19,3 km/h (3 Bft) S-SW 202 0 min 0,0 UV-I 0 W/m 5,4 C -1,1 C 29,0 km/h (5 Bft)
11.01.2023 02:10 6,4 C 6,1 C 93 % 1013,8 hPa 0,0 l/m 19,3 km/h (3 Bft) S 180 0 min 0,0 UV-I 0 W/m 5,4 C -1,1 C 27,4 km/h (4 Bft)
11.01.2023 02:11 6,4 C 6,1 C 93 % 1013,9 hPa 0,0 l/m 17,7 km/h (3 Bft) S 180 0 min 0,0 UV-I 0 W/m 5,4 C -0,4 C 25,7 km/h (4 Bft)
11.01.2023 02:12 6,4 C 6,1 C 93 % 1013,9 hPa 0,0 l/m 16,1 km/h (3 Bft) S 180 0 min 0,0 UV-I 0 W/m 5,4 C 0,3 C 25,7 km/h (4 Bft)
11.01.2023 02:13 6,4 C 6,1 C 93 % 1013,8 hPa 0,0 l/m 19,3 km/h (3 Bft) S 180 0 min 0,0 UV-I 0 W/m 5,4 C -1,1 C 27,4 km/h (4 Bft)
11.01.2023 02:14 6,4 C 6,1 C 93 % 1013,8 hPa 0,0 l/m 19,3 km/h (3 Bft) S 180 0 min 0,0 UV-I 0 W/m 5,4 C -1,1 C 29,0 km/h (5 Bft)
11.01.2023 02:15 6,5 C 6,1 C 93 % 1013,8 hPa 0,0 l/m 14,5 km/h (3 Bft) S-SW 202 0 min 0,0 UV-I 0 W/m 5,5 C 1,1 C 19,3 km/h (3 Bft)
11.01.2023 02:16 6,5 C 6,1 C 93 % 1013,8 hPa 0,0 l/m 19,3 km/h (3 Bft) S 180 0 min 0,0 UV-I 0 W/m 5,5 C -1,0 C 27,4 km/h (4 Bft)
11.01.2023 02:17 6,5 C 6,1 C 93 % 1013,8 hPa 0,0 l/m 19,3 km/h (3 Bft) S 180 0 min 0,0 UV-I 0 W/m 5,5 C -1,0 C 24,1 km/h (4 Bft)
11.01.2023 02:18 6,5 C 6,1 C 93 % 1013,7 hPa 0,0 l/m 14,5 km/h (3 Bft) S 180 0 min 0,0 UV-I 0 W/m 5,5 C 1,1 C 25,7 km/h (4 Bft)
11.01.2023 02:19 6,5 C 6,1 C 93 % 1013,7 hPa 0,0 l/m 17,7 km/h (3 Bft) S 180 0 min 0,0 UV-I 0 W/m 5,5 C -0,3 C 24,1 km/h (4 Bft)
11.01.2023 02:20 6,6 C 6,1 C 93 % 1013,7 hPa 0,0 l/m 17,7 km/h (3 Bft) S 180 0 min 0,0 UV-I 0 W/m 5,6 C -0,2 C 24,1 km/h (4 Bft)
11.01.2023 02:21 6,6 C 6,1 C 93 % 1013,7 hPa 0,0 l/m 20,9 km/h (4 Bft) S 180 0 min 0,0 UV-I 0 W/m 5,6 C -1,4 C 35,4 km/h (5 Bft)
11.01.2023 02:22 6,6 C 6,1 C 93 % 1013,7 hPa 0,0 l/m 16,1 km/h (3 Bft) S 180 0 min 0,0 UV-I 0 W/m 5,6 C 0,5 C 22,5 km/h (4 Bft)
11.01.2023 02:23 6,6 C 6,1 C 93 % 1013,8 hPa 0,0 l/m 20,9 km/h (4 Bft) S 180 0 min 0,0 UV-I 0 W/m 5,6 C -1,4 C 29,0 km/h (5 Bft)
11.01.2023 02:24 6,6 C 6,1 C 94 % 1013,8 hPa 0,0 l/m 25,7 km/h (4 Bft) S 180 0 min 0,0 UV-I 0 W/m 5,7 C -3,0 C 35,4 km/h (5 Bft)
11.01.2023 02:25 6,7 C 6,1 C 94 % 1013,8 hPa 0,0 l/m 25,7 km/h (4 Bft) S 180 0 min 0,0 UV-I 0 W/m 5,8 C -2,8 C 33,8 km/h (5 Bft)
11.01.2023 02:26 6,7 C 6,1 C 94 % 1013,8 hPa 0,0 l/m 25,7 km/h (4 Bft) S 180 0 min 0,0 UV-I 0 W/m 5,8 C -2,8 C 33,8 km/h (5 Bft)
11.01.2023 02:27 6,8 C 6,1 C 93 % 1013,8 hPa 0,0 l/m 19,3 km/h (3 Bft) S 180 0 min 0,0 UV-I 0 W/m 5,7 C -0,6 C 25,7 km/h (4 Bft)
11.01.2023 02:28 6,8 C 6,1 C 93 % 1013,9 hPa 0,0 l/m 22,5 km/h (4 Bft) S 180 0 min 0,0 UV-I 0 W/m 5,7 C -1,7 C 33,8 km/h (5 Bft)
11.01.2023 02:29 6,8 C 6,1 C 93 % 1013,9 hPa 0,0 l/m 22,5 km/h (4 Bft) S 180 0 min 0,0 UV-I 0 W/m 5,7 C -1,7 C 33,8 km/h (5 Bft)
11.01.2023 02:30 6,8 C 6,1 C 93 % 1013,9 hPa 0,0 l/m 19,3 km/h (3 Bft) S 180 0 min 0,0 UV-I 0 W/m 5,7 C -0,6 C 25,7 km/h (4 Bft)
11.01.2023 02:31 6,8 C 6,1 C 93 % 1013,9 hPa 0,0 l/m 20,9 km/h (4 Bft) S 180 0 min 0,0 UV-I 0 W/m 5,7 C -1,2 C 29,0 km/h (5 Bft)
11.01.2023 02:32 6,8 C 6,1 C 93 % 1013,9 hPa 0,0 l/m 19,3 km/h (3 Bft) S 180 0 min 0,0 UV-I 0 W/m 5,7 C -0,6 C 32,2 km/h (5 Bft)
11.01.2023 02:33 6,8 C 6,1 C 93 % 1013,9 hPa 0,0 l/m 16,1 km/h (3 Bft) S 180 0 min 0,0 UV-I 0 W/m 5,7 C 0,7 C 24,1 km/h (4 Bft)
11.01.2023 02:34 6,8 C 6,1 C 93 % 1013,9 hPa 0,0 l/m 17,7 km/h (3 Bft) S 180 0 min 0,0 UV-I 0 W/m 5,7 C 0,1 C 29,0 km/h (5 Bft)
11.01.2023 02:35 6,9 C 6,1 C 93 % 1013,9 hPa 0,0 l/m 22,5 km/h (4 Bft) S 180 0 min 0,0 UV-I 0 W/m 5,8 C -1,6 C 32,2 km/h (5 Bft)
11.01.2023 02:36 6,9 C 6,1 C 93 % 1014,0 hPa 0,0 l/m 20,9 km/h (4 Bft) S-SW 202 0 min 0,0 UV-I 0 W/m 5,8 C -1,0 C 27,4 km/h (4 Bft)
11.01.2023 02:37 6,9 C 6,1 C 93 % 1013,9 hPa 0,0 l/m 24,1 km/h (4 Bft) S 180 0 min 0,0 UV-I 0 W/m 5,8 C -2,1 C 38,6 km/h (5 Bft)
11.01.2023 02:38 6,9 C 6,1 C 93 % 1013,9 hPa 0,0 l/m 14,5 km/h (3 Bft) S 180 0 min 0,0 UV-I 0 W/m 5,8 C 1,6 C 17,7 km/h (3 Bft)
11.01.2023 02:39 6,9 C 6,1 C 93 % 1013,9 hPa 0,0 l/m 19,3 km/h (3 Bft) S 180 0 min 0,0 UV-I 0 W/m 5,8 C -0,5 C 35,4 km/h (5 Bft)
11.01.2023 02:40 6,9 C 6,1 C 93 % 1014,0 hPa 0,0 l/m 24,1 km/h (4 Bft) S 180 0 min 0,0 UV-I 0 W/m 5,8 C -2,1 C 37,0 km/h (5 Bft)
11.01.2023 02:41 6,9 C 6,1 C 93 % 1013,9 hPa 0,0 l/m 20,9 km/h (4 Bft) S 180 0 min 0,0 UV-I 0 W/m 5,8 C -1,0 C 27,4 km/h (4 Bft)
11.01.2023 02:42 6,9 C 6,1 C 93 % 1013,9 hPa 0,0 l/m 17,7 km/h (3 Bft) S 180 0 min 0,0 UV-I 0 W/m 5,8 C 0,2 C 24,1 km/h (4 Bft)
11.01.2023 02:43 7,0 C 6,1 C 93 % 1013,9 hPa 0,0 l/m 16,1 km/h (3 Bft) S 180 0 min 0,0 UV-I 0 W/m 5,9 C 1,0 C 20,9 km/h (4 Bft)
11.01.2023 02:44 6,9 C 6,1 C 93 % 1013,9 hPa 0,0 l/m 16,1 km/h (3 Bft) S 180 0 min 0,0 UV-I 0 W/m 5,8 C 0,9 C 22,5 km/h (4 Bft)
11.01.2023 02:45 7,0 C 6,1 C 93 % 1013,9 hPa 0,0 l/m 19,3 km/h (3 Bft) S 180 0 min 0,0 UV-I 0 W/m 5,9 C -0,3 C 27,4 km/h (4 Bft)
11.01.2023 02:46 7,0 C 6,1 C 93 % 1013,9 hPa 0,0 l/m 19,3 km/h (3 Bft) S 180 0 min 0,0 UV-I 0 W/m 5,9 C -0,3 C 29,0 km/h (5 Bft)
11.01.2023 02:47 7,0 C 6,7 C 93 % 1013,9 hPa 0,0 l/m 17,7 km/h (3 Bft) S 180 0 min 0,0 UV-I 0 W/m 5,9 C 0,3 C 29,0 km/h (5 Bft)
11.01.2023 02:48 7,0 C 6,7 C 93 % 1013,9 hPa 0,0 l/m 16,1 km/h (3 Bft) S 180 0 min 0,0 UV-I 0 W/m 5,9 C 1,0 C 25,7 km/h (4 Bft)
11.01.2023 02:49 7,1 C 6,7 C 93 % 1013,9 hPa 0,0 l/m 20,9 km/h (4 Bft) S 180 0 min 0,0 UV-I 0 W/m 6,0 C -0,8 C 30,6 km/h (5 Bft)
11.01.2023 02:50 7,1 C 6,7 C 93 % 1014,0 hPa 0,0 l/m 14,5 km/h (3 Bft) S 180 0 min 0,0 UV-I 0 W/m 6,0 C 1,9 C 20,9 km/h (4 Bft)
11.01.2023 02:51 7,1 C 6,7 C 93 % 1013,8 hPa 0,0 l/m 16,1 km/h (3 Bft) S 180 0 min 0,0 UV-I 0 W/m 6,0 C 1,1 C 22,5 km/h (4 Bft)
11.01.2023 02:52 7,1 C 6,7 C 93 % 1013,9 hPa 0,2 l/m 22,5 km/h (4 Bft) S 180 0 min 0,0 UV-I 0 W/m 6,0 C -1,3 C 33,8 km/h (5 Bft)
11.01.2023 02:53 7,1 C 6,7 C 93 % 1013,8 hPa 0,0 l/m 16,1 km/h (3 Bft) S 180 0 min 0,0 UV-I 0 W/m 6,0 C 1,1 C 25,7 km/h (4 Bft)
11.01.2023 02:54 7,1 C 6,7 C 93 % 1013,8 hPa 0,0 l/m 17,7 km/h (3 Bft) S-SW 202 0 min 0,0 UV-I 0 W/m 6,0 C 0,4 C 24,1 km/h (4 Bft)
11.01.2023 02:55 7,1 C 6,7 C 93 % 1013,9 hPa 0,0 l/m 17,7 km/h (3 Bft) S 180 0 min 0,0 UV-I 0 W/m 6,0 C 0,4 C 25,7 km/h (4 Bft)
11.01.2023 02:56 7,1 C 6,7 C 93 % 1013,8 hPa 0,0 l/m 20,9 km/h (4 Bft) S 180 0 min 0,0 UV-I 0 W/m 6,0 C -0,8 C 29,0 km/h (5 Bft)
11.01.2023 02:57 7,1 C 6,7 C 93 % 1013,8 hPa 0,0 l/m 14,5 km/h (3 Bft) S 180 0 min 0,0 UV-I 0 W/m 6,0 C 1,9 C 19,3 km/h (3 Bft)
11.01.2023 02:58 7,1 C 6,7 C 93 % 1013,9 hPa 0,0 l/m 19,3 km/h (3 Bft) S-SW 202 0 min 0,0 UV-I 0 W/m 6,0 C -0,2 C 32,2 km/h (5 Bft)
11.01.2023 02:59 7,1 C 6,7 C 93 % 1013,7 hPa 0,0 l/m 22,5 km/h (4 Bft) S-SW 202 0 min 0,0 UV-I 0 W/m 6,0 C -1,3 C 33,8 km/h (5 Bft)
11.01.2023 03:00 7,1 C 6,7 C 93 % 1013,7 hPa 0,0 l/m 17,7 km/h (3 Bft) S 180 0 min 0,0 UV-I 0 W/m 6,0 C 0,4 C 22,5 km/h (4 Bft)
11.01.2023 03:01 7,1 C 6,7 C 93 % 1013,8 hPa 0,0 l/m 14,5 km/h (3 Bft) S 180 0 min 0,0 UV-I 0 W/m 6,0 C 1,9 C 22,5 km/h (4 Bft)
11.01.2023 03:02 7,1 C 6,7 C 93 % 1013,8 hPa 0,0 l/m 16,1 km/h (3 Bft) S 180 0 min 0,0 UV-I 0 W/m 6,0 C 1,1 C 25,7 km/h (4 Bft)
11.01.2023 03:03 7,1 C 6,7 C 93 % 1013,9 hPa 0,0 l/m 12,9 km/h (3 Bft) S 180 0 min 0,0 UV-I 0 W/m 6,0 C 2,7 C 20,9 km/h (4 Bft)
11.01.2023 03:04 7,1 C 6,7 C 93 % 1013,8 hPa 0,0 l/m 20,9 km/h (4 Bft) S 180 0 min 0,0 UV-I 0 W/m 6,0 C -0,8 C 30,6 km/h (5 Bft)
11.01.2023 03:05 7,1 C 6,7 C 93 % 1013,9 hPa 0,0 l/m 16,1 km/h (3 Bft) S-SW 202 0 min 0,0 UV-I 0 W/m 6,0 C 1,1 C 20,9 km/h (4 Bft)
11.01.2023 03:06 7,2 C 6,7 C 93 % 1013,8 hPa 0,0 l/m 17,7 km/h (3 Bft) S 180 0 min 0,0 UV-I 0 W/m 6,1 C 0,6 C 27,4 km/h (4 Bft)
11.01.2023 03:07 7,2 C 6,7 C 93 % 1013,8 hPa 0,0 l/m 20,9 km/h (4 Bft) S 180 0 min 0,0 UV-I 0 W/m 6,1 C -0,7 C 30,6 km/h (5 Bft)
11.01.2023 03:08 7,2 C 6,7 C 93 % 1013,8 hPa 0,0 l/m 17,7 km/h (3 Bft) S 180 0 min 0,0 UV-I 0 W/m 6,1 C 0,6 C 27,4 km/h (4 Bft)
11.01.2023 03:09 7,2 C 6,7 C 93 % 1013,6 hPa 0,0 l/m 17,7 km/h (3 Bft) S-SO 157 0 min 0,0 UV-I 0 W/m 6,1 C 0,6 C 29,0 km/h (5 Bft)
11.01.2023 03:10 7,2 C 6,7 C 93 % 1013,7 hPa 0,2 l/m 22,5 km/h (4 Bft) S 180 0 min 0,0 UV-I 0 W/m 6,1 C -1,2 C 33,8 km/h (5 Bft)
11.01.2023 03:11 7,2 C 6,7 C 93 % 1013,8 hPa 0,0 l/m 14,5 km/h (3 Bft) S 180 0 min 0,0 UV-I 0 W/m 6,1 C 2,0 C 20,9 km/h (4 Bft)
11.01.2023 03:12 7,2 C 6,7 C 93 % 1013,7 hPa 0,0 l/m 12,9 km/h (3 Bft) S 180 0 min 0,0 UV-I 0 W/m 6,1 C 2,8 C 17,7 km/h (3 Bft)
11.01.2023 03:13 7,2 C 6,7 C 93 % 1013,7 hPa 0,0 l/m 17,7 km/h (3 Bft) S 180 0 min 0,0 UV-I 0 W/m 6,1 C 0,6 C 29,0 km/h (5 Bft)
11.01.2023 03:14 7,2 C 6,7 C 93 % 1013,6 hPa 0,0 l/m 20,9 km/h (4 Bft) S 180 0 min 0,0 UV-I 0 W/m 6,1 C -0,7 C 30,6 km/h (5 Bft)
11.01.2023 03:15 7,2 C 6,7 C 93 % 1013,7 hPa 0,0 l/m 17,7 km/h (3 Bft) S 180 0 min 0,0 UV-I 0 W/m 6,1 C 0,6 C 25,7 km/h (4 Bft)
11.01.2023 03:16 7,2 C 6,7 C 93 % 1013,6 hPa 0,0 l/m 17,7 km/h (3 Bft) S 180 0 min 0,0 UV-I 0 W/m 6,1 C 0,6 C 22,5 km/h (4 Bft)
11.01.2023 03:17 7,2 C 6,7 C 93 % 1013,6 hPa 0,0 l/m 16,1 km/h (3 Bft) S 180 0 min 0,0 UV-I 0 W/m 6,1 C 1,2 C 29,0 km/h (5 Bft)
11.01.2023 03:18 7,2 C 6,7 C 93 % 1013,7 hPa 0,0 l/m 16,1 km/h (3 Bft) S 180 0 min 0,0 UV-I 0 W/m 6,1 C 1,2 C 20,9 km/h (4 Bft)
11.01.2023 03:19 7,2 C 6,7 C 93 % 1013,7 hPa 0,0 l/m 16,1 km/h (3 Bft) S 180 0 min 0,0 UV-I 0 W/m 6,1 C 1,2 C 24,1 km/h (4 Bft)
11.01.2023 03:20 7,2 C 6,7 C 93 % 1013,7 hPa 0,0 l/m 11,3 km/h (2 Bft) S 180 0 min 0,0 UV-I 0 W/m 6,1 C 3,7 C 19,3 km/h (3 Bft)
11.01.2023 03:21 7,2 C 6,7 C 93 % 1013,7 hPa 0,0 l/m 19,3 km/h (3 Bft) S 180 0 min 0,0 UV-I 0 W/m 6,1 C -0,1 C 25,7 km/h (4 Bft)
11.01.2023 03:22 7,2 C 6,7 C 93 % 1013,5 hPa 0,0 l/m 20,9 km/h (4 Bft) SO 135 0 min 0,0 UV-I 0 W/m 6,1 C -0,7 C 25,7 km/h (4 Bft)
11.01.2023 03:23 7,2 C 6,7 C 93 % 1013,5 hPa 0,0 l/m 16,1 km/h (3 Bft) S-SO 157 0 min 0,0 UV-I 0 W/m 6,1 C 1,2 C 27,4 km/h (4 Bft)
11.01.2023 03:24 7,3 C 6,7 C 93 % 1013,5 hPa 0,0 l/m 19,3 km/h (3 Bft) S 180 0 min 0,0 UV-I 0 W/m 6,2 C 0,1 C 29,0 km/h (5 Bft)
11.01.2023 03:25 7,3 C 6,7 C 93 % 1013,6 hPa 0,0 l/m 16,1 km/h (3 Bft) S 180 0 min 0,0 UV-I 0 W/m 6,2 C 1,4 C 24,1 km/h (4 Bft)
11.01.2023 03:26 7,3 C 6,7 C 93 % 1013,6 hPa 0,0 l/m 17,7 km/h (3 Bft) S 180 0 min 0,0 UV-I 0 W/m 6,2 C 0,7 C 25,7 km/h (4 Bft)
11.01.2023 03:27 7,3 C 6,7 C 93 % 1013,6 hPa 0,0 l/m 14,5 km/h (3 Bft) S-SW 202 0 min 0,0 UV-I 0 W/m 6,2 C 2,1 C 19,3 km/h (3 Bft)
11.01.2023 03:28 7,3 C 6,7 C 93 % 1013,6 hPa 0,0 l/m 14,5 km/h (3 Bft) S 180 0 min 0,0 UV-I 0 W/m 6,2 C 2,1 C 24,1 km/h (4 Bft)
11.01.2023 03:29 7,3 C 6,7 C 93 % 1013,5 hPa 0,0 l/m 16,1 km/h (3 Bft) S 180 0 min 0,0 UV-I 0 W/m 6,2 C 1,4 C 24,1 km/h (4 Bft)
11.01.2023 03:30 7,3 C 6,7 C 93 % 1013,4 hPa 0,0 l/m 14,5 km/h (3 Bft) S 180 0 min 0,0 UV-I 0 W/m 6,2 C 2,1 C 19,3 km/h (3 Bft)
11.01.2023 03:31 7,3 C 6,7 C 93 % 1013,5 hPa 0,0 l/m 14,5 km/h (3 Bft) S 180 0 min 0,0 UV-I 0 W/m 6,2 C 2,1 C 19,3 km/h (3 Bft)
11.01.2023 03:32 7,3 C 6,7 C 93 % 1013,5 hPa 0,0 l/m 16,1 km/h (3 Bft) S 180 0 min 0,0 UV-I 0 W/m 6,2 C 1,4 C 20,9 km/h (4 Bft)
11.01.2023 03:33 7,3 C 6,7 C 93 % 1013,5 hPa 0,0 l/m 16,1 km/h (3 Bft) S 180 0 min 0,0 UV-I 0 W/m 6,2 C 1,4 C 22,5 km/h (4 Bft)
11.01.2023 03:34 7,3 C 6,7 C 93 % 1013,4 hPa 0,0 l/m 17,7 km/h (3 Bft) S 180 0 min 0,0 UV-I 0 W/m 6,2 C 0,7 C 25,7 km/h (4 Bft)
11.01.2023 03:35 7,3 C 6,7 C 93 % 1013,4 hPa 0,2 l/m 22,5 km/h (4 Bft) S 180 0 min 0,0 UV-I 0 W/m 6,2 C -1,1 C 29,0 km/h (5 Bft)
11.01.2023 03:36 7,3 C 6,7 C 93 % 1013,4 hPa 0,0 l/m 16,1 km/h (3 Bft) S 180 0 min 0,0 UV-I 0 W/m 6,2 C 1,4 C 29,0 km/h (5 Bft)
11.01.2023 03:37 7,3 C 6,7 C 93 % 1013,5 hPa 0,0 l/m 20,9 km/h (4 Bft) S 180 0 min 0,0 UV-I 0 W/m 6,2 C -0,5 C 30,6 km/h (5 Bft)
11.01.2023 03:38 7,3 C 6,7 C 93 % 1013,4 hPa 0,0 l/m 24,1 km/h (4 Bft) S-SO 157 0 min 0,0 UV-I 0 W/m 6,2 C -1,6 C 35,4 km/h (5 Bft)
11.01.2023 03:39 7,4 C 6,7 C 93 % 1013,3 hPa 0,0 l/m 20,9 km/h (4 Bft) S 180 0 min 0,0 UV-I 0 W/m 6,3 C -0,4 C 38,6 km/h (5 Bft)
11.01.2023 03:40 7,4 C 6,7 C 93 % 1013,3 hPa 0,0 l/m 20,9 km/h (4 Bft) S 180 0 min 0,0 UV-I 0 W/m 6,3 C -0,4 C 35,4 km/h (5 Bft)
11.01.2023 03:41 7,4 C 6,7 C 93 % 1013,3 hPa 0,0 l/m 20,9 km/h (4 Bft) S 180 0 min 0,0 UV-I 0 W/m 6,3 C -0,4 C 27,4 km/h (4 Bft)
11.01.2023 03:42 7,4 C 6,7 C 93 % 1013,3 hPa 0,0 l/m 25,7 km/h (4 Bft) S 180 0 min 0,0 UV-I 0 W/m 6,3 C -1,9 C 35,4 km/h (5 Bft)
11.01.2023 03:43 7,4 C 6,7 C 93 % 1013,3 hPa 0,0 l/m 16,1 km/h (3 Bft) S 180 0 min 0,0 UV-I 0 W/m 6,3 C 1,5 C 27,4 km/h (4 Bft)
11.01.2023 03:44 7,4 C 6,7 C 93 % 1013,4 hPa 0,0 l/m 22,5 km/h (4 Bft) S-SW 202 0 min 0,0 UV-I 0 W/m 6,3 C -0,9 C 35,4 km/h (5 Bft)
11.01.2023 03:45 7,4 C 6,7 C 93 % 1013,3 hPa 0,0 l/m 24,1 km/h (4 Bft) S-SW 202 0 min 0,0 UV-I 0 W/m 6,3 C -1,4 C 35,4 km/h (5 Bft)
11.01.2023 03:46 7,5 C 6,7 C 93 % 1013,4 hPa 0,0 l/m 20,9 km/h (4 Bft) S 180 0 min 0,0 UV-I 0 W/m 6,4 C -0,3 C 35,4 km/h (5 Bft)
11.01.2023 03:47 7,5 C 6,7 C 93 % 1013,2 hPa 0,0 l/m 24,1 km/h (4 Bft) S 180 0 min 0,0 UV-I 0 W/m 6,4 C -1,3 C 33,8 km/h (5 Bft)
11.01.2023 03:48 7,5 C 6,7 C 93 % 1013,3 hPa 0,0 l/m 19,3 km/h (3 Bft) S 180 0 min 0,0 UV-I 0 W/m 6,4 C 0,3 C 29,0 km/h (5 Bft)
11.01.2023 03:49 7,5 C 6,7 C 93 % 1013,3 hPa 0,0 l/m 11,3 km/h (2 Bft) S-SW 202 0 min 0,0 UV-I 0 W/m 6,4 C 4,0 C 14,5 km/h (3 Bft)
11.01.2023 03:50 7,5 C 6,7 C 93 % 1013,2 hPa 0,0 l/m 16,1 km/h (3 Bft) S 180 0 min 0,0 UV-I 0 W/m 6,4 C 1,6 C 29,0 km/h (5 Bft)
11.01.2023 03:51 7,6 C 6,7 C 93 % 1013,2 hPa 0,0 l/m 19,3 km/h (3 Bft) S 180 0 min 0,0 UV-I 0 W/m 6,5 C 0,4 C 24,1 km/h (4 Bft)
11.01.2023 03:52 7,6 C 6,7 C 93 % 1013,2 hPa 0,0 l/m 20,9 km/h (4 Bft) S 180 0 min 0,0 UV-I 0 W/m 6,5 C -0,1 C 27,4 km/h (4 Bft)
11.01.2023 03:53 7,6 C 6,7 C 93 % 1013,2 hPa 0,0 l/m 16,1 km/h (3 Bft) S 180 0 min 0,0 UV-I 0 W/m 6,5 C 1,7 C 25,7 km/h (4 Bft)
11.01.2023 03:54 7,6 C 6,7 C 93 % 1013,1 hPa 0,0 l/m 20,9 km/h (4 Bft) S-SO 157 0 min 0,0 UV-I 0 W/m 6,5 C -0,1 C 32,2 km/h (5 Bft)
11.01.2023 03:55 7,6 C 6,7 C 93 % 1013,1 hPa 0,0 l/m 19,3 km/h (3 Bft) S 180 0 min 0,0 UV-I 0 W/m 6,5 C 0,4 C 33,8 km/h (5 Bft)
11.01.2023 03:56 7,6 C 6,7 C 93 % 1013,1 hPa 0,0 l/m 17,7 km/h (3 Bft) S-SW 202 0 min 0,0 UV-I 0 W/m 6,5 C 1,1 C 29,0 km/h (5 Bft)
11.01.2023 03:57 7,6 C 6,7 C 93 % 1013,1 hPa 0,0 l/m 19,3 km/h (3 Bft) S 180 0 min 0,0 UV-I 0 W/m 6,5 C 0,4 C 29,0 km/h (5 Bft)
11.01.2023 03:58 7,6 C 6,7 C 93 % 1013,2 hPa 0,0 l/m 16,1 km/h (3 Bft) S 180 0 min 0,0 UV-I 0 W/m 6,5 C 1,7 C 27,4 km/h (4 Bft)
11.01.2023 03:59 7,6 C 6,7 C 93 % 1013,0 hPa 0,0 l/m 17,7 km/h (3 Bft) S 180 0 min 0,0 UV-I 0 W/m 6,5 C 1,1 C 29,0 km/h (5 Bft)
11.01.2023 04:00 7,6 C 6,7 C 93 % 1013,0 hPa 0,0 l/m 20,9 km/h (4 Bft) S 180 0 min 0,0 UV-I 0 W/m 6,5 C -0,1 C 30,6 km/h (5 Bft)
11.01.2023 04:01 7,6 C 6,7 C 93 % 1013,0 hPa 0,0 l/m 20,9 km/h (4 Bft) S 180 0 min 0,0 UV-I 0 W/m 6,5 C -0,1 C 40,2 km/h (6 Bft)
11.01.2023 04:02 7,7 C 6,7 C 93 % 1013,0 hPa 0,0 l/m 19,3 km/h (3 Bft) S-SO 157 0 min 0,0 UV-I 0 W/m 6,6 C 0,6 C 29,0 km/h (5 Bft)
11.01.2023 04:03 7,6 C 6,7 C 93 % 1013,1 hPa 0,0 l/m 19,3 km/h (3 Bft) S 180 0 min 0,0 UV-I 0 W/m 6,5 C 0,4 C 32,2 km/h (5 Bft)
11.01.2023 04:04 7,7 C 6,7 C 93 % 1013,0 hPa 0,0 l/m 24,1 km/h (4 Bft) S 180 0 min 0,0 UV-I 0 W/m 6,6 C -1,0 C 37,0 km/h (5 Bft)
11.01.2023 04:05 7,7 C 7,2 C 93 % 1012,9 hPa 0,0 l/m 22,5 km/h (4 Bft) S-SO 157 0 min 0,0 UV-I 0 W/m 6,6 C -0,5 C 32,2 km/h (5 Bft)
11.01.2023 04:06 7,7 C 7,2 C 93 % 1012,8 hPa 0,0 l/m 19,3 km/h (3 Bft) S-SO 157 0 min 0,0 UV-I 0 W/m 6,6 C 0,6 C 30,6 km/h (5 Bft)
11.01.2023 04:07 7,7 C 7,2 C 93 % 1012,9 hPa 0,0 l/m 19,3 km/h (3 Bft) S 180 0 min 0,0 UV-I 0 W/m 6,6 C 0,6 C 35,4 km/h (5 Bft)
11.01.2023 04:08 7,7 C 7,2 C 93 % 1012,9 hPa 0,0 l/m 16,1 km/h (3 Bft) SO 135 0 min 0,0 UV-I 0 W/m 6,6 C 1,9 C 25,7 km/h (4 Bft)
11.01.2023 04:09 7,7 C 7,2 C 93 % 1012,9 hPa 0,0 l/m 17,7 km/h (3 Bft) S 180 0 min 0,0 UV-I 0 W/m 6,6 C 1,2 C 24,1 km/h (4 Bft)
11.01.2023 04:10 7,7 C 7,2 C 93 % 1012,9 hPa 0,0 l/m 16,1 km/h (3 Bft) S 180 0 min 0,0 UV-I 0 W/m 6,6 C 1,9 C 22,5 km/h (4 Bft)
11.01.2023 04:11 7,7 C 7,2 C 93 % 1012,8 hPa 0,0 l/m 17,7 km/h (3 Bft) S-SO 157 0 min 0,0 UV-I 0 W/m 6,6 C 1,2 C 24,1 km/h (4 Bft)
11.01.2023 04:12 7,7 C 7,2 C 93 % 1012,8 hPa 0,0 l/m 17,7 km/h (3 Bft) S-SW 202 0 min 0,0 UV-I 0 W/m 6,6 C 1,2 C 33,8 km/h (5 Bft)
11.01.2023 04:13 7,7 C 7,2 C 93 % 1012,8 hPa 0,0 l/m 22,5 km/h (4 Bft) S 180 0 min 0,0 UV-I 0 W/m 6,6 C -0,5 C 30,6 km/h (5 Bft)
11.01.2023 04:14 7,7 C 7,2 C 93 % 1012,9 hPa 0,0 l/m 17,7 km/h (3 Bft) S-SO 157 0 min 0,0 UV-I 0 W/m 6,6 C 1,2 C 25,7 km/h (4 Bft)
11.01.2023 04:15 7,7 C 7,2 C 93 % 1012,9 hPa 0,0 l/m 19,3 km/h (3 Bft) S 180 0 min 0,0 UV-I 0 W/m 6,6 C 0,6 C 29,0 km/h (5 Bft)
11.01.2023 04:16 7,7 C 7,2 C 93 % 1012,9 hPa 0,0 l/m 22,5 km/h (4 Bft) S 180 0 min 0,0 UV-I 0 W/m 6,6 C -0,5 C 29,0 km/h (5 Bft)
11.01.2023 04:17 7,7 C 7,2 C 93 % 1012,8 hPa 0,0 l/m 19,3 km/h (3 Bft) S 180 0 min 0,0 UV-I 0 W/m 6,6 C 0,6 C 25,7 km/h (4 Bft)
11.01.2023 04:18 7,7 C 7,2 C 93 % 1012,9 hPa 0,0 l/m 16,1 km/h (3 Bft) S 180 0 min 0,0 UV-I 0 W/m 6,6 C 1,9 C 24,1 km/h (4 Bft)
11.01.2023 04:19 7,7 C 7,2 C 93 % 1012,9 hPa 0,0 l/m 17,7 km/h (3 Bft) S 180 0 min 0,0 UV-I 0 W/m 6,6 C 1,2 C 24,1 km/h (4 Bft)
11.01.2023 04:20 7,7 C 7,2 C 93 % 1013,0 hPa 0,0 l/m 14,5 km/h (3 Bft) S-SO 157 0 min 0,0 UV-I 0 W/m 6,6 C 2,6 C 20,9 km/h (4 Bft)
11.01.2023 04:21 7,7 C 7,2 C 93 % 1012,9 hPa 0,0 l/m 14,5 km/h (3 Bft) S 180 0 min 0,0 UV-I 0 W/m 6,6 C 2,6 C 22,5 km/h (4 Bft)
11.01.2023 04:22 7,8 C 7,2 C 93 % 1012,9 hPa 0,0 l/m 19,3 km/h (3 Bft) S 180 0 min 0,0 UV-I 0 W/m 6,7 C 0,7 C 27,4 km/h (4 Bft)
11.01.2023 04:23 7,7 C 7,2 C 93 % 1012,9 hPa 0,2 l/m 19,3 km/h (3 Bft) S 180 0 min 0,0 UV-I 0 W/m 6,6 C 0,6 C 32,2 km/h (5 Bft)
11.01.2023 04:24 7,7 C 7,2 C 93 % 1012,9 hPa 0,0 l/m 17,7 km/h (3 Bft) S 180 0 min 0,0 UV-I 0 W/m 6,6 C 1,2 C 25,7 km/h (4 Bft)
11.01.2023 04:25 7,8 C 7,2 C 93 % 1012,9 hPa 0,0 l/m 14,5 km/h (3 Bft) S 180 0 min 0,0 UV-I 0 W/m 6,7 C 2,7 C 24,1 km/h (4 Bft)
11.01.2023 04:26 7,7 C 7,2 C 93 % 1012,9 hPa 0,0 l/m 19,3 km/h (3 Bft) S 180 0 min 0,0 UV-I 0 W/m 6,6 C 0,6 C 25,7 km/h (4 Bft)
11.01.2023 04:27 7,7 C 7,2 C 93 % 1012,9 hPa 0,0 l/m 16,1 km/h (3 Bft) S 180 0 min 0,0 UV-I 0 W/m 6,6 C 1,9 C 22,5 km/h (4 Bft)
11.01.2023 04:28 7,7 C 7,2 C 93 % 1012,8 hPa 0,0 l/m 12,9 km/h (3 Bft) S 180 0 min 0,0 UV-I 0 W/m 6,6 C 3,4 C 20,9 km/h (4 Bft)
11.01.2023 04:29 7,8 C 7,2 C 93 % 1012,9 hPa 0,0 l/m 17,7 km/h (3 Bft) S 180 0 min 0,0 UV-I 0 W/m 6,7 C 1,3 C 35,4 km/h (5 Bft)
11.01.2023 04:30 7,8 C 7,2 C 93 % 1012,9 hPa 0,0 l/m 17,7 km/h (3 Bft) S 180 0 min 0,0 UV-I 0 W/m 6,7 C 1,3 C 29,0 km/h (5 Bft)
11.01.2023 04:31 7,8 C 7,2 C 93 % 1012,9 hPa 0,0 l/m 19,3 km/h (3 Bft) S 180 0 min 0,0 UV-I 0 W/m 6,7 C 0,7 C 33,8 km/h (5 Bft)
11.01.2023 04:32 7,8 C 7,2 C 93 % 1012,9 hPa 0,0 l/m 27,4 km/h (4 Bft) S 180 0 min 0,0 UV-I 0 W/m 6,7 C -1,8 C 38,6 km/h (5 Bft)
11.01.2023 04:33 7,8 C 7,2 C 93 % 1012,9 hPa 0,0 l/m 25,7 km/h (4 Bft) S 180 0 min 0,0 UV-I 0 W/m 6,7 C -1,3 C 38,6 km/h (5 Bft)
11.01.2023 04:34 7,8 C 7,2 C 93 % 1012,9 hPa 0,0 l/m 19,3 km/h (3 Bft) S 180 0 min 0,0 UV-I 0 W/m 6,7 C 0,7 C 24,1 km/h (4 Bft)
11.01.2023 04:35 7,8 C 7,2 C 93 % 1012,9 hPa 0,0 l/m 19,3 km/h (3 Bft) S 180 0 min 0,0 UV-I 0 W/m 6,7 C 0,7 C 32,2 km/h (5 Bft)
11.01.2023 04:36 7,8 C 7,2 C 93 % 1012,9 hPa 0,0 l/m 19,3 km/h (3 Bft) S 180 0 min 0,0 UV-I 0 W/m 6,7 C 0,7 C 27,4 km/h (4 Bft)
11.01.2023 04:37 7,8 C 7,2 C 93 % 1012,9 hPa 0,0 l/m 16,1 km/h (3 Bft) S 180 0 min 0,0 UV-I 0 W/m 6,7 C 2,0 C 22,5 km/h (4 Bft)
11.01.2023 04:38 7,8 C 7,2 C 93 % 1012,9 hPa 0,0 l/m 19,3 km/h (3 Bft) S 180 0 min 0,0 UV-I 0 W/m 6,7 C 0,7 C 30,6 km/h (5 Bft)
11.01.2023 04:39 7,8 C 7,2 C 93 % 1012,9 hPa 0,0 l/m 17,7 km/h (3 Bft) S 180 0 min 0,0 UV-I 0 W/m 6,7 C 1,3 C 24,1 km/h (4 Bft)
11.01.2023 04:40 7,8 C 7,2 C 93 % 1012,9 hPa 0,0 l/m 20,9 km/h (4 Bft) S 180 0 min 0,0 UV-I 0 W/m 6,7 C 0,1 C 27,4 km/h (4 Bft)
11.01.2023 04:41 7,8 C 7,2 C 93 % 1012,9 hPa 0,0 l/m 19,3 km/h (3 Bft) S 180 0 min 0,0 UV-I 0 W/m 6,7 C 0,7 C 30,6 km/h (5 Bft)
11.01.2023 04:42 7,8 C 7,2 C 93 % 1012,9 hPa 0,0 l/m 17,7 km/h (3 Bft) S 180 0 min 0,0 UV-I 0 W/m 6,7 C 1,3 C 25,7 km/h (4 Bft)
11.01.2023 04:43 7,8 C 7,2 C 93 % 1012,8 hPa 0,0 l/m 16,1 km/h (3 Bft) S 180 0 min 0,0 UV-I 0 W/m 6,7 C 2,0 C 29,0 km/h (5 Bft)
11.01.2023 04:44 7,8 C 7,2 C 93 % 1012,9 hPa 0,0 l/m 19,3 km/h (3 Bft) S-SW 202 0 min 0,0 UV-I 0 W/m 6,7 C 0,7 C 27,4 km/h (4 Bft)
11.01.2023 04:45 7,8 C 7,2 C 93 % 1012,9 hPa 0,0 l/m 14,5 km/h (3 Bft) S 180 0 min 0,0 UV-I 0 W/m 6,7 C 2,7 C 24,1 km/h (4 Bft)
11.01.2023 04:46 7,8 C 7,2 C 93 % 1012,9 hPa 0,0 l/m 16,1 km/h (3 Bft) S 180 0 min 0,0 UV-I 0 W/m 6,7 C 2,0 C 27,4 km/h (4 Bft)
11.01.2023 04:47 7,8 C 7,2 C 93 % 1012,8 hPa 0,0 l/m 17,7 km/h (3 Bft) S 180 0 min 0,0 UV-I 0 W/m 6,7 C 1,3 C 25,7 km/h (4 Bft)
11.01.2023 04:48 7,8 C 7,2 C 93 % 1012,8 hPa 0,0 l/m 24,1 km/h (4 Bft) S 180 0 min 0,0 UV-I 0 W/m 6,7 C -0,9 C 33,8 km/h (5 Bft)
11.01.2023 04:49 7,8 C 7,2 C 93 % 1012,8 hPa 0,0 l/m 17,7 km/h (3 Bft) S 180 0 min 0,0 UV-I 0 W/m 6,7 C 1,3 C 24,1 km/h (4 Bft)
11.01.2023 04:50 7,9 C 7,2 C 93 % 1012,8 hPa 0,0 l/m 14,5 km/h (3 Bft) S 180 0 min 0,0 UV-I 0 W/m 6,8 C 2,8 C 22,5 km/h (4 Bft)
11.01.2023 04:51 7,8 C 7,2 C 93 % 1012,8 hPa 0,0 l/m 17,7 km/h (3 Bft) S 180 0 min 0,0 UV-I 0 W/m 6,7 C 1,3 C 20,9 km/h (4 Bft)
11.01.2023 04:52 7,9 C 7,2 C 93 % 1012,7 hPa 0,0 l/m 16,1 km/h (3 Bft) S 180 0 min 0,0 UV-I 0 W/m 6,8 C 2,1 C 25,7 km/h (4 Bft)
11.01.2023 04:53 7,9 C 7,2 C 93 % 1012,8 hPa 0,0 l/m 14,5 km/h (3 Bft) S 180 0 min 0,0 UV-I 0 W/m 6,8 C 2,8 C 24,1 km/h (4 Bft)
11.01.2023 04:54 7,8 C 7,2 C 93 % 1012,7 hPa 0,0 l/m 17,7 km/h (3 Bft) S 180 0 min 0,0 UV-I 0 W/m 6,7 C 1,3 C 32,2 km/h (5 Bft)
11.01.2023 04:55 7,9 C 7,2 C 93 % 1012,7 hPa 0,0 l/m 20,9 km/h (4 Bft) S 180 0 min 0,0 UV-I 0 W/m 6,8 C 0,3 C 27,4 km/h (4 Bft)
11.01.2023 04:56 7,9 C 7,2 C 93 % 1012,8 hPa 0,2 l/m 22,5 km/h (4 Bft) S 180 0 min 0,0 UV-I 0 W/m 6,8 C -0,3 C 32,2 km/h (5 Bft)
11.01.2023 04:57 7,9 C 7,2 C 93 % 1012,7 hPa 0,0 l/m 20,9 km/h (4 Bft) S-SO 157 0 min 0,0 UV-I 0 W/m 6,8 C 0,3 C 32,2 km/h (5 Bft)
11.01.2023 04:58 7,9 C 7,2 C 93 % 1012,7 hPa 0,0 l/m 20,9 km/h (4 Bft) S 180 0 min 0,0 UV-I 0 W/m 6,8 C 0,3 C 32,2 km/h (5 Bft)
11.01.2023 04:59 7,9 C 7,2 C 93 % 1012,7 hPa 0,0 l/m 16,1 km/h (3 Bft) S 180 0 min 0,0 UV-I 0 W/m 6,8 C 2,1 C 20,9 km/h (4 Bft)
11.01.2023 05:00 7,9 C 7,2 C 93 % 1012,8 hPa 0,0 l/m 17,7 km/h (3 Bft) S 180 0 min 0,0 UV-I 0 W/m 6,8 C 1,4 C 30,6 km/h (5 Bft)
11.01.2023 05:01 7,9 C 7,2 C 93 % 1012,7 hPa 0,0 l/m 17,7 km/h (3 Bft) S 180 0 min 0,0 UV-I 0 W/m 6,8 C 1,4 C 29,0 km/h (5 Bft)
11.01.2023 05:02 7,9 C 7,2 C 93 % 1012,7 hPa 0,0 l/m 24,1 km/h (4 Bft) S 180 0 min 0,0 UV-I 0 W/m 6,8 C -0,8 C 32,2 km/h (5 Bft)
11.01.2023 05:03 7,9 C 7,2 C 93 % 1012,7 hPa 0,2 l/m 16,1 km/h (3 Bft) S 180 0 min 0,0 UV-I 0 W/m 6,8 C 2,1 C 30,6 km/h (5 Bft)
11.01.2023 05:04 8,0 C 7,2 C 93 % 1012,7 hPa 0,0 l/m 19,3 km/h (3 Bft) S 180 0 min 0,0 UV-I 0 W/m 6,9 C 1,0 C 27,4 km/h (4 Bft)
11.01.2023 05:05 8,0 C 7,2 C 93 % 1012,7 hPa 0,0 l/m 19,3 km/h (3 Bft) S 180 0 min 0,0 UV-I 0 W/m 6,9 C 1,0 C 27,4 km/h (4 Bft)
11.01.2023 05:06 8,0 C 7,2 C 93 % 1012,7 hPa 0,0 l/m 16,1 km/h (3 Bft) S 180 0 min 0,0 UV-I 0 W/m 6,9 C 2,2 C 25,7 km/h (4 Bft)
11.01.2023 05:07 7,9 C 7,2 C 93 % 1012,7 hPa 0,0 l/m 14,5 km/h (3 Bft) S 180 0 min 0,0 UV-I 0 W/m 6,8 C 2,8 C 22,5 km/h (4 Bft)
11.01.2023 05:08 7,9 C 7,2 C 93 % 1012,6 hPa 0,0 l/m 16,1 km/h (3 Bft) S 180 0 min 0,0 UV-I 0 W/m 6,8 C 2,1 C 24,1 km/h (4 Bft)
11.01.2023 05:09 8,0 C 7,2 C 93 % 1012,6 hPa 0,0 l/m 20,9 km/h (4 Bft) S 180 0 min 0,0 UV-I 0 W/m 6,9 C 0,4 C 32,2 km/h (5 Bft)
11.01.2023 05:10 8,0 C 7,2 C 93 % 1012,7 hPa 0,0 l/m 20,9 km/h (4 Bft) S 180 0 min 0,0 UV-I 0 W/m 6,9 C 0,4 C 29,0 km/h (5 Bft)
11.01.2023 05:11 8,0 C 7,2 C 93 % 1012,6 hPa 0,0 l/m 19,3 km/h (3 Bft) S-SW 202 0 min 0,0 UV-I 0 W/m 6,9 C 1,0 C 32,2 km/h (5 Bft)
11.01.2023 05:12 8,0 C 7,2 C 93 % 1012,6 hPa 0,2 l/m 16,1 km/h (3 Bft) S 180 0 min 0,0 UV-I 0 W/m 6,9 C 2,2 C 22,5 km/h (4 Bft)
11.01.2023 05:13 8,0 C 7,2 C 93 % 1012,7 hPa 0,0 l/m 22,5 km/h (4 Bft) S 180 0 min 0,0 UV-I 0 W/m 6,9 C -0,1 C 29,0 km/h (5 Bft)
11.01.2023 05:14 8,0 C 7,2 C 93 % 1012,6 hPa 0,0 l/m 22,5 km/h (4 Bft) S 180 0 min 0,0 UV-I 0 W/m 6,9 C -0,1 C 29,0 km/h (5 Bft)
11.01.2023 05:15 8,0 C 7,2 C 93 % 1012,6 hPa 0,0 l/m 19,3 km/h (3 Bft) S 180 0 min 0,0 UV-I 0 W/m 6,9 C 1,0 C 24,1 km/h (4 Bft)
11.01.2023 05:16 8,0 C 7,2 C 93 % 1012,6 hPa 0,0 l/m 20,9 km/h (4 Bft) S 180 0 min 0,0 UV-I 0 W/m 6,9 C 0,4 C 27,4 km/h (4 Bft)
11.01.2023 05:17 8,0 C 7,2 C 93 % 1012,6 hPa 0,0 l/m 17,7 km/h (3 Bft) S 180 0 min 0,0 UV-I 0 W/m 6,9 C 1,6 C 25,7 km/h (4 Bft)
11.01.2023 05:18 8,1 C 7,2 C 93 % 1012,5 hPa 0,0 l/m 20,9 km/h (4 Bft) S-SW 202 0 min 0,0 UV-I 0 W/m 7,0 C 0,5 C 29,0 km/h (5 Bft)
11.01.2023 05:19 8,1 C 7,2 C 93 % 1012,6 hPa 0,0 l/m 17,7 km/h (3 Bft) S-SW 202 0 min 0,0 UV-I 0 W/m 7,0 C 1,7 C 25,7 km/h (4 Bft)
11.01.2023 05:20 8,1 C 7,2 C 93 % 1012,5 hPa 0,2 l/m 22,5 km/h (4 Bft) S 180 0 min 0,0 UV-I 0 W/m 7,0 C 0,0 C 32,2 km/h (5 Bft)
11.01.2023 05:21 8,1 C 7,2 C 93 % 1012,5 hPa 0,0 l/m 19,3 km/h (3 Bft) S 180 0 min 0,0 UV-I 0 W/m 7,0 C 1,1 C 25,7 km/h (4 Bft)
11.01.2023 05:22 8,1 C 7,2 C 93 % 1012,5 hPa 0,0 l/m 20,9 km/h (4 Bft) S 180 0 min 0,0 UV-I 0 W/m 7,0 C 0,5 C 37,0 km/h (5 Bft)
11.01.2023 05:23 8,1 C 7,2 C 93 % 1012,4 hPa 0,0 l/m 22,5 km/h (4 Bft) S-SO 157 0 min 0,0 UV-I 0 W/m 7,0 C 0,0 C 30,6 km/h (5 Bft)
11.01.2023 05:24 8,1 C 7,2 C 93 % 1012,5 hPa 0,0 l/m 24,1 km/h (4 Bft) S 180 0 min 0,0 UV-I 0 W/m 7,0 C -0,5 C 33,8 km/h (5 Bft)
11.01.2023 05:25 8,1 C 7,2 C 93 % 1012,5 hPa 0,0 l/m 17,7 km/h (3 Bft) S-SO 157 0 min 0,0 UV-I 0 W/m 7,0 C 1,7 C 29,0 km/h (5 Bft)
11.01.2023 05:26 8,1 C 7,2 C 93 % 1012,5 hPa 0,0 l/m 27,4 km/h (4 Bft) S 180 0 min 0,0 UV-I 0 W/m 7,0 C -1,4 C 38,6 km/h (5 Bft)
11.01.2023 05:27 8,1 C 7,2 C 93 % 1012,5 hPa 0,0 l/m 16,1 km/h (3 Bft) S 180 0 min 0,0 UV-I 0 W/m 7,0 C 2,3 C 24,1 km/h (4 Bft)
11.01.2023 05:28 8,1 C 7,2 C 93 % 1012,5 hPa 0,0 l/m 24,1 km/h (4 Bft) S 180 0 min 0,0 UV-I 0 W/m 7,0 C -0,5 C 33,8 km/h (5 Bft)
11.01.2023 05:29 8,1 C 7,2 C 93 % 1012,5 hPa 0,0 l/m 20,9 km/h (4 Bft) S 180 0 min 0,0 UV-I 0 W/m 7,0 C 0,5 C 32,2 km/h (5 Bft)
11.01.2023 05:30 8,1 C 7,2 C 93 % 1012,5 hPa 0,0 l/m 20,9 km/h (4 Bft) S 180 0 min 0,0 UV-I 0 W/m 7,0 C 0,5 C 30,6 km/h (5 Bft)
11.01.2023 05:31 8,1 C 7,2 C 93 % 1012,4 hPa 0,2 l/m 27,4 km/h (4 Bft) S 180 0 min 0,0 UV-I 0 W/m 7,0 C -1,4 C 40,2 km/h (6 Bft)
11.01.2023 05:32 8,1 C 7,2 C 93 % 1012,4 hPa 0,0 l/m 29,0 km/h (5 Bft) S 180 0 min 0,0 UV-I 0 W/m 7,0 C -1,8 C 38,6 km/h (5 Bft)
11.01.2023 05:33 8,2 C 7,2 C 93 % 1012,5 hPa 0,0 l/m 24,1 km/h (4 Bft) S 180 0 min 0,0 UV-I 0 W/m 7,1 C -0,3 C 33,8 km/h (5 Bft)
11.01.2023 05:34 8,1 C 7,2 C 93 % 1012,6 hPa 0,0 l/m 25,7 km/h (4 Bft) S 180 0 min 0,0 UV-I 0 W/m 7,0 C -0,9 C 40,2 km/h (6 Bft)
11.01.2023 05:35 8,1 C 7,2 C 93 % 1012,5 hPa 0,0 l/m 20,9 km/h (4 Bft) S-SW 202 0 min 0,0 UV-I 0 W/m 7,0 C 0,5 C 32,2 km/h (5 Bft)
11.01.2023 05:36 8,2 C 7,2 C 93 % 1012,5 hPa 0,0 l/m 19,3 km/h (3 Bft) S 180 0 min 0,0 UV-I 0 W/m 7,1 C 1,2 C 25,7 km/h (4 Bft)
11.01.2023 05:37 8,2 C 7,2 C 93 % 1012,4 hPa 0,0 l/m 19,3 km/h (3 Bft) S 180 0 min 0,0 UV-I 0 W/m 7,1 C 1,2 C 25,7 km/h (4 Bft)
11.01.2023 05:38 8,2 C 7,2 C 93 % 1012,4 hPa 0,2 l/m 20,9 km/h (4 Bft) S 180 0 min 0,0 UV-I 0 W/m 7,1 C 0,7 C 30,6 km/h (5 Bft)
11.01.2023 05:39 8,1 C 7,2 C 93 % 1012,3 hPa 0,0 l/m 20,9 km/h (4 Bft) S 180 0 min 0,0 UV-I 0 W/m 7,0 C 0,5 C 30,6 km/h (5 Bft)
11.01.2023 05:40 8,2 C 7,2 C 93 % 1012,4 hPa 0,0 l/m 19,3 km/h (3 Bft) S 180 0 min 0,0 UV-I 0 W/m 7,1 C 1,2 C 37,0 km/h (5 Bft)
11.01.2023 05:41 8,2 C 7,2 C 93 % 1012,5 hPa 0,0 l/m 19,3 km/h (3 Bft) S 180 0 min 0,0 UV-I 0 W/m 7,1 C 1,2 C 35,4 km/h (5 Bft)
11.01.2023 05:42 8,2 C 7,2 C 93 % 1012,3 hPa 0,0 l/m 19,3 km/h (3 Bft) S 180 0 min 0,0 UV-I 0 W/m 7,1 C 1,2 C 27,4 km/h (4 Bft)
11.01.2023 05:43 8,2 C 7,2 C 93 % 1012,4 hPa 0,2 l/m 24,1 km/h (4 Bft) S 180 0 min 0,0 UV-I 0 W/m 7,1 C -0,3 C 33,8 km/h (5 Bft)
11.01.2023 05:44 8,2 C 7,2 C 93 % 1012,4 hPa 0,0 l/m 20,9 km/h (4 Bft) S 180 0 min 0,0 UV-I 0 W/m 7,1 C 0,7 C 32,2 km/h (5 Bft)
11.01.2023 05:45 8,2 C 7,2 C 93 % 1012,4 hPa 0,0 l/m 20,9 km/h (4 Bft) S 180 0 min 0,0 UV-I 0 W/m 7,1 C 0,7 C 38,6 km/h (5 Bft)
11.01.2023 05:46 8,2 C 7,2 C 93 % 1012,3 hPa 0,0 l/m 16,1 km/h (3 Bft) S 180 0 min 0,0 UV-I 0 W/m 7,1 C 2,5 C 24,1 km/h (4 Bft)
11.01.2023 05:47 8,2 C 7,2 C 93 % 1012,4 hPa 0,0 l/m 16,1 km/h (3 Bft) S 180 0 min 0,0 UV-I 0 W/m 7,1 C 2,5 C 29,0 km/h (5 Bft)
11.01.2023 05:48 8,2 C 7,2 C 93 % 1012,4 hPa 0,0 l/m 14,5 km/h (3 Bft) S 180 0 min 0,0 UV-I 0 W/m 7,1 C 3,2 C 20,9 km/h (4 Bft)
11.01.2023 05:49 8,2 C 7,2 C 93 % 1012,5 hPa 0,0 l/m 14,5 km/h (3 Bft) S 180 0 min 0,0 UV-I 0 W/m 7,1 C 3,2 C 22,5 km/h (4 Bft)
11.01.2023 05:50 8,2 C 7,2 C 93 % 1012,5 hPa 0,2 l/m 19,3 km/h (3 Bft) S 180 0 min 0,0 UV-I 0 W/m 7,1 C 1,2 C 33,8 km/h (5 Bft)
11.01.2023 05:51 8,2 C 7,2 C 93 % 1012,5 hPa 0,0 l/m 19,3 km/h (3 Bft) S 180 0 min 0,0 UV-I 0 W/m 7,1 C 1,2 C 27,4 km/h (4 Bft)
11.01.2023 05:52 8,2 C 7,2 C 93 % 1012,4 hPa 0,0 l/m 17,7 km/h (3 Bft) S 180 0 min 0,0 UV-I 0 W/m 7,1 C 1,8 C 25,7 km/h (4 Bft)
11.01.2023 05:53 8,2 C 7,2 C 93 % 1012,3 hPa 0,0 l/m 22,5 km/h (4 Bft) S-SW 202 0 min 0,0 UV-I 0 W/m 7,1 C 0,1 C 29,0 km/h (5 Bft)
11.01.2023 05:54 8,2 C 7,8 C 93 % 1012,4 hPa 0,0 l/m 22,5 km/h (4 Bft) S 180 0 min 0,0 UV-I 0 W/m 7,1 C 0,1 C 30,6 km/h (5 Bft)
11.01.2023 05:55 8,2 C 7,8 C 93 % 1012,4 hPa 0,0 l/m 24,1 km/h (4 Bft) S 180 0 min 0,0 UV-I 0 W/m 7,1 C -0,3 C 33,8 km/h (5 Bft)
11.01.2023 05:56 8,2 C 7,8 C 93 % 1012,4 hPa 0,0 l/m 19,3 km/h (3 Bft) S 180 0 min 0,0 UV-I 0 W/m 7,1 C 1,2 C 29,0 km/h (5 Bft)
11.01.2023 05:57 8,2 C 7,8 C 93 % 1012,4 hPa 0,2 l/m 19,3 km/h (3 Bft) S 180 0 min 0,0 UV-I 0 W/m 7,1 C 1,2 C 27,4 km/h (4 Bft)
11.01.2023 05:58 8,2 C 7,8 C 93 % 1012,3 hPa 0,0 l/m 20,9 km/h (4 Bft) S 180 0 min 0,0 UV-I 0 W/m 7,1 C 0,7 C 25,7 km/h (4 Bft)
11.01.2023 05:59 8,2 C 7,8 C 93 % 1012,3 hPa 0,0 l/m 17,7 km/h (3 Bft) S 180 0 min 0,0 UV-I 0 W/m 7,1 C 1,8 C 30,6 km/h (5 Bft)
11.01.2023 06:00 8,2 C 7,8 C 93 % 1012,3 hPa 0,0 l/m 24,1 km/h (4 Bft) S-SW 202 0 min 0,0 UV-I 0 W/m 7,1 C -0,3 C 29,0 km/h (5 Bft)
11.01.2023 06:01 8,2 C 7,8 C 93 % 1012,4 hPa 0,0 l/m 17,7 km/h (3 Bft) S 180 0 min 0,0 UV-I 0 W/m 7,1 C 1,8 C 29,0 km/h (5 Bft)
11.01.2023 06:02 8,2 C 7,8 C 93 % 1012,3 hPa 0,0 l/m 16,1 km/h (3 Bft) S-SW 202 0 min 0,0 UV-I 0 W/m 7,1 C 2,5 C 22,5 km/h (4 Bft)
11.01.2023 06:03 8,3 C 7,8 C 93 % 1012,3 hPa 0,0 l/m 20,9 km/h (4 Bft) S 180 0 min 0,0 UV-I 0 W/m 7,2 C 0,8 C 32,2 km/h (5 Bft)
11.01.2023 06:04 8,2 C 7,8 C 93 % 1012,3 hPa 0,0 l/m 16,1 km/h (3 Bft) S-SW 202 0 min 0,0 UV-I 0 W/m 7,1 C 2,5 C 20,9 km/h (4 Bft)
11.01.2023 06:05 8,2 C 7,8 C 93 % 1012,3 hPa 0,0 l/m 19,3 km/h (3 Bft) S-SW 202 0 min 0,0 UV-I 0 W/m 7,1 C 1,2 C 29,0 km/h (5 Bft)
11.01.2023 06:06 8,3 C 7,8 C 93 % 1012,3 hPa 0,2 l/m 24,1 km/h (4 Bft) S-SW 202 0 min 0,0 UV-I 0 W/m 7,2 C -0,2 C 30,6 km/h (5 Bft)
11.01.2023 06:07 8,3 C 7,8 C 93 % 1012,2 hPa 0,0 l/m 17,7 km/h (3 Bft) S-SW 202 0 min 0,0 UV-I 0 W/m 7,2 C 1,9 C 24,1 km/h (4 Bft)
11.01.2023 06:08 8,3 C 7,8 C 93 % 1012,3 hPa 0,0 l/m 20,9 km/h (4 Bft) S-SW 202 0 min 0,0 UV-I 0 W/m 7,2 C 0,8 C 27,4 km/h (4 Bft)
11.01.2023 06:09 8,2 C 7,8 C 93 % 1012,3 hPa 0,0 l/m 19,3 km/h (3 Bft) S 180 0 min 0,0 UV-I 0 W/m 7,1 C 1,2 C 27,4 km/h (4 Bft)
11.01.2023 06:10 8,3 C 7,8 C 93 % 1012,4 hPa 0,0 l/m 16,1 km/h (3 Bft) S 180 0 min 0,0 UV-I 0 W/m 7,2 C 2,6 C 25,7 km/h (4 Bft)
11.01.2023 06:11 8,3 C 7,8 C 93 % 1012,3 hPa 0,0 l/m 17,7 km/h (3 Bft) S-SO 157 0 min 0,0 UV-I 0 W/m 7,2 C 1,9 C 27,4 km/h (4 Bft)
11.01.2023 06:12 8,3 C 7,8 C 93 % 1012,2 hPa 0,0 l/m 16,1 km/h (3 Bft) S 180 0 min 0,0 UV-I 0 W/m 7,2 C 2,6 C 24,1 km/h (4 Bft)
11.01.2023 06:13 8,3 C 7,8 C 93 % 1012,3 hPa 0,0 l/m 17,7 km/h (3 Bft) S 180 0 min 0,0 UV-I 0 W/m 7,2 C 1,9 C 25,7 km/h (4 Bft)
11.01.2023 06:14 8,3 C 7,8 C 93 % 1012,2 hPa 0,2 l/m 20,9 km/h (4 Bft) S-SW 202 0 min 0,0 UV-I 0 W/m 7,2 C 0,8 C 29,0 km/h (5 Bft)
11.01.2023 06:15 8,3 C 7,8 C 93 % 1012,2 hPa 0,0 l/m 20,9 km/h (4 Bft) S 180 0 min 0,0 UV-I 0 W/m 7,2 C 0,8 C 30,6 km/h (5 Bft)
11.01.2023 06:16 8,3 C 7,8 C 93 % 1012,2 hPa 0,0 l/m 22,5 km/h (4 Bft) S 180 0 min 0,0 UV-I 0 W/m 7,2 C 0,3 C 30,6 km/h (5 Bft)
11.01.2023 06:17 8,3 C 7,8 C 93 % 1012,3 hPa 0,0 l/m 20,9 km/h (4 Bft) S 180 0 min 0,0 UV-I 0 W/m 7,2 C 0,8 C 30,6 km/h (5 Bft)
11.01.2023 06:18 8,3 C 7,8 C 93 % 1012,2 hPa 0,0 l/m 16,1 km/h (3 Bft) S 180 0 min 0,0 UV-I 0 W/m 7,2 C 2,6 C 22,5 km/h (4 Bft)
11.01.2023 06:19 8,3 C 7,8 C 93 % 1012,2 hPa 0,0 l/m 24,1 km/h (4 Bft) S 180 0 min 0,0 UV-I 0 W/m 7,2 C -0,2 C 41,8 km/h (6 Bft)
11.01.2023 06:20 8,3 C 7,8 C 93 % 1012,3 hPa 0,0 l/m 24,1 km/h (4 Bft) S 180 0 min 0,0 UV-I 0 W/m 7,2 C -0,2 C 29,0 km/h (5 Bft)
11.01.2023 06:21 8,3 C 7,8 C 93 % 1012,2 hPa 0,0 l/m 22,5 km/h (4 Bft) S-SW 202 0 min 0,0 UV-I 0 W/m 7,2 C 0,3 C 29,0 km/h (5 Bft)
11.01.2023 06:22 8,3 C 7,8 C 93 % 1012,3 hPa 0,0 l/m 19,3 km/h (3 Bft) S-SW 202 0 min 0,0 UV-I 0 W/m 7,2 C 1,3 C 29,0 km/h (5 Bft)
11.01.2023 06:23 8,3 C 7,8 C 93 % 1012,1 hPa 0,0 l/m 14,5 km/h (3 Bft) S 180 0 min 0,0 UV-I 0 W/m 7,2 C 3,3 C 25,7 km/h (4 Bft)
11.01.2023 06:24 8,3 C 7,8 C 93 % 1012,2 hPa 0,2 l/m 19,3 km/h (3 Bft) S 180 0 min 0,0 UV-I 0 W/m 7,2 C 1,3 C 30,6 km/h (5 Bft)
11.01.2023 06:25 8,3 C 7,8 C 93 % 1012,2 hPa 0,0 l/m 17,7 km/h (3 Bft) S 180 0 min 0,0 UV-I 0 W/m 7,2 C 1,9 C 27,4 km/h (4 Bft)
11.01.2023 06:26 8,3 C 7,8 C 93 % 1012,2 hPa 0,0 l/m 20,9 km/h (4 Bft) S 180 0 min 0,0 UV-I 0 W/m 7,2 C 0,8 C 33,8 km/h (5 Bft)
11.01.2023 06:27 8,3 C 7,8 C 93 % 1012,2 hPa 0,0 l/m 22,5 km/h (4 Bft) S 180 0 min 0,0 UV-I 0 W/m 7,2 C 0,3 C 37,0 km/h (5 Bft)
11.01.2023 06:28 8,3 C 7,8 C 93 % 1012,2 hPa 0,0 l/m 19,3 km/h (3 Bft) S-SW 202 0 min 0,0 UV-I 0 W/m 7,2 C 1,3 C 32,2 km/h (5 Bft)
11.01.2023 06:29 8,3 C 7,8 C 93 % 1012,2 hPa 0,0 l/m 19,3 km/h (3 Bft) S 180 0 min 0,0 UV-I 0 W/m 7,2 C 1,3 C 27,4 km/h (4 Bft)
11.01.2023 06:30 8,3 C 7,8 C 93 % 1012,3 hPa 0,0 l/m 20,9 km/h (4 Bft) S-SW 202 0 min 0,0 UV-I 0 W/m 7,2 C 0,8 C 25,7 km/h (4 Bft)
11.01.2023 06:31 8,3 C 7,8 C 93 % 1012,2 hPa 0,0 l/m 16,1 km/h (3 Bft) S 180 0 min 0,0 UV-I 0 W/m 7,2 C 2,6 C 20,9 km/h (4 Bft)
11.01.2023 06:32 8,3 C 7,8 C 92 % 1012,1 hPa 0,0 l/m 19,3 km/h (3 Bft) S-SW 202 0 min 0,0 UV-I 0 W/m 7,1 C 1,3 C 25,7 km/h (4 Bft)
11.01.2023 06:33 8,3 C 7,8 C 93 % 1012,2 hPa 0,0 l/m 17,7 km/h (3 Bft) S 180 0 min 0,0 UV-I 0 W/m 7,2 C 1,9 C 25,7 km/h (4 Bft)
11.01.2023 06:34 8,3 C 7,8 C 93 % 1012,2 hPa 0,2 l/m 14,5 km/h (3 Bft) S 180 0 min 0,0 UV-I 0 W/m 7,2 C 3,3 C 20,9 km/h (4 Bft)
11.01.2023 06:35 8,3 C 7,8 C 93 % 1012,2 hPa 0,0 l/m 16,1 km/h (3 Bft) S 180 0 min 0,0 UV-I 0 W/m 7,2 C 2,6 C 20,9 km/h (4 Bft)
11.01.2023 06:36 8,3 C 7,8 C 93 % 1012,1 hPa 0,0 l/m 19,3 km/h (3 Bft) S 180 0 min 0,0 UV-I 0 W/m 7,2 C 1,3 C 24,1 km/h (4 Bft)
11.01.2023 06:37 8,3 C 7,8 C 93 % 1012,0 hPa 0,0 l/m 16,1 km/h (3 Bft) S 180 0 min 0,0 UV-I 0 W/m 7,2 C 2,6 C 25,7 km/h (4 Bft)
11.01.2023 06:38 8,3 C 7,8 C 93 % 1012,1 hPa 0,0 l/m 17,7 km/h (3 Bft) S-SW 202 0 min 0,0 UV-I 0 W/m 7,2 C 1,9 C 27,4 km/h (4 Bft)
11.01.2023 06:39 8,3 C 7,8 C 93 % 1012,1 hPa 0,0 l/m 19,3 km/h (3 Bft) S-SW 202 0 min 0,0 UV-I 0 W/m 7,2 C 1,3 C 29,0 km/h (5 Bft)
11.01.2023 06:40 8,3 C 7,8 C 93 % 1012,0 hPa 0,0 l/m 17,7 km/h (3 Bft) S-SW 202 0 min 0,0 UV-I 0 W/m 7,2 C 1,9 C 20,9 km/h (4 Bft)
11.01.2023 06:41 8,3 C 7,8 C 93 % 1012,0 hPa 0,0 l/m 14,5 km/h (3 Bft) S 180 0 min 0,0 UV-I 0 W/m 7,2 C 3,3 C 20,9 km/h (4 Bft)
11.01.2023 06:42 8,3 C 7,8 C 92 % 1012,1 hPa 0,2 l/m 17,7 km/h (3 Bft) S-SW 202 0 min 0,0 UV-I 0 W/m 7,1 C 1,9 C 24,1 km/h (4 Bft)
11.01.2023 06:43 8,3 C 7,8 C 93 % 1012,0 hPa 0,0 l/m 14,5 km/h (3 Bft) S-SW 202 0 min 0,0 UV-I 0 W/m 7,2 C 3,3 C 17,7 km/h (3 Bft)
11.01.2023 06:44 8,3 C 7,8 C 93 % 1012,1 hPa 0,0 l/m 22,5 km/h (4 Bft) S-SW 202 0 min 0,0 UV-I 0 W/m 7,2 C 0,3 C 29,0 km/h (5 Bft)
11.01.2023 06:45 8,3 C 7,8 C 93 % 1012,1 hPa 0,0 l/m 17,7 km/h (3 Bft) S 180 0 min 0,0 UV-I 0 W/m 7,2 C 1,9 C 25,7 km/h (4 Bft)
11.01.2023 06:46 8,3 C 7,8 C 93 % 1012,1 hPa 0,0 l/m 19,3 km/h (3 Bft) S-SW 202 0 min 0,0 UV-I 0 W/m 7,2 C 1,3 C 29,0 km/h (5 Bft)
11.01.2023 06:47 8,3 C 7,8 C 93 % 1012,1 hPa 0,0 l/m 20,9 km/h (4 Bft) S-SW 202 0 min 0,0 UV-I 0 W/m 7,2 C 0,8 C 27,4 km/h (4 Bft)
11.01.2023 06:48 8,3 C 7,8 C 93 % 1012,0 hPa 0,0 l/m 22,5 km/h (4 Bft) S-SW 202 0 min 0,0 UV-I 0 W/m 7,2 C 0,3 C 27,4 km/h (4 Bft)
11.01.2023 06:49 8,3 C 7,8 C 93 % 1012,1 hPa 0,2 l/m 16,1 km/h (3 Bft) S 180 0 min 0,0 UV-I 0 W/m 7,2 C 2,6 C 20,9 km/h (4 Bft)
11.01.2023 06:50 8,3 C 7,8 C 93 % 1012,1 hPa 0,0 l/m 16,1 km/h (3 Bft) S-SW 202 0 min 0,0 UV-I 0 W/m 7,2 C 2,6 C 25,7 km/h (4 Bft)
11.01.2023 06:51 8,3 C 7,8 C 93 % 1012,1 hPa 0,0 l/m 12,9 km/h (3 Bft) S 180 0 min 0,0 UV-I 0 W/m 7,2 C 4,1 C 19,3 km/h (3 Bft)
11.01.2023 06:52 8,3 C 7,8 C 93 % 1012,1 hPa 0,0 l/m 16,1 km/h (3 Bft) S 180 0 min 0,0 UV-I 0 W/m 7,2 C 2,6 C 24,1 km/h (4 Bft)
11.01.2023 06:53 8,3 C 7,8 C 93 % 1012,1 hPa 0,0 l/m 14,5 km/h (3 Bft) S 180 0 min 0,0 UV-I 0 W/m 7,2 C 3,3 C 19,3 km/h (3 Bft)
11.01.2023 06:54 8,3 C 7,8 C 93 % 1012,1 hPa 0,0 l/m 17,7 km/h (3 Bft) S 180 0 min 0,0 UV-I 0 W/m 7,2 C 1,9 C 24,1 km/h (4 Bft)
11.01.2023 06:55 8,3 C 7,8 C 93 % 1012,1 hPa 0,0 l/m 22,5 km/h (4 Bft) S 180 0 min 0,0 UV-I 0 W/m 7,2 C 0,3 C 35,4 km/h (5 Bft)
11.01.2023 06:56 8,3 C 7,8 C 93 % 1012,0 hPa 0,0 l/m 19,3 km/h (3 Bft) S 180 0 min 0,0 UV-I 0 W/m 7,2 C 1,3 C 32,2 km/h (5 Bft)
11.01.2023 06:57 8,3 C 7,8 C 93 % 1012,0 hPa 0,0 l/m 17,7 km/h (3 Bft) S 180 0 min 0,0 UV-I 0 W/m 7,2 C 1,9 C 30,6 km/h (5 Bft)
11.01.2023 06:58 8,3 C 7,8 C 93 % 1012,1 hPa 0,0 l/m 20,9 km/h (4 Bft) S 180 0 min 0,0 UV-I 0 W/m 7,2 C 0,8 C 29,0 km/h (5 Bft)
11.01.2023 06:59 8,3 C 7,8 C 93 % 1012,0 hPa 0,0 l/m 17,7 km/h (3 Bft) S-SW 202 0 min 0,0 UV-I 0 W/m 7,2 C 1,9 C 25,7 km/h (4 Bft)
11.01.2023 07:00 8,3 C 7,8 C 93 % 1012,1 hPa 0,2 l/m 16,1 km/h (3 Bft) S 180 0 min 0,0 UV-I 0 W/m 7,2 C 2,6 C 22,5 km/h (4 Bft)
11.01.2023 07:01 8,3 C 7,8 C 93 % 1012,0 hPa 0,0 l/m 19,3 km/h (3 Bft) S-SW 202 0 min 0,0 UV-I 0 W/m 7,2 C 1,3 C 25,7 km/h (4 Bft)
11.01.2023 07:02 8,3 C 7,8 C 93 % 1012,1 hPa 0,0 l/m 19,3 km/h (3 Bft) S 180 0 min 0,0 UV-I 0 W/m 7,2 C 1,3 C 37,0 km/h (5 Bft)
11.01.2023 07:03 8,3 C 7,8 C 93 % 1012,1 hPa 0,0 l/m 17,7 km/h (3 Bft) S 180 0 min 0,0 UV-I 0 W/m 7,2 C 1,9 C 24,1 km/h (4 Bft)
11.01.2023 07:04 8,3 C 7,8 C 93 % 1012,1 hPa 0,0 l/m 17,7 km/h (3 Bft) S-SW 202 0 min 0,0 UV-I 0 W/m 7,2 C 1,9 C 27,4 km/h (4 Bft)
11.01.2023 07:05 8,3 C 7,8 C 93 % 1012,1 hPa 0,0 l/m 17,7 km/h (3 Bft) S 180 0 min 0,0 UV-I 0 W/m 7,2 C 1,9 C 20,9 km/h (4 Bft)
11.01.2023 07:06 8,3 C 7,8 C 93 % 1012,1 hPa 0,0 l/m 17,7 km/h (3 Bft) S-SW 202 0 min 0,0 UV-I 0 W/m 7,2 C 1,9 C 19,3 km/h (3 Bft)
11.01.2023 07:07 8,3 C 7,8 C 93 % 1012,1 hPa 0,2 l/m 14,5 km/h (3 Bft) S-SW 202 0 min 0,0 UV-I 0 W/m 7,2 C 3,3 C 19,3 km/h (3 Bft)
11.01.2023 07:08 8,3 C 7,8 C 93 % 1012,1 hPa 0,0 l/m 14,5 km/h (3 Bft) S-SW 202 0 min 0,0 UV-I 0 W/m 7,2 C 3,3 C 20,9 km/h (4 Bft)
11.01.2023 07:09 8,3 C 7,8 C 93 % 1012,1 hPa 0,0 l/m 16,1 km/h (3 Bft) S 180 0 min 0,0 UV-I 0 W/m 7,2 C 2,6 C 22,5 km/h (4 Bft)
11.01.2023 07:10 8,3 C 7,8 C 93 % 1012,0 hPa 0,0 l/m 24,1 km/h (4 Bft) S-SW 202 0 min 0,0 UV-I 0 W/m 7,2 C -0,2 C 29,0 km/h (5 Bft)
11.01.2023 07:11 8,3 C 7,8 C 93 % 1012,1 hPa 0,0 l/m 12,9 km/h (3 Bft) S 180 0 min 0,0 UV-I 0 W/m 7,2 C 4,1 C 17,7 km/h (3 Bft)
11.01.2023 07:12 8,3 C 7,8 C 93 % 1012,0 hPa 0,2 l/m 14,5 km/h (3 Bft) S 180 0 min 0,0 UV-I 0 W/m 7,2 C 3,3 C 19,3 km/h (3 Bft)
11.01.2023 07:13 8,3 C 7,8 C 93 % 1012,1 hPa 0,0 l/m 12,9 km/h (3 Bft) S 180 0 min 0,0 UV-I 0 W/m 7,2 C 4,1 C 17,7 km/h (3 Bft)
11.01.2023 07:14 8,3 C 7,8 C 93 % 1012,0 hPa 0,0 l/m 16,1 km/h (3 Bft) S 180 0 min 0,0 UV-I 0 W/m 7,2 C 2,6 C 19,3 km/h (3 Bft)
11.01.2023 07:15 8,3 C 7,8 C 93 % 1012,0 hPa 0,0 l/m 14,5 km/h (3 Bft) S 180 0 min 0,0 UV-I 0 W/m 7,2 C 3,3 C 20,9 km/h (4 Bft)
11.01.2023 07:16 8,3 C 7,8 C 93 % 1012,1 hPa 0,2 l/m 17,7 km/h (3 Bft) S-SW 202 0 min 0,0 UV-I 0 W/m 7,2 C 1,9 C 22,5 km/h (4 Bft)
11.01.2023 07:17 8,3 C 7,8 C 93 % 1012,1 hPa 0,0 l/m 12,9 km/h (3 Bft) S-SW 202 0 min 0,0 UV-I 0 W/m 7,2 C 4,1 C 19,3 km/h (3 Bft)
11.01.2023 07:18 8,3 C 7,8 C 93 % 1012,0 hPa 0,0 l/m 16,1 km/h (3 Bft) S-SW 202 0 min 0,0 UV-I 0 W/m 7,2 C 2,6 C 24,1 km/h (4 Bft)
11.01.2023 07:19 8,3 C 7,8 C 93 % 1012,1 hPa 0,2 l/m 19,3 km/h (3 Bft) S-SW 202 0 min 0,0 UV-I 0 W/m 7,2 C 1,3 C 30,6 km/h (5 Bft)
11.01.2023 07:20 8,3 C 7,8 C 93 % 1012,0 hPa 0,0 l/m 20,9 km/h (4 Bft) S-SW 202 0 min 0,0 UV-I 0 W/m 7,2 C 0,8 C 27,4 km/h (4 Bft)
11.01.2023 07:21 8,3 C 7,8 C 93 % 1012,1 hPa 0,0 l/m 16,1 km/h (3 Bft) S-SW 202 0 min 0,0 UV-I 0 W/m 7,2 C 2,6 C 24,1 km/h (4 Bft)
11.01.2023 07:22 8,3 C 7,8 C 93 % 1012,1 hPa 0,0 l/m 17,7 km/h (3 Bft) S-SW 202 0 min 0,0 UV-I 0 W/m 7,2 C 1,9 C 24,1 km/h (4 Bft)
11.01.2023 07:23 8,3 C 7,8 C 93 % 1012,1 hPa 0,0 l/m 16,1 km/h (3 Bft) S 180 0 min 0,0 UV-I 0 W/m 7,2 C 2,6 C 24,1 km/h (4 Bft)
11.01.2023 07:24 8,3 C 7,8 C 93 % 1012,1 hPa 0,0 l/m 16,1 km/h (3 Bft) S-SW 202 0 min 0,0 UV-I 0 W/m 7,2 C 2,6 C 19,3 km/h (3 Bft)
11.01.2023 07:25 8,3 C 7,8 C 93 % 1012,2 hPa 0,2 l/m 22,5 km/h (4 Bft) S 180 0 min 0,0 UV-I 0 W/m 7,2 C 0,3 C 33,8 km/h (5 Bft)
11.01.2023 07:26 8,3 C 7,8 C 93 % 1012,1 hPa 0,0 l/m 16,1 km/h (3 Bft) S 180 0 min 0,0 UV-I 0 W/m 7,2 C 2,6 C 20,9 km/h (4 Bft)
11.01.2023 07:27 8,3 C 7,8 C 93 % 1012,1 hPa 0,0 l/m 14,5 km/h (3 Bft) S 180 0 min 0,0 UV-I 0 W/m 7,2 C 3,3 C 19,3 km/h (3 Bft)
11.01.2023 07:28 8,3 C 7,8 C 93 % 1012,1 hPa 0,0 l/m 12,9 km/h (3 Bft) S 180 0 min 0,0 UV-I 0 W/m 7,2 C 4,1 C 16,1 km/h (3 Bft)
11.01.2023 07:29 8,3 C 7,8 C 93 % 1012,1 hPa 0,0 l/m 19,3 km/h (3 Bft) S 180 0 min 0,0 UV-I 0 W/m 7,2 C 1,3 C 35,4 km/h (5 Bft)
11.01.2023 07:30 8,3 C 7,8 C 93 % 1012,0 hPa 0,0 l/m 22,5 km/h (4 Bft) S 180 0 min 0,0 UV-I 0 W/m 7,2 C 0,3 C 30,6 km/h (5 Bft)
11.01.2023 07:31 8,3 C 7,8 C 93 % 1012,2 hPa 0,2 l/m 17,7 km/h (3 Bft) S 180 0 min 0,0 UV-I 0 W/m 7,2 C 1,9 C 29,0 km/h (5 Bft)
11.01.2023 07:32 8,3 C 7,8 C 93 % 1012,1 hPa 0,0 l/m 20,9 km/h (4 Bft) S 180 0 min 0,0 UV-I 0 W/m 7,2 C 0,8 C 35,4 km/h (5 Bft)
11.01.2023 07:33 8,3 C 7,8 C 93 % 1012,1 hPa 0,0 l/m 11,3 km/h (2 Bft) S 180 0 min 0,0 UV-I 0 W/m 7,2 C 4,9 C 16,1 km/h (3 Bft)
11.01.2023 07:34 8,3 C 7,8 C 93 % 1012,1 hPa 0,0 l/m 11,3 km/h (2 Bft) S 180 0 min 0,0 UV-I 0 W/m 7,2 C 4,9 C 19,3 km/h (3 Bft)
11.01.2023 07:35 8,3 C 7,8 C 93 % 1012,2 hPa 0,0 l/m 14,5 km/h (3 Bft) S 180 0 min 0,0 UV-I 0 W/m 7,2 C 3,3 C 25,7 km/h (4 Bft)
11.01.2023 07:36 8,3 C 7,8 C 93 % 1012,1 hPa 0,2 l/m 17,7 km/h (3 Bft) S-SW 202 0 min 0,0 UV-I 0 W/m 7,2 C 1,9 C 22,5 km/h (4 Bft)
11.01.2023 07:37 8,3 C 7,8 C 93 % 1012,1 hPa 0,0 l/m 16,1 km/h (3 Bft) S 180 0 min 0,0 UV-I 0 W/m 7,2 C 2,6 C 20,9 km/h (4 Bft)
11.01.2023 07:38 8,3 C 7,8 C 93 % 1012,2 hPa 0,0 l/m 16,1 km/h (3 Bft) S 180 0 min 0,0 UV-I 0 W/m 7,2 C 2,6 C 24,1 km/h (4 Bft)
11.01.2023 07:39 8,3 C 7,8 C 93 % 1012,1 hPa 0,2 l/m 16,1 km/h (3 Bft) S 180 0 min 0,0 UV-I 0 W/m 7,2 C 2,6 C 24,1 km/h (4 Bft)
11.01.2023 07:40 8,3 C 7,8 C 93 % 1012,1 hPa 0,0 l/m 14,5 km/h (3 Bft) S 180 0 min 0,0 UV-I 0 W/m 7,2 C 3,3 C 22,5 km/h (4 Bft)
11.01.2023 07:41 8,3 C 7,8 C 93 % 1012,2 hPa 0,0 l/m 14,5 km/h (3 Bft) S 180 0 min 0,0 UV-I 0 W/m 7,2 C 3,3 C 29,0 km/h (5 Bft)
11.01.2023 07:42 8,3 C 7,8 C 93 % 1012,2 hPa 0,0 l/m 16,1 km/h (3 Bft) S 180 0 min 0,0 UV-I 0 W/m 7,2 C 2,6 C 22,5 km/h (4 Bft)
11.01.2023 07:43 8,3 C 7,8 C 93 % 1012,1 hPa 0,2 l/m 14,5 km/h (3 Bft) S 180 0 min 0,0 UV-I 0 W/m 7,2 C 3,3 C 19,3 km/h (3 Bft)
11.01.2023 07:44 8,3 C 7,8 C 93 % 1012,2 hPa 0,0 l/m 14,5 km/h (3 Bft) S 180 0 min 0,0 UV-I 0 W/m 7,2 C 3,3 C 19,3 km/h (3 Bft)
11.01.2023 07:45 8,3 C 7,8 C 93 % 1012,1 hPa 0,0 l/m 12,9 km/h (3 Bft) S 180 0 min 0,0 UV-I 0 W/m 7,2 C 4,1 C 22,5 km/h (4 Bft)
11.01.2023 07:48 8,3 C 7,8 C 93 % 1012,2 hPa 0,2 l/m 18,6 km/h (3 Bft) S-SW 211 0 min 0,0 UV-I 0 W/m 7,2 C 1,6 C 25,7 km/h (4 Bft)
11.01.2023 07:51 8,3 C 7,8 C 93 % 1012,2 hPa 0,2 l/m 13,3 km/h (3 Bft) S-SW 205 0 min 0,0 UV-I 0 W/m 7,2 C 3,9 C 22,5 km/h (4 Bft)
11.01.2023 07:54 8,3 C 7,8 C 93 % 1012,1 hPa 0,2 l/m 17,4 km/h (3 Bft) S-SO 148 0 min 0,0 UV-I 0 W/m 7,2 C 2,1 C 25,7 km/h (4 Bft)
11.01.2023 07:57 8,3 C 7,8 C 93 % 1012,1 hPa 0,2 l/m 13,8 km/h (3 Bft) S-SW 210 0 min 0,0 UV-I 0 W/m 7,2 C 3,6 C 20,9 km/h (4 Bft)
11.01.2023 08:00 8,3 C 7,8 C 93 % 1012,2 hPa 0,2 l/m 15,6 km/h (3 Bft) S-SW 200 0 min 0,0 UV-I 0 W/m 7,2 C 2,8 C 24,1 km/h (4 Bft)
11.01.2023 08:03 8,3 C 7,8 C 93 % 1012,2 hPa 0,0 l/m 14,4 km/h (3 Bft) S 187 0 min 0,0 UV-I 0 W/m 7,2 C 3,4 C 22,5 km/h (4 Bft)
11.01.2023 08:06 8,4 C 7,8 C 93 % 1012,1 hPa 0,2 l/m 20,2 km/h (4 Bft) S-SW 203 0 min 0,0 UV-I 0 W/m 7,3 C 1,2 C 32,2 km/h (5 Bft)
11.01.2023 08:09 8,4 C 7,8 C 93 % 1012,1 hPa 0,0 l/m 17,0 km/h (3 Bft) S 189 0 min 0,0 UV-I 0 W/m 7,3 C 2,3 C 27,4 km/h (4 Bft)
11.01.2023 08:12 8,3 C 7,8 C 93 % 1012,1 hPa 0,2 l/m 17,8 km/h (3 Bft) S 183 0 min 0,0 UV-I 0 W/m 7,2 C 1,9 C 30,6 km/h (5 Bft)
11.01.2023 08:15 8,4 C 7,8 C 93 % 1012,1 hPa 0,0 l/m 16,8 km/h (3 Bft) S 188 0 min 0,0 UV-I 0 W/m 7,3 C 2,4 C 29,0 km/h (5 Bft)
11.01.2023 08:18 8,4 C 7,8 C 93 % 1012,2 hPa 0,2 l/m 18,5 km/h (3 Bft) S 171 0 min 0,0 UV-I 0 W/m 7,3 C 1,8 C 29,0 km/h (5 Bft)
11.01.2023 08:21 8,4 C 7,8 C 93 % 1012,0 hPa 0,0 l/m 14,9 km/h (3 Bft) SW 221 0 min 0,0 UV-I 0 W/m 7,3 C 3,2 C 24,1 km/h (4 Bft)
11.01.2023 08:24 8,4 C 7,8 C 93 % 1012,1 hPa 0,2 l/m 15,8 km/h (3 Bft) S 190 0 min 0,0 UV-I 0 W/m 7,3 C 2,8 C 25,7 km/h (4 Bft)
11.01.2023 08:27 8,4 C 7,8 C 93 % 1012,1 hPa 0,2 l/m 19,1 km/h (3 Bft) S 169 0 min 0,0 UV-I 0 W/m 7,3 C 1,5 C 29,0 km/h (5 Bft)
11.01.2023 08:30 8,4 C 7,8 C 93 % 1012,0 hPa 0,2 l/m 15,3 km/h (3 Bft) S-SW 200 0 min 0,0 UV-I 0 W/m 7,3 C 3,1 C 25,7 km/h (4 Bft)
11.01.2023 08:33 8,4 C 7,8 C 93 % 1012,1 hPa 0,2 l/m 15,4 km/h (3 Bft) S-SW 192 0 min 0,0 UV-I 0 W/m 7,3 C 3,0 C 27,4 km/h (4 Bft)
11.01.2023 08:36 8,4 C 7,8 C 93 % 1012,2 hPa 0,0 l/m 17,7 km/h (3 Bft) S 170 0 min 0,0 UV-I 0 W/m 7,3 C 2,1 C 27,4 km/h (4 Bft)
11.01.2023 08:39 8,4 C 7,8 C 93 % 1012,3 hPa 0,2 l/m 15,1 km/h (3 Bft) S-SW 195 0 min 0,0 UV-I 0 W/m 7,3 C 3,2 C 24,1 km/h (4 Bft)
11.01.2023 08:42 8,4 C 7,8 C 93 % 1012,4 hPa 0,2 l/m 12,8 km/h (3 Bft) S-SW 201 0 min 0,0 UV-I 0 W/m 7,3 C 4,3 C 20,9 km/h (4 Bft)
11.01.2023 08:45 8,4 C 7,8 C 93 % 1012,6 hPa 0,2 l/m 11,4 km/h (2 Bft) SW 225 0 min 0,0 UV-I 0 W/m 7,3 C 5,0 C 24,1 km/h (4 Bft)
11.01.2023 08:48 8,4 C 7,8 C 93 % 1012,6 hPa 0,0 l/m 14,5 km/h (3 Bft) S-SW 207 0 min 0,0 UV-I 0 W/m 7,3 C 3,4 C 22,5 km/h (4 Bft)
11.01.2023 08:51 8,4 C 7,8 C 93 % 1012,5 hPa 0,2 l/m 15,9 km/h (3 Bft) W-SW 255 0 min 0,0 UV-I 0 W/m 7,3 C 2,8 C 25,7 km/h (4 Bft)
11.01.2023 08:54 8,4 C 7,8 C 93 % 1012,6 hPa 0,0 l/m 15,9 km/h (3 Bft) SW 217 0 min 0,0 UV-I 0 W/m 7,3 C 2,8 C 27,4 km/h (4 Bft)
11.01.2023 08:57 8,3 C 7,2 C 92 % 1012,7 hPa 0,0 l/m 12,0 km/h (2 Bft) SW 222 0 min 0,0 UV-I 0 W/m 7,1 C 4,6 C 20,9 km/h (4 Bft)
11.01.2023 09:00 8,3 C 7,2 C 92 % 1012,7 hPa 0,2 l/m 11,4 km/h (2 Bft) S-SW 194 0 min 0,0 UV-I 0 W/m 7,1 C 4,9 C 19,3 km/h (3 Bft)
11.01.2023 09:03 8,3 C 7,2 C 93 % 1012,7 hPa 0,0 l/m 12,0 km/h (2 Bft) S 187 0 min 0,0 UV-I 0 W/m 7,2 C 4,6 C 20,9 km/h (4 Bft)
11.01.2023 09:06 8,2 C 7,2 C 93 % 1012,9 hPa 0,0 l/m 12,4 km/h (3 Bft) SW 216 0 min 0,0 UV-I 0 W/m 7,1 C 4,2 C 19,3 km/h (3 Bft)
11.01.2023 09:09 8,2 C 7,2 C 93 % 1012,8 hPa 0,0 l/m 11,1 km/h (2 Bft) SW 223 0 min 0,0 UV-I 0 W/m 7,1 C 4,9 C 19,3 km/h (3 Bft)
11.01.2023 09:12 8,2 C 7,2 C 93 % 1012,9 hPa 0,0 l/m 9,2 km/h (2 Bft) W-SW 244 0 min 0,0 UV-I 0 W/m 7,1 C 6,1 C 14,5 km/h (3 Bft)
11.01.2023 09:15 8,2 C 7,2 C 93 % 1013,1 hPa 0,2 l/m 8,3 km/h (2 Bft) S-SW 209 0 min 0,0 UV-I 4 W/m 7,1 C 6,7 C 12,9 km/h (3 Bft)
11.01.2023 09:18 8,1 C 7,2 C 92 % 1013,1 hPa 0,2 l/m 13,4 km/h (3 Bft) S-SW 208 0 min 0,0 UV-I 5 W/m 6,9 C 3,6 C 24,1 km/h (4 Bft)
11.01.2023 09:21 8,0 C 7,2 C 92 % 1013,2 hPa 0,0 l/m 16,0 km/h (3 Bft) SW 214 0 min 0,0 UV-I 6 W/m 6,8 C 2,3 C 27,4 km/h (4 Bft)
11.01.2023 09:24 7,9 C 7,2 C 92 % 1013,3 hPa 0,0 l/m 16,9 km/h (3 Bft) S-SW 202 0 min 0,0 UV-I 6 W/m 6,7 C 1,8 C 35,4 km/h (5 Bft)
11.01.2023 09:27 7,9 C 7,2 C 92 % 1013,4 hPa 0,2 l/m 11,0 km/h (2 Bft) SW 215 0 min 0,0 UV-I 6 W/m 6,7 C 4,7 C 17,7 km/h (3 Bft)
11.01.2023 09:30 7,9 C 7,2 C 92 % 1013,5 hPa 0,0 l/m 11,0 km/h (2 Bft) S-SW 202 0 min 0,0 UV-I 9 W/m 6,7 C 4,7 C 17,7 km/h (3 Bft)
11.01.2023 09:33 7,8 C 7,2 C 92 % 1013,4 hPa 0,0 l/m 10,1 km/h (2 Bft) S-SW 204 0 min 0,0 UV-I 11 W/m 6,6 C 5,1 C 16,1 km/h (3 Bft)
11.01.2023 09:36 7,8 C 6,7 C 92 % 1013,4 hPa 0,0 l/m 11,9 km/h (2 Bft) SW 215 0 min 0,0 UV-I 13 W/m 6,6 C 4,0 C 17,7 km/h (3 Bft)
11.01.2023 09:39 7,8 C 6,7 C 92 % 1013,3 hPa 0,0 l/m 11,4 km/h (2 Bft) S 176 0 min 0,0 UV-I 16 W/m 6,6 C 4,3 C 17,7 km/h (3 Bft)
11.01.2023 09:42 7,7 C 6,7 C 92 % 1013,4 hPa 0,0 l/m 12,0 km/h (2 Bft) S-SW 192 0 min 0,0 UV-I 18 W/m 6,5 C 3,9 C 16,1 km/h (3 Bft)
11.01.2023 09:45 7,7 C 6,7 C 92 % 1013,4 hPa 0,0 l/m 12,9 km/h (3 Bft) S-SW 203 0 min 0,0 UV-I 16 W/m 6,5 C 3,4 C 19,3 km/h (3 Bft)
11.01.2023 09:48 7,7 C 6,7 C 92 % 1013,3 hPa 0,2 l/m 12,9 km/h (3 Bft) S-SW 195 0 min 0,0 UV-I 14 W/m 6,5 C 3,4 C 19,3 km/h (3 Bft)
11.01.2023 09:51 7,7 C 6,7 C 92 % 1013,3 hPa 0,0 l/m 11,0 km/h (2 Bft) S-SW 198 0 min 0,0 UV-I 16 W/m 6,5 C 4,4 C 14,5 km/h (3 Bft)
11.01.2023 09:54 7,6 C 6,7 C 92 % 1013,3 hPa 0,0 l/m 10,4 km/h (2 Bft) S 188 0 min 0,0 UV-I 20 W/m 6,4 C 4,7 C 16,1 km/h (3 Bft)
11.01.2023 09:57 7,6 C 6,7 C 92 % 1013,4 hPa 0,0 l/m 11,5 km/h (2 Bft) S-SW 200 0 min 0,0 UV-I 22 W/m 6,4 C 4,0 C 17,7 km/h (3 Bft)
11.01.2023 10:00 7,6 C 6,7 C 92 % 1013,3 hPa 0,0 l/m 11,3 km/h (2 Bft) S-SW 205 0 min 0,0 UV-I 19 W/m 6,4 C 4,1 C 16,1 km/h (3 Bft)
11.01.2023 10:03 7,6 C 6,7 C 92 % 1013,3 hPa 0,0 l/m 11,0 km/h (2 Bft) S 191 0 min 0,0 UV-I 18 W/m 6,4 C 4,3 C 16,1 km/h (3 Bft)
11.01.2023 10:06 7,6 C 6,7 C 92 % 1013,3 hPa 0,0 l/m 8,9 km/h (2 Bft) S-SW 195 0 min 0,0 UV-I 26 W/m 6,4 C 5,7 C 12,9 km/h (3 Bft)
11.01.2023 10:09 7,6 C 6,7 C 92 % 1013,3 hPa 0,0 l/m 8,9 km/h (2 Bft) S 181 0 min 0,0 UV-I 31 W/m 6,4 C 5,7 C 14,5 km/h (3 Bft)
11.01.2023 10:12 7,6 C 6,7 C 92 % 1013,4 hPa 0,0 l/m 11,8 km/h (2 Bft) S 178 0 min 0,0 UV-I 31 W/m 6,4 C 3,9 C 17,7 km/h (3 Bft)
11.01.2023 10:15 7,6 C 6,7 C 92 % 1013,3 hPa 0,0 l/m 11,3 km/h (2 Bft) S-SW 205 0 min 0,0 UV-I 37 W/m 6,4 C 4,1 C 16,1 km/h (3 Bft)
11.01.2023 10:18 7,6 C 6,7 C 92 % 1013,4 hPa 0,0 l/m 13,2 km/h (3 Bft) S 179 0 min 0,0 UV-I 35 W/m 6,4 C 3,1 C 19,3 km/h (3 Bft)
11.01.2023 10:21 7,6 C 6,7 C 92 % 1013,4 hPa 0,0 l/m 11,3 km/h (2 Bft) S-SW 207 0 min 0,0 UV-I 27 W/m 6,4 C 4,1 C 16,1 km/h (3 Bft)
11.01.2023 10:24 7,6 C 6,7 C 92 % 1013,5 hPa 0,0 l/m 10,7 km/h (2 Bft) S-SW 198 0 min 0,0 UV-I 21 W/m 6,4 C 4,5 C 14,5 km/h (3 Bft)
11.01.2023 10:27 7,6 C 6,7 C 92 % 1013,5 hPa 0,0 l/m 11,6 km/h (2 Bft) SW 227 0 min 0,0 UV-I 22 W/m 6,4 C 4,0 C 17,7 km/h (3 Bft)
11.01.2023 10:30 7,6 C 7,2 C 92 % 1013,4 hPa 0,0 l/m 9,7 km/h (2 Bft) S 190 0 min 0,0 UV-I 28 W/m 6,4 C 5,1 C 16,1 km/h (3 Bft)
11.01.2023 10:33 7,6 C 7,2 C 92 % 1013,4 hPa 0,0 l/m 12,4 km/h (3 Bft) S-SW 198 0 min 0,0 UV-I 44 W/m 6,4 C 3,5 C 25,7 km/h (4 Bft)
11.01.2023 10:36 7,6 C 7,2 C 92 % 1013,5 hPa 0,0 l/m 9,8 km/h (2 Bft) W-SW 238 0 min 0,0 UV-I 53 W/m 6,4 C 5,1 C 16,1 km/h (3 Bft)
11.01.2023 10:39 7,6 C 7,2 C 92 % 1013,6 hPa 0,0 l/m 12,1 km/h (2 Bft) SW 221 0 min 0,0 UV-I 49 W/m 6,4 C 3,7 C 17,7 km/h (3 Bft)
11.01.2023 10:42 7,6 C 7,2 C 92 % 1013,6 hPa 0,0 l/m 14,0 km/h (3 Bft) SW 219 0 min 0,0 UV-I 45 W/m 6,4 C 2,7 C 25,7 km/h (4 Bft)
11.01.2023 10:45 7,6 C 7,2 C 92 % 1013,8 hPa 0,0 l/m 15,0 km/h (3 Bft) W-SW 244 0 min 0,0 UV-I 44 W/m 6,4 C 2,2 C 22,5 km/h (4 Bft)
11.01.2023 10:48 7,6 C 7,2 C 92 % 1013,9 hPa 0,0 l/m 11,8 km/h (2 Bft) SW 214 0 min 0,0 UV-I 37 W/m 6,4 C 3,9 C 20,9 km/h (4 Bft)
11.01.2023 10:51 7,6 C 7,2 C 92 % 1013,9 hPa 0,0 l/m 15,4 km/h (3 Bft) S-SW 201 0 min 0,0 UV-I 43 W/m 6,4 C 2,0 C 30,6 km/h (5 Bft)
11.01.2023 10:54 7,6 C 7,2 C 92 % 1013,8 hPa 0,0 l/m 12,2 km/h (2 Bft) S 180 0 min 0,0 UV-I 52 W/m 6,4 C 3,6 C 22,5 km/h (4 Bft)
11.01.2023 10:57 7,5 C 7,2 C 92 % 1013,9 hPa 0,0 l/m 15,3 km/h (3 Bft) SW 236 0 min 0,0 UV-I 66 W/m 6,3 C 2,0 C 27,4 km/h (4 Bft)
11.01.2023 11:00 7,5 C 7,2 C 92 % 1014,0 hPa 0,0 l/m 10,2 km/h (2 Bft) SW 230 0 min 0,0 UV-I 69 W/m 6,3 C 4,7 C 17,7 km/h (3 Bft)
11.01.2023 11:03 7,4 C 7,2 C 92 % 1014,0 hPa 0,0 l/m 15,6 km/h (3 Bft) W-SW 255 0 min 0,0 UV-I 76 W/m 6,2 C 1,7 C 27,4 km/h (4 Bft)
11.01.2023 11:06 7,4 C 7,2 C 91 % 1014,2 hPa 0,0 l/m 13,5 km/h (3 Bft) W-SW 242 0 min 0,0 UV-I 76 W/m 6,0 C 2,7 C 25,7 km/h (4 Bft)
11.01.2023 11:09 7,4 C 7,2 C 91 % 1014,2 hPa 0,0 l/m 11,5 km/h (2 Bft) W-SW 242 0 min 0,0 UV-I 69 W/m 6,0 C 3,8 C 20,9 km/h (4 Bft)
11.01.2023 11:12 7,4 C 6,7 C 91 % 1014,2 hPa 0,0 l/m 13,9 km/h (3 Bft) W-SW 240 0 min 0,0 UV-I 64 W/m 6,0 C 2,5 C 27,4 km/h (4 Bft)
11.01.2023 11:15 7,3 C 6,7 C 91 % 1014,4 hPa 0,0 l/m 13,5 km/h (3 Bft) S-SW 200 0 min 0,0 UV-I 56 W/m 5,9 C 2,6 C 25,7 km/h (4 Bft)
11.01.2023 11:18 7,4 C 7,2 C 91 % 1014,4 hPa 0,0 l/m 12,2 km/h (2 Bft) W-SW 244 0 min 0,0 UV-I 67 W/m 6,0 C 3,4 C 29,0 km/h (5 Bft)
11.01.2023 11:21 7,3 C 6,7 C 91 % 1014,4 hPa 0,0 l/m 13,5 km/h (3 Bft) S-SW 213 0 min 0,0 UV-I 63 W/m 5,9 C 2,6 C 27,4 km/h (4 Bft)
11.01.2023 11:24 7,3 C 6,7 C 91 % 1014,5 hPa 0,0 l/m 18,9 km/h (3 Bft) S-SW 200 0 min 0,0 UV-I 80 W/m 5,9 C 0,2 C 37,0 km/h (5 Bft)
11.01.2023 11:27 7,2 C 6,7 C 91 % 1014,6 hPa 0,0 l/m 14,7 km/h (3 Bft) SW 220 0 min 0,5 UV-I 105 W/m 5,8 C 1,9 C 30,6 km/h (5 Bft)
11.01.2023 11:30 7,2 C 7,2 C 90 % 1014,5 hPa 0,0 l/m 12,1 km/h (2 Bft) S-SW 202 0 min 0,5 UV-I 103 W/m 5,7 C 3,2 C 25,7 km/h (4 Bft)
11.01.2023 11:33 7,2 C 6,7 C 90 % 1014,5 hPa 0,0 l/m 14,2 km/h (3 Bft) W-SW 242 0 min 0,5 UV-I 108 W/m 5,7 C 2,1 C 27,4 km/h (4 Bft)
11.01.2023 11:36 7,2 C 7,2 C 90 % 1014,6 hPa 0,0 l/m 14,3 km/h (3 Bft) W 266 0 min 0,5 UV-I 118 W/m 5,7 C 2,1 C 27,4 km/h (4 Bft)
11.01.2023 11:39 7,2 C 7,2 C 90 % 1014,6 hPa 0,0 l/m 16,4 km/h (3 Bft) SW 221 0 min 0,5 UV-I 120 W/m 5,7 C 1,1 C 25,7 km/h (4 Bft)
11.01.2023 11:42 7,2 C 7,2 C 89 % 1014,6 hPa 0,0 l/m 14,7 km/h (3 Bft) W-SW 252 0 min 0,5 UV-I 122 W/m 5,5 C 1,9 C 29,0 km/h (5 Bft)
11.01.2023 11:45 7,1 C 7,2 C 89 % 1014,6 hPa 0,0 l/m 15,6 km/h (3 Bft) W-SW 242 0 min 0,6 UV-I 123 W/m 5,4 C 1,3 C 30,6 km/h (5 Bft)
11.01.2023 11:48 7,1 C 7,2 C 89 % 1014,5 hPa 0,0 l/m 12,3 km/h (3 Bft) SW 236 0 min 0,5 UV-I 121 W/m 5,4 C 3,0 C 20,9 km/h (4 Bft)
11.01.2023 11:51 7,1 C 7,2 C 89 % 1014,6 hPa 0,0 l/m 12,3 km/h (3 Bft) W-SW 251 0 min 0,6 UV-I 125 W/m 5,4 C 3,0 C 20,9 km/h (4 Bft)
11.01.2023 11:54 7,1 C 7,2 C 89 % 1014,7 hPa 0,0 l/m 14,0 km/h (3 Bft) W-SW 248 0 min 0,7 UV-I 140 W/m 5,4 C 2,1 C 27,4 km/h (4 Bft)
11.01.2023 11:57 7,1 C 7,2 C 89 % 1014,6 hPa 0,0 l/m 12,3 km/h (3 Bft) S 180 0 min 0,7 UV-I 142 W/m 5,4 C 3,0 C 19,3 km/h (3 Bft)
11.01.2023 12:00 7,1 C 7,2 C 88 % 1014,7 hPa 0,0 l/m 13,6 km/h (3 Bft) W-SW 250 0 min 0,6 UV-I 139 W/m 5,2 C 2,3 C 22,5 km/h (4 Bft)
11.01.2023 12:03 7,1 C 7,2 C 88 % 1014,5 hPa 0,0 l/m 9,5 km/h (2 Bft) W-SW 239 0 min 0,6 UV-I 139 W/m 5,2 C 4,7 C 19,3 km/h (3 Bft)
11.01.2023 12:06 7,1 C 7,2 C 88 % 1014,7 hPa 0,0 l/m 12,3 km/h (3 Bft) W-SW 238 0 min 0,6 UV-I 144 W/m 5,2 C 3,0 C 25,7 km/h (4 Bft)
11.01.2023 12:09 7,1 C 7,2 C 88 % 1014,8 hPa 0,0 l/m 12,9 km/h (3 Bft) S-SW 213 0 min 0,6 UV-I 149 W/m 5,2 C 2,7 C 20,9 km/h (4 Bft)
11.01.2023 12:12 7,0 C 7,2 C 88 % 1014,7 hPa 0,0 l/m 10,3 km/h (2 Bft) S-SW 199 0 min 0,6 UV-I 139 W/m 5,2 C 4,1 C 16,1 km/h (3 Bft)
11.01.2023 12:15 7,0 C 7,2 C 88 % 1014,8 hPa 0,0 l/m 12,0 km/h (2 Bft) W-SW 241 0 min 0,7 UV-I 149 W/m 5,2 C 3,1 C 20,9 km/h (4 Bft)
11.01.2023 12:18 6,9 C 7,2 C 88 % 1014,8 hPa 0,0 l/m 13,4 km/h (3 Bft) W 275 0 min 0,7 UV-I 143 W/m 5,1 C 2,2 C 27,4 km/h (4 Bft)
11.01.2023 12:21 6,9 C 6,7 C 88 % 1014,8 hPa 0,0 l/m 15,6 km/h (3 Bft) W-SW 249 0 min 0,6 UV-I 132 W/m 5,1 C 1,1 C 30,6 km/h (5 Bft)
11.01.2023 12:24 6,9 C 6,7 C 88 % 1014,8 hPa 0,0 l/m 11,2 km/h (2 Bft) SW 234 0 min 0,6 UV-I 121 W/m 5,1 C 3,4 C 19,3 km/h (3 Bft)
11.01.2023 12:27 6,8 C 6,7 C 88 % 1015,0 hPa 0,0 l/m 12,9 km/h (3 Bft) W-SW 249 0 min 0,6 UV-I 117 W/m 5,0 C 2,3 C 24,1 km/h (4 Bft)
11.01.2023 12:30 6,8 C 6,7 C 88 % 1015,0 hPa 0,0 l/m 11,8 km/h (2 Bft) SW 223 0 min 0,5 UV-I 114 W/m 5,0 C 2,9 C 19,3 km/h (3 Bft)
11.01.2023 12:33 6,8 C 6,7 C 88 % 1015,1 hPa 0,0 l/m 12,7 km/h (3 Bft) S-SW 207 0 min 0,6 UV-I 128 W/m 5,0 C 2,4 C 19,3 km/h (3 Bft)
11.01.2023 12:36 6,8 C 6,7 C 88 % 1015,0 hPa 0,0 l/m 11,1 km/h (2 Bft) SW 217 0 min 0,6 UV-I 123 W/m 5,0 C 3,4 C 20,9 km/h (4 Bft)
11.01.2023 12:39 6,8 C 6,7 C 88 % 1014,9 hPa 0,0 l/m 14,3 km/h (3 Bft) S 181 0 min 0,6 UV-I 140 W/m 5,0 C 1,6 C 25,7 km/h (4 Bft)
11.01.2023 12:42 6,8 C 6,7 C 87 % 1015,0 hPa 0,0 l/m 17,2 km/h (3 Bft) W 275 0 min 0,6 UV-I 137 W/m 4,8 C 0,3 C 30,6 km/h (5 Bft)
11.01.2023 12:45 6,8 C 6,7 C 87 % 1015,0 hPa 0,0 l/m 9,4 km/h (2 Bft) W 264 0 min 0,6 UV-I 136 W/m 4,8 C 4,5 C 19,3 km/h (3 Bft)
11.01.2023 12:48 6,8 C 6,7 C 87 % 1014,9 hPa 0,0 l/m 10,1 km/h (2 Bft) SW 235 0 min 0,6 UV-I 131 W/m 4,8 C 4,0 C 17,7 km/h (3 Bft)
11.01.2023 12:51 6,7 C 6,7 C 87 % 1014,8 hPa 0,0 l/m 13,8 km/h (3 Bft) W-SW 249 0 min 0,5 UV-I 123 W/m 4,7 C 1,7 C 25,7 km/h (4 Bft)
11.01.2023 12:54 6,7 C 6,7 C 87 % 1014,9 hPa 0,0 l/m 12,6 km/h (3 Bft) W-SW 258 0 min 0,6 UV-I 131 W/m 4,7 C 2,4 C 22,5 km/h (4 Bft)
11.01.2023 12:57 6,7 C 6,7 C 87 % 1014,8 hPa 0,0 l/m 10,1 km/h (2 Bft) S-SW 202 0 min 0,6 UV-I 132 W/m 4,7 C 3,9 C 24,1 km/h (4 Bft)
11.01.2023 13:00 6,7 C 6,7 C 87 % 1014,8 hPa 0,0 l/m 13,5 km/h (3 Bft) S-SW 194 0 min 0,5 UV-I 126 W/m 4,7 C 1,9 C 22,5 km/h (4 Bft)
11.01.2023 13:03 6,7 C 6,7 C 86 % 1014,8 hPa 0,0 l/m 17,6 km/h (3 Bft) SW 232 0 min 0,5 UV-I 121 W/m 4,5 C -0,0 C 33,8 km/h (5 Bft)
11.01.2023 13:06 6,6 C 6,7 C 86 % 1015,0 hPa 0,0 l/m 16,1 km/h (3 Bft) SW 221 0 min 0,5 UV-I 115 W/m 4,4 C 0,5 C 27,4 km/h (4 Bft)
11.01.2023 13:09 6,6 C 6,1 C 86 % 1014,8 hPa 0,0 l/m 14,5 km/h (3 Bft) SW 225 0 min 0,5 UV-I 106 W/m 4,4 C 1,3 C 27,4 km/h (4 Bft)
11.01.2023 13:12 6,6 C 6,1 C 86 % 1014,8 hPa 0,0 l/m 17,9 km/h (3 Bft) W-SW 250 0 min 0,6 UV-I 111 W/m 4,4 C -0,3 C 29,0 km/h (5 Bft)
11.01.2023 13:15 6,5 C 6,1 C 86 % 1014,7 hPa 0,0 l/m 13,3 km/h (3 Bft) SW 214 0 min 0,5 UV-I 110 W/m 4,3 C 1,8 C 25,7 km/h (4 Bft)
11.01.2023 13:18 6,5 C 6,7 C 87 % 1014,8 hPa 0,0 l/m 10,5 km/h (2 Bft) S-SW 213 0 min 0,6 UV-I 117 W/m 4,5 C 3,4 C 17,7 km/h (3 Bft)
11.01.2023 13:21 6,5 C 6,7 C 87 % 1014,7 hPa 0,0 l/m 14,9 km/h (3 Bft) S-SW 207 0 min 0,5 UV-I 111 W/m 4,5 C 0,9 C 22,5 km/h (4 Bft)
11.01.2023 13:24 6,5 C 6,7 C 86 % 1014,8 hPa 0,0 l/m 15,9 km/h (3 Bft) S-SW 209 0 min 0,5 UV-I 97 W/m 4,3 C 0,5 C 24,1 km/h (4 Bft)
11.01.2023 13:27 6,5 C 6,7 C 86 % 1014,7 hPa 0,0 l/m 14,7 km/h (3 Bft) S-SW 211 0 min 0,5 UV-I 89 W/m 4,3 C 1,0 C 25,7 km/h (4 Bft)
11.01.2023 13:30 6,4 C 6,7 C 86 % 1014,8 hPa 0,0 l/m 8,8 km/h (2 Bft) W 274 0 min 0,0 UV-I 78 W/m 4,2 C 4,5 C 19,3 km/h (3 Bft)
11.01.2023 13:33 6,4 C 6,7 C 87 % 1015,0 hPa 0,0 l/m 14,0 km/h (3 Bft) SW 225 0 min 0,0 UV-I 72 W/m 4,4 C 1,3 C 24,1 km/h (4 Bft)
11.01.2023 13:36 6,5 C 6,7 C 87 % 1015,1 hPa 0,0 l/m 14,4 km/h (3 Bft) S-SW 209 0 min 0,0 UV-I 86 W/m 4,5 C 1,2 C 29,0 km/h (5 Bft)
11.01.2023 13:39 6,4 C 6,7 C 87 % 1015,0 hPa 0,0 l/m 16,0 km/h (3 Bft) SW 229 0 min 0,2 UV-I 92 W/m 4,4 C 0,3 C 29,0 km/h (5 Bft)
11.01.2023 13:42 6,3 C 6,1 C 86 % 1015,0 hPa 0,0 l/m 18,4 km/h (3 Bft) SW 228 0 min 0,2 UV-I 78 W/m 4,1 C -0,9 C 30,6 km/h (5 Bft)
11.01.2023 13:45 6,3 C 6,1 C 86 % 1015,1 hPa 0,0 l/m 12,8 km/h (3 Bft) S-SW 213 0 min 0,0 UV-I 74 W/m 4,1 C 1,8 C 24,1 km/h (4 Bft)
11.01.2023 13:48 6,2 C 6,1 C 86 % 1015,0 hPa 0,0 l/m 12,2 km/h (2 Bft) S-SW 200 0 min 0,0 UV-I 72 W/m 4,0 C 2,0 C 19,3 km/h (3 Bft)
11.01.2023 13:51 6,2 C 6,1 C 86 % 1015,1 hPa 0,0 l/m 15,9 km/h (3 Bft) W-SW 248 0 min 0,0 UV-I 69 W/m 4,0 C 0,1 C 29,0 km/h (5 Bft)
11.01.2023 13:54 6,2 C 6,1 C 86 % 1015,1 hPa 0,0 l/m 13,1 km/h (3 Bft) W-SW 239 0 min 0,0 UV-I 67 W/m 4,0 C 1,5 C 22,5 km/h (4 Bft)
11.01.2023 13:57 6,2 C 6,1 C 86 % 1015,1 hPa 0,0 l/m 13,6 km/h (3 Bft) S-SW 211 0 min 0,1 UV-I 75 W/m 4,0 C 1,2 C 29,0 km/h (5 Bft)
11.01.2023 14:00 6,1 C 6,1 C 86 % 1015,1 hPa 0,0 l/m 13,0 km/h (3 Bft) W 281 0 min 0,5 UV-I 77 W/m 3,9 C 1,5 C 20,9 km/h (4 Bft)
11.01.2023 14:03 6,1 C 6,1 C 86 % 1015,1 hPa 0,0 l/m 13,8 km/h (3 Bft) W 269 0 min 0,4 UV-I 65 W/m 3,9 C 1,0 C 24,1 km/h (4 Bft)
11.01.2023 14:06 6,1 C 6,1 C 86 % 1015,2 hPa 0,0 l/m 12,2 km/h (2 Bft) SW 225 0 min 0,4 UV-I 92 W/m 3,9 C 1,9 C 20,9 km/h (4 Bft)
11.01.2023 14:09 6,1 C 6,1 C 86 % 1015,2 hPa 0,0 l/m 11,9 km/h (2 Bft) SW 234 0 min 0,4 UV-I 85 W/m 3,9 C 2,1 C 27,4 km/h (4 Bft)
11.01.2023 14:12 6,0 C 6,1 C 86 % 1015,3 hPa 0,0 l/m 13,5 km/h (3 Bft) SW 214 0 min 0,2 UV-I 78 W/m 3,8 C 1,1 C 19,3 km/h (3 Bft)
11.01.2023 14:15 6,1 C 6,1 C 86 % 1015,3 hPa 0,0 l/m 13,9 km/h (3 Bft) S-SW 213 0 min 0,5 UV-I 78 W/m 3,9 C 1,0 C 20,9 km/h (4 Bft)
11.01.2023 14:18 6,0 C 6,1 C 86 % 1015,4 hPa 0,0 l/m 16,8 km/h (3 Bft) S-SW 198 0 min 0,5 UV-I 87 W/m 3,8 C -0,6 C 27,4 km/h (4 Bft)
11.01.2023 14:21 5,9 C 6,1 C 86 % 1015,3 hPa 0,0 l/m 14,1 km/h (3 Bft) SW 235 0 min 0,5 UV-I 65 W/m 3,7 C 0,6 C 20,9 km/h (4 Bft)
11.01.2023 14:24 6,0 C 6,1 C 86 % 1015,4 hPa 0,0 l/m 17,0 km/h (3 Bft) S 181 0 min 0,2 UV-I 83 W/m 3,8 C -0,6 C 24,1 km/h (4 Bft)
11.01.2023 14:27 6,1 C 6,1 C 86 % 1015,3 hPa 0,0 l/m 16,2 km/h (3 Bft) W 277 0 min 0,0 UV-I 93 W/m 3,9 C -0,2 C 25,7 km/h (4 Bft)
11.01.2023 14:30 6,2 C 6,1 C 86 % 1015,3 hPa 0,0 l/m 16,9 km/h (3 Bft) S 186 0 min 0,0 UV-I 92 W/m 4,0 C -0,4 C 25,7 km/h (4 Bft)
11.01.2023 14:33 6,2 C 6,1 C 86 % 1015,3 hPa 0,0 l/m 17,2 km/h (3 Bft) S-SW 205 0 min 0,0 UV-I 95 W/m 4,0 C -0,5 C 25,7 km/h (4 Bft)
11.01.2023 14:36 6,2 C 6,1 C 86 % 1015,3 hPa 0,0 l/m 16,8 km/h (3 Bft) SW 220 0 min 0,0 UV-I 50 W/m 4,0 C -0,3 C 25,7 km/h (4 Bft)
11.01.2023 14:39 6,2 C 6,1 C 86 % 1015,3 hPa 0,0 l/m 18,8 km/h (3 Bft) S 186 0 min 0,0 UV-I 27 W/m 4,0 C -1,2 C 25,7 km/h (4 Bft)
11.01.2023 14:42 6,2 C 5,6 C 86 % 1015,3 hPa 0,0 l/m 14,4 km/h (3 Bft) S 184 0 min 0,0 UV-I 23 W/m 4,0 C 0,8 C 20,9 km/h (4 Bft)
11.01.2023 14:45 6,2 C 6,1 C 86 % 1015,2 hPa 0,0 l/m 14,7 km/h (3 Bft) S-SW 202 0 min 0,0 UV-I 37 W/m 4,0 C 0,7 C 20,9 km/h (4 Bft)
11.01.2023 14:48 6,2 C 6,1 C 86 % 1015,2 hPa 0,0 l/m 14,1 km/h (3 Bft) S-SO 167 0 min 0,0 UV-I 68 W/m 4,0 C 1,0 C 25,7 km/h (4 Bft)
11.01.2023 14:51 6,3 C 6,1 C 86 % 1015,3 hPa 0,0 l/m 15,4 km/h (3 Bft) SW 219 0 min 0,0 UV-I 55 W/m 4,1 C 0,5 C 25,7 km/h (4 Bft)
11.01.2023 14:54 6,3 C 6,1 C 86 % 1015,2 hPa 0,0 l/m 16,7 km/h (3 Bft) S-SW 204 0 min 0,0 UV-I 89 W/m 4,1 C -0,1 C 24,1 km/h (4 Bft)
11.01.2023 14:57 6,3 C 6,1 C 86 % 1015,3 hPa 0,0 l/m 16,0 km/h (3 Bft) S-SW 192 0 min 0,0 UV-I 84 W/m 4,1 C 0,2 C 22,5 km/h (4 Bft)
11.01.2023 15:00 6,3 C 6,1 C 86 % 1015,3 hPa 0,0 l/m 15,5 km/h (3 Bft) S 182 0 min 0,0 UV-I 70 W/m 4,1 C 0,4 C 22,5 km/h (4 Bft)
11.01.2023 15:03 6,3 C 6,7 C 86 % 1015,4 hPa 0,0 l/m 18,6 km/h (3 Bft) S-SW 211 0 min 0,0 UV-I 128 W/m 4,1 C -0,9 C 32,2 km/h (5 Bft)
11.01.2023 15:06 6,2 C 6,1 C 86 % 1015,2 hPa 0,0 l/m 17,2 km/h (3 Bft) S-SW 205 0 min 0,0 UV-I 73 W/m 4,0 C -0,5 C 25,7 km/h (4 Bft)
11.01.2023 15:09 6,1 C 5,6 C 86 % 1015,3 hPa 0,0 l/m 13,3 km/h (3 Bft) S-SW 210 0 min 0,0 UV-I 40 W/m 3,9 C 1,3 C 22,5 km/h (4 Bft)
11.01.2023 15:12 6,1 C 6,1 C 87 % 1015,3 hPa 0,0 l/m 18,2 km/h (3 Bft) SW 223 0 min 0,0 UV-I 62 W/m 4,1 C -1,0 C 29,0 km/h (5 Bft)
11.01.2023 15:15 6,0 C 5,6 C 87 % 1015,5 hPa 0,0 l/m 15,4 km/h (3 Bft) S-SW 194 0 min 0,0 UV-I 33 W/m 4,0 C 0,1 C 25,7 km/h (4 Bft)
11.01.2023 15:18 5,9 C 5,0 C 87 % 1015,5 hPa 0,0 l/m 17,9 km/h (3 Bft) S-SW 200 0 min 0,0 UV-I 24 W/m 3,9 C -1,2 C 27,4 km/h (4 Bft)
11.01.2023 15:21 5,8 C 5,0 C 87 % 1015,6 hPa 0,0 l/m 13,7 km/h (3 Bft) S-SW 209 0 min 0,0 UV-I 23 W/m 3,8 C 0,7 C 19,3 km/h (3 Bft)
11.01.2023 15:24 5,8 C 5,6 C 87 % 1015,6 hPa 0,0 l/m 14,4 km/h (3 Bft) S-SW 205 0 min 0,0 UV-I 42 W/m 3,8 C 0,3 C 19,3 km/h (3 Bft)
11.01.2023 15:27 5,8 C 5,6 C 87 % 1015,6 hPa 0,0 l/m 15,3 km/h (3 Bft) S-SW 209 0 min 0,0 UV-I 55 W/m 3,8 C -0,1 C 24,1 km/h (4 Bft)
11.01.2023 15:30 5,8 C 5,6 C 88 % 1015,7 hPa 0,0 l/m 13,9 km/h (3 Bft) S-SW 205 0 min 0,0 UV-I 59 W/m 4,0 C 0,6 C 19,3 km/h (3 Bft)
11.01.2023 15:33 5,9 C 5,6 C 88 % 1015,8 hPa 0,0 l/m 15,7 km/h (3 Bft) SW 224 0 min 0,0 UV-I 44 W/m 4,1 C -0,2 C 22,5 km/h (4 Bft)
11.01.2023 15:36 5,9 C 5,6 C 88 % 1015,7 hPa 0,0 l/m 11,9 km/h (2 Bft) SW 226 0 min 0,0 UV-I 32 W/m 4,1 C 1,9 C 19,3 km/h (3 Bft)
11.01.2023 15:39 5,9 C 5,0 C 88 % 1015,8 hPa 0,0 l/m 11,2 km/h (2 Bft) SW 222 0 min 0,0 UV-I 20 W/m 4,1 C 2,3 C 20,9 km/h (4 Bft)
11.01.2023 15:42 5,9 C 5,0 C 88 % 1015,8 hPa 0,2 l/m 15,4 km/h (3 Bft) S-SW 205 0 min 0,0 UV-I 18 W/m 4,1 C -0,0 C 24,1 km/h (4 Bft)
11.01.2023 15:45 5,9 C 5,0 C 88 % 1015,9 hPa 0,0 l/m 17,8 km/h (3 Bft) S 187 0 min 0,0 UV-I 17 W/m 4,1 C -1,1 C 25,7 km/h (4 Bft)
11.01.2023 15:48 5,7 C 4,4 C 87 % 1016,0 hPa 0,0 l/m 15,6 km/h (3 Bft) S-SW 204 0 min 0,0 UV-I 16 W/m 3,7 C -0,4 C 27,4 km/h (4 Bft)
11.01.2023 15:51 5,7 C 4,4 C 87 % 1016,0 hPa 0,0 l/m 13,7 km/h (3 Bft) S-SW 203 0 min 0,0 UV-I 23 W/m 3,7 C 0,6 C 20,9 km/h (4 Bft)
11.01.2023 15:54 5,6 C 4,4 C 88 % 1016,1 hPa 0,0 l/m 10,8 km/h (2 Bft) S-SW 204 0 min 0,0 UV-I 22 W/m 3,8 C 2,2 C 17,7 km/h (3 Bft)
11.01.2023 15:57 5,6 C 5,0 C 88 % 1016,2 hPa 0,0 l/m 10,3 km/h (2 Bft) S-SW 209 0 min 0,0 UV-I 64 W/m 3,8 C 2,5 C 16,1 km/h (3 Bft)
11.01.2023 16:00 5,6 C 5,6 C 88 % 1016,3 hPa 0,0 l/m 12,8 km/h (3 Bft) S-SW 205 0 min 0,0 UV-I 69 W/m 3,8 C 1,0 C 20,9 km/h (4 Bft)
11.01.2023 16:03 5,5 C 5,6 C 88 % 1016,3 hPa 0,0 l/m 16,3 km/h (3 Bft) SW 216 0 min 0,0 UV-I 61 W/m 3,7 C -0,9 C 24,1 km/h (4 Bft)
11.01.2023 16:06 5,4 C 5,6 C 88 % 1016,4 hPa 0,0 l/m 19,0 km/h (3 Bft) SW 217 0 min 0,0 UV-I 48 W/m 3,6 C -2,3 C 29,0 km/h (5 Bft)
11.01.2023 16:09 5,4 C 5,0 C 88 % 1016,4 hPa 0,0 l/m 16,4 km/h (3 Bft) S-SW 204 0 min 0,0 UV-I 35 W/m 3,6 C -1,1 C 24,1 km/h (4 Bft)
11.01.2023 16:12 5,3 C 5,0 C 89 % 1016,3 hPa 0,0 l/m 15,6 km/h (3 Bft) SW 220 0 min 0,0 UV-I 36 W/m 3,6 C -0,9 C 20,9 km/h (4 Bft)
11.01.2023 16:15 5,3 C 5,6 C 89 % 1016,3 hPa 0,0 l/m 13,8 km/h (3 Bft) S 190 0 min 0,0 UV-I 32 W/m 3,6 C 0,1 C 24,1 km/h (4 Bft)
11.01.2023 16:18 5,2 C 5,0 C 89 % 1016,3 hPa 0,0 l/m 13,4 km/h (3 Bft) S-SW 213 0 min 0,0 UV-I 22 W/m 3,5 C 0,2 C 19,3 km/h (3 Bft)
11.01.2023 16:21 5,1 C 4,4 C 89 % 1016,2 hPa 0,0 l/m 12,6 km/h (3 Bft) S 185 0 min 0,0 UV-I 17 W/m 3,4 C 0,5 C 32,2 km/h (5 Bft)
11.01.2023 16:24 5,1 C 4,4 C 89 % 1016,4 hPa 0,0 l/m 11,9 km/h (2 Bft) S-SW 196 0 min 0,0 UV-I 12 W/m 3,4 C 0,9 C 16,1 km/h (3 Bft)
11.01.2023 16:27 5,1 C 4,4 C 89 % 1016,4 hPa 0,0 l/m 15,1 km/h (3 Bft) S-SW 210 0 min 0,0 UV-I 12 W/m 3,4 C -0,9 C 20,9 km/h (4 Bft)
11.01.2023 16:30 5,2 C 4,4 C 89 % 1016,5 hPa 0,0 l/m 14,3 km/h (3 Bft) SW 218 0 min 0,0 UV-I 15 W/m 3,5 C -0,3 C 19,3 km/h (3 Bft)
11.01.2023 16:33 5,2 C 4,4 C 90 % 1016,5 hPa 0,0 l/m 12,3 km/h (3 Bft) S-SW 209 0 min 0,0 UV-I 15 W/m 3,7 C 0,8 C 17,7 km/h (3 Bft)
11.01.2023 16:36 5,2 C 4,4 C 90 % 1016,5 hPa 0,0 l/m 10,3 km/h (2 Bft) S-SW 209 0 min 0,0 UV-I 9 W/m 3,7 C 2,1 C 16,1 km/h (3 Bft)
11.01.2023 16:39 5,2 C 3,9 C 89 % 1016,4 hPa 0,0 l/m 9,9 km/h (2 Bft) S-SW 202 0 min 0,0 UV-I 7 W/m 3,5 C 2,4 C 12,9 km/h (3 Bft)
11.01.2023 16:42 5,2 C 3,9 C 89 % 1016,4 hPa 0,0 l/m 12,3 km/h (3 Bft) S-SW 194 0 min 0,0 UV-I 6 W/m 3,5 C 0,8 C 17,7 km/h (3 Bft)
11.01.2023 16:45 5,2 C 3,9 C 89 % 1016,5 hPa 0,0 l/m 13,4 km/h (3 Bft) S-SW 210 0 min 0,0 UV-I 5 W/m 3,5 C 0,2 C 19,3 km/h (3 Bft)
11.01.2023 16:48 5,2 C 3,9 C 90 % 1016,5 hPa 0,0 l/m 14,5 km/h (3 Bft) S-SW 213 0 min 0,0 UV-I 5 W/m 3,7 C -0,4 C 20,9 km/h (4 Bft)
11.01.2023 16:51 5,2 C 3,9 C 89 % 1016,6 hPa 0,0 l/m 13,7 km/h (3 Bft) S-SW 200 0 min 0,0 UV-I 1 W/m 3,5 C 0,0 C 20,9 km/h (4 Bft)
11.01.2023 16:54 5,1 C 3,9 C 89 % 1016,5 hPa 0,0 l/m 13,1 km/h (3 Bft) S-SW 204 0 min 0,0 UV-I 0 W/m 3,4 C 0,2 C 19,3 km/h (3 Bft)
11.01.2023 16:57 5,1 C 3,9 C 89 % 1016,5 hPa 0,0 l/m 14,6 km/h (3 Bft) S-SW 198 0 min 0,0 UV-I 0 W/m 3,4 C -0,6 C 19,3 km/h (3 Bft)
11.01.2023 17:00 5,2 C 3,9 C 89 % 1016,6 hPa 0,0 l/m 14,3 km/h (3 Bft) S-SW 200 0 min 0,0 UV-I 0 W/m 3,5 C -0,3 C 20,9 km/h (4 Bft)
11.01.2023 17:03 5,1 C 3,9 C 89 % 1016,5 hPa 0,0 l/m 15,1 km/h (3 Bft) S-SW 205 0 min 0,0 UV-I 0 W/m 3,4 C -0,9 C 22,5 km/h (4 Bft)
11.01.2023 17:06 5,1 C 3,9 C 90 % 1016,6 hPa 0,0 l/m 15,0 km/h (3 Bft) S-SW 192 0 min 0,0 UV-I 0 W/m 3,6 C -0,8 C 24,1 km/h (4 Bft)
11.01.2023 17:09 5,1 C 3,9 C 90 % 1016,6 hPa 0,0 l/m 14,8 km/h (3 Bft) S 182 0 min 0,0 UV-I 0 W/m 3,6 C -0,7 C 22,5 km/h (4 Bft)
11.01.2023 17:12 5,1 C 3,9 C 90 % 1016,6 hPa 0,0 l/m 15,4 km/h (3 Bft) S-SW 200 0 min 0,0 UV-I 0 W/m 3,6 C -1,0 C 22,5 km/h (4 Bft)
11.01.2023 17:15 5,1 C 3,9 C 90 % 1016,6 hPa 0,0 l/m 16,0 km/h (3 Bft) S 183 0 min 0,0 UV-I 0 W/m 3,6 C -1,3 C 24,1 km/h (4 Bft)
11.01.2023 17:18 5,1 C 3,9 C 90 % 1016,6 hPa 0,0 l/m 13,9 km/h (3 Bft) S-SW 203 0 min 0,0 UV-I 0 W/m 3,6 C -0,2 C 19,3 km/h (3 Bft)
11.01.2023 17:21 5,0 C 3,9 C 90 % 1016,6 hPa 0,0 l/m 15,3 km/h (3 Bft) S-SW 196 0 min 0,0 UV-I 0 W/m 3,5 C -1,1 C 20,9 km/h (4 Bft)
11.01.2023 17:24 5,0 C 3,9 C 90 % 1016,6 hPa 0,0 l/m 15,4 km/h (3 Bft) SW 217 0 min 0,0 UV-I 0 W/m 3,5 C -1,1 C 20,9 km/h (4 Bft)
11.01.2023 17:27 5,1 C 3,9 C 90 % 1016,6 hPa 0,0 l/m 15,3 km/h (3 Bft) SW 219 0 min 0,0 UV-I 0 W/m 3,6 C -1,0 C 22,5 km/h (4 Bft)
11.01.2023 17:30 5,1 C 3,9 C 90 % 1016,7 hPa 0,0 l/m 14,8 km/h (3 Bft) S-SW 198 0 min 0,0 UV-I 0 W/m 3,6 C -0,7 C 19,3 km/h (3 Bft)
11.01.2023 17:33 5,0 C 3,9 C 90 % 1016,7 hPa 0,0 l/m 16,1 km/h (3 Bft) S-SW 202 0 min 0,0 UV-I 0 W/m 3,5 C -1,5 C 27,4 km/h (4 Bft)
11.01.2023 17:36 5,1 C 4,4 C 90 % 1016,8 hPa 0,0 l/m 17,1 km/h (3 Bft) S 186 0 min 0,0 UV-I 0 W/m 3,6 C -1,8 C 29,0 km/h (5 Bft)
11.01.2023 17:39 5,1 C 3,9 C 90 % 1016,8 hPa 0,0 l/m 13,8 km/h (3 Bft) S-SW 205 0 min 0,0 UV-I 0 W/m 3,6 C -0,2 C 20,9 km/h (4 Bft)
11.01.2023 17:42 5,1 C 4,4 C 90 % 1016,9 hPa 0,0 l/m 16,1 km/h (3 Bft) S 184 0 min 0,0 UV-I 0 W/m 3,6 C -1,3 C 25,7 km/h (4 Bft)
11.01.2023 17:45 5,1 C 4,4 C 90 % 1016,9 hPa 0,0 l/m 14,4 km/h (3 Bft) S-SW 194 0 min 0,0 UV-I 0 W/m 3,6 C -0,5 C 20,9 km/h (4 Bft)
11.01.2023 17:48 5,1 C 4,4 C 90 % 1016,9 hPa 0,0 l/m 16,3 km/h (3 Bft) S 190 0 min 0,0 UV-I 0 W/m 3,6 C -1,4 C 25,7 km/h (4 Bft)
11.01.2023 17:51 5,2 C 4,4 C 90 % 1016,9 hPa 0,0 l/m 17,6 km/h (3 Bft) S 186 0 min 0,0 UV-I 0 W/m 3,7 C -1,9 C 27,4 km/h (4 Bft)
11.01.2023 17:54 5,2 C 4,4 C 90 % 1016,9 hPa 0,0 l/m 19,2 km/h (3 Bft) S 188 0 min 0,0 UV-I 0 W/m 3,7 C -2,6 C 27,4 km/h (4 Bft)
11.01.2023 17:57 5,2 C 4,4 C 90 % 1017,1 hPa 0,0 l/m 18,1 km/h (3 Bft) SW 215 0 min 0,0 UV-I 0 W/m 3,7 C -2,1 C 29,0 km/h (5 Bft)
11.01.2023 18:00 5,2 C 4,4 C 90 % 1017,0 hPa 0,0 l/m 19,6 km/h (3 Bft) SW 223 0 min 0,0 UV-I 0 W/m 3,7 C -2,8 C 27,4 km/h (4 Bft)
11.01.2023 18:03 5,3 C 4,4 C 90 % 1017,1 hPa 0,0 l/m 20,9 km/h (4 Bft) S-SO 161 0 min 0,0 UV-I 0 W/m 3,8 C -3,1 C 41,8 km/h (6 Bft)
11.01.2023 18:06 5,2 C 4,4 C 89 % 1017,2 hPa 0,0 l/m 21,6 km/h (4 Bft) S 176 0 min 0,0 UV-I 0 W/m 3,5 C -3,5 C 35,4 km/h (5 Bft)
11.01.2023 18:09 5,2 C 3,9 C 89 % 1017,2 hPa 0,0 l/m 19,7 km/h (3 Bft) S 191 0 min 0,0 UV-I 0 W/m 3,5 C -2,8 C 30,6 km/h (5 Bft)
11.01.2023 18:12 5,1 C 3,9 C 89 % 1017,3 hPa 0,0 l/m 18,1 km/h (3 Bft) S-SW 205 0 min 0,0 UV-I 0 W/m 3,4 C -2,3 C 27,4 km/h (4 Bft)
11.01.2023 18:15 5,1 C 3,9 C 89 % 1017,3 hPa 0,0 l/m 17,5 km/h (3 Bft) S 182 0 min 0,0 UV-I 0 W/m 3,4 C -2,0 C 25,7 km/h (4 Bft)
11.01.2023 18:18 5,0 C 3,9 C 89 % 1017,3 hPa 0,0 l/m 14,7 km/h (3 Bft) S-SW 211 0 min 0,0 UV-I 0 W/m 3,3 C -0,8 C 20,9 km/h (4 Bft)
11.01.2023 18:21 4,9 C 3,9 C 89 % 1017,3 hPa 0,0 l/m 17,1 km/h (3 Bft) S-SW 193 0 min 0,0 UV-I 0 W/m 3,2 C -2,1 C 25,7 km/h (4 Bft)
11.01.2023 18:24 4,9 C 3,9 C 89 % 1017,3 hPa 0,0 l/m 17,2 km/h (3 Bft) SW 226 0 min 0,0 UV-I 0 W/m 3,2 C -2,1 C 25,7 km/h (4 Bft)
11.01.2023 18:27 4,9 C 4,4 C 89 % 1017,4 hPa 0,0 l/m 15,6 km/h (3 Bft) S 188 0 min 0,0 UV-I 0 W/m 3,2 C -1,3 C 22,5 km/h (4 Bft)
11.01.2023 18:30 4,9 C 4,4 C 89 % 1017,5 hPa 0,0 l/m 15,7 km/h (3 Bft) S-SW 210 0 min 0,0 UV-I 0 W/m 3,2 C -1,4 C 22,5 km/h (4 Bft)
11.01.2023 18:33 4,9 C 4,4 C 89 % 1017,6 hPa 0,0 l/m 14,6 km/h (3 Bft) SW 234 0 min 0,0 UV-I 0 W/m 3,2 C -0,8 C 20,9 km/h (4 Bft)
11.01.2023 18:36 4,9 C 4,4 C 89 % 1017,6 hPa 0,0 l/m 14,6 km/h (3 Bft) S-SW 192 0 min 0,0 UV-I 0 W/m 3,2 C -0,8 C 19,3 km/h (3 Bft)
11.01.2023 18:39 4,9 C 4,4 C 89 % 1017,6 hPa 0,0 l/m 15,4 km/h (3 Bft) S 187 0 min 0,0 UV-I 0 W/m 3,2 C -1,2 C 24,1 km/h (4 Bft)
11.01.2023 18:42 4,9 C 4,4 C 89 % 1017,5 hPa 0,0 l/m 12,2 km/h (2 Bft) S-SW 194 0 min 0,0 UV-I 0 W/m 3,2 C 0,5 C 19,3 km/h (3 Bft)
11.01.2023 18:45 4,9 C 3,9 C 89 % 1017,4 hPa 0,0 l/m 16,6 km/h (3 Bft) S-SW 209 0 min 0,0 UV-I 0 W/m 3,2 C -1,8 C 30,6 km/h (5 Bft)
11.01.2023 18:48 4,9 C 3,9 C 89 % 1017,5 hPa 0,0 l/m 18,6 km/h (3 Bft) S-SW 202 0 min 0,0 UV-I 0 W/m 3,2 C -2,7 C 25,7 km/h (4 Bft)
11.01.2023 18:51 4,8 C 3,9 C 89 % 1017,6 hPa 0,0 l/m 16,4 km/h (3 Bft) SW 223 0 min 0,0 UV-I 0 W/m 3,1 C -1,9 C 27,4 km/h (4 Bft)
11.01.2023 18:54 4,8 C 3,3 C 89 % 1017,5 hPa 0,0 l/m 16,4 km/h (3 Bft) S-SW 204 0 min 0,0 UV-I 0 W/m 3,1 C -1,9 C 27,4 km/h (4 Bft)
11.01.2023 18:57 4,7 C 3,3 C 89 % 1017,6 hPa 0,0 l/m 16,4 km/h (3 Bft) SW 223 0 min 0,0 UV-I 0 W/m 3,0 C -2,0 C 27,4 km/h (4 Bft)
11.01.2023 19:00 4,7 C 3,9 C 89 % 1017,7 hPa 0,0 l/m 17,8 km/h (3 Bft) S-SW 200 0 min 0,0 UV-I 0 W/m 3,0 C -2,6 C 30,6 km/h (5 Bft)
11.01.2023 19:03 4,6 C 3,9 C 89 % 1017,6 hPa 0,0 l/m 16,8 km/h (3 Bft) S 185 0 min 0,0 UV-I 0 W/m 2,9 C -2,3 C 25,7 km/h (4 Bft)
11.01.2023 19:06 4,6 C 3,9 C 89 % 1017,4 hPa 0,0 l/m 19,5 km/h (3 Bft) S-SW 213 0 min 0,0 UV-I 0 W/m 2,9 C -3,5 C 29,0 km/h (5 Bft)
11.01.2023 19:09 4,6 C 3,3 C 89 % 1017,4 hPa 0,0 l/m 19,4 km/h (3 Bft) S-SW 209 0 min 0,0 UV-I 0 W/m 2,9 C -3,4 C 30,6 km/h (5 Bft)
11.01.2023 19:12 4,6 C 3,3 C 89 % 1017,5 hPa 0,0 l/m 19,4 km/h (3 Bft) S 183 0 min 0,0 UV-I 0 W/m 2,9 C -3,4 C 27,4 km/h (4 Bft)
11.01.2023 19:15 4,6 C 3,3 C 89 % 1017,5 hPa 0,0 l/m 16,9 km/h (3 Bft) S 189 0 min 0,0 UV-I 0 W/m 2,9 C -2,3 C 25,7 km/h (4 Bft)
11.01.2023 19:18 4,5 C 3,3 C 88 % 1017,5 hPa 0,0 l/m 17,0 km/h (3 Bft) S-SW 198 0 min 0,0 UV-I 0 W/m 2,7 C -2,5 C 27,4 km/h (4 Bft)
11.01.2023 19:21 4,4 C 3,3 C 88 % 1017,5 hPa 0,0 l/m 17,4 km/h (3 Bft) S 190 0 min 0,0 UV-I 0 W/m 2,6 C -2,8 C 24,1 km/h (4 Bft)
11.01.2023 19:24 4,4 C 3,3 C 89 % 1017,4 hPa 0,0 l/m 16,9 km/h (3 Bft) S 186 0 min 0,0 UV-I 0 W/m 2,7 C -2,6 C 25,7 km/h (4 Bft)
11.01.2023 19:27 4,3 C 3,3 C 89 % 1017,4 hPa 0,0 l/m 17,7 km/h (3 Bft) S-SW 204 0 min 0,0 UV-I 0 W/m 2,7 C -3,1 C 29,0 km/h (5 Bft)
11.01.2023 19:30 4,3 C 3,3 C 89 % 1017,5 hPa 0,0 l/m 18,7 km/h (3 Bft) S 174 0 min 0,0 UV-I 0 W/m 2,7 C -3,5 C 33,8 km/h (5 Bft)
11.01.2023 19:33 4,3 C 3,3 C 89 % 1017,5 hPa 0,0 l/m 18,3 km/h (3 Bft) S 188 0 min 0,0 UV-I 0 W/m 2,7 C -3,4 C 27,4 km/h (4 Bft)
11.01.2023 19:36 4,4 C 3,9 C 89 % 1017,6 hPa 0,0 l/m 18,1 km/h (3 Bft) S-SW 200 0 min 0,0 UV-I 0 W/m 2,7 C -3,1 C 35,4 km/h (5 Bft)
11.01.2023 19:39 4,4 C 3,9 C 89 % 1017,6 hPa 0,0 l/m 16,5 km/h (3 Bft) S 169 0 min 0,0 UV-I 0 W/m 2,7 C -2,4 C 22,5 km/h (4 Bft)
11.01.2023 19:42 4,5 C 3,9 C 89 % 1017,5 hPa 0,0 l/m 18,6 km/h (3 Bft) SW 217 0 min 0,0 UV-I 0 W/m 2,8 C -3,2 C 27,4 km/h (4 Bft)
11.01.2023 19:45 4,5 C 3,3 C 89 % 1017,6 hPa 0,0 l/m 17,7 km/h (3 Bft) S 190 0 min 0,0 UV-I 0 W/m 2,8 C -2,8 C 24,1 km/h (4 Bft)
11.01.2023 19:48 4,5 C 3,9 C 89 % 1017,6 hPa 0,0 l/m 18,4 km/h (3 Bft) S-SW 205 0 min 0,0 UV-I 0 W/m 2,8 C -3,1 C 25,7 km/h (4 Bft)
11.01.2023 19:51 4,5 C 3,3 C 89 % 1017,5 hPa 0,0 l/m 20,4 km/h (4 Bft) SW 223 0 min 0,0 UV-I 0 W/m 2,8 C -4,0 C 30,6 km/h (5 Bft)
11.01.2023 19:54 4,6 C 3,9 C 89 % 1017,7 hPa 0,0 l/m 21,8 km/h (4 Bft) S-SW 204 0 min 0,0 UV-I 0 W/m 2,9 C -4,4 C 35,4 km/h (5 Bft)
11.01.2023 19:57 4,6 C 3,9 C 89 % 1017,7 hPa 0,0 l/m 19,2 km/h (3 Bft) S-SO 163 0 min 0,0 UV-I 0 W/m 2,9 C -3,4 C 33,8 km/h (5 Bft)
11.01.2023 20:00 4,7 C 3,9 C 89 % 1017,7 hPa 0,0 l/m 21,3 km/h (4 Bft) S 188 0 min 0,0 UV-I 0 W/m 3,0 C -4,1 C 33,8 km/h (5 Bft)
11.01.2023 20:03 4,7 C 4,4 C 89 % 1017,7 hPa 0,0 l/m 22,4 km/h (4 Bft) S-SW 201 0 min 0,0 UV-I 0 W/m 3,0 C -4,5 C 32,2 km/h (5 Bft)
11.01.2023 20:06 4,8 C 4,4 C 89 % 1017,7 hPa 0,0 l/m 20,3 km/h (4 Bft) S-SW 202 0 min 0,0 UV-I 0 W/m 3,1 C -3,5 C 32,2 km/h (5 Bft)
11.01.2023 20:09 4,8 C 3,9 C 89 % 1017,6 hPa 0,0 l/m 17,5 km/h (3 Bft) S-SW 202 0 min 0,0 UV-I 0 W/m 3,1 C -2,4 C 25,7 km/h (4 Bft)
11.01.2023 20:12 4,8 C 3,9 C 89 % 1017,5 hPa 0,0 l/m 23,4 km/h (4 Bft) SW 219 0 min 0,0 UV-I 0 W/m 3,1 C -4,7 C 33,8 km/h (5 Bft)
11.01.2023 20:15 4,8 C 3,9 C 89 % 1017,5 hPa 0,0 l/m 24,7 km/h (4 Bft) SW 216 0 min 0,0 UV-I 0 W/m 3,1 C -5,1 C 35,4 km/h (5 Bft)
11.01.2023 20:18 4,8 C 3,9 C 89 % 1017,4 hPa 0,0 l/m 24,0 km/h (4 Bft) S-SW 200 0 min 0,0 UV-I 0 W/m 3,1 C -4,9 C 38,6 km/h (5 Bft)
11.01.2023 20:21 4,8 C 3,9 C 89 % 1017,4 hPa 0,0 l/m 22,6 km/h (4 Bft) S-SO 167 0 min 0,0 UV-I 0 W/m 3,1 C -4,4 C 35,4 km/h (5 Bft)
11.01.2023 20:24 4,8 C 3,9 C 89 % 1017,4 hPa 0,0 l/m 21,6 km/h (4 Bft) S-SW 199 0 min 0,0 UV-I 0 W/m 3,1 C -4,0 C 37,0 km/h (5 Bft)
11.01.2023 20:27 4,7 C 3,9 C 89 % 1017,4 hPa 0,0 l/m 23,2 km/h (4 Bft) SW 216 0 min 0,0 UV-I 0 W/m 3,0 C -4,8 C 37,0 km/h (5 Bft)
11.01.2023 20:30 4,8 C 3,9 C 89 % 1017,4 hPa 0,0 l/m 27,9 km/h (4 Bft) S-SW 211 0 min 0,0 UV-I 0 W/m 3,1 C -6,1 C 43,5 km/h (6 Bft)
11.01.2023 20:33 4,8 C 3,9 C 89 % 1017,4 hPa 0,0 l/m 22,2 km/h (4 Bft) S-SW 193 0 min 0,0 UV-I 0 W/m 3,1 C -4,3 C 33,8 km/h (5 Bft)
11.01.2023 20:36 4,8 C 3,9 C 89 % 1017,4 hPa 0,0 l/m 25,4 km/h (4 Bft) S-SW 194 0 min 0,0 UV-I 0 W/m 3,1 C -5,3 C 40,2 km/h (6 Bft)
11.01.2023 20:39 4,8 C 3,9 C 89 % 1017,4 hPa 0,0 l/m 20,8 km/h (4 Bft) S-SW 202 0 min 0,0 UV-I 0 W/m 3,1 C -3,7 C 32,2 km/h (5 Bft)
11.01.2023 20:42 4,8 C 3,9 C 89 % 1017,4 hPa 0,0 l/m 21,7 km/h (4 Bft) S-SW 201 0 min 0,0 UV-I 0 W/m 3,1 C -4,1 C 35,4 km/h (5 Bft)
11.01.2023 20:45 4,8 C 3,9 C 89 % 1017,3 hPa 0,0 l/m 21,3 km/h (4 Bft) S 173 0 min 0,0 UV-I 0 W/m 3,1 C -3,9 C 33,8 km/h (5 Bft)
11.01.2023 20:48 4,8 C 3,9 C 89 % 1017,4 hPa 0,0 l/m 19,5 km/h (3 Bft) S 190 0 min 0,0 UV-I 0 W/m 3,1 C -3,2 C 30,6 km/h (5 Bft)
11.01.2023 20:51 4,8 C 4,4 C 89 % 1017,3 hPa 0,0 l/m 21,9 km/h (4 Bft) S 188 0 min 0,0 UV-I 0 W/m 3,1 C -4,2 C 32,2 km/h (5 Bft)
11.01.2023 20:54 4,9 C 4,4 C 89 % 1017,3 hPa 0,0 l/m 21,1 km/h (4 Bft) S-SW 194 0 min 0,0 UV-I 0 W/m 3,2 C -3,7 C 30,6 km/h (5 Bft)
11.01.2023 20:57 4,9 C 4,4 C 89 % 1017,2 hPa 0,0 l/m 19,8 km/h (3 Bft) S-SW 197 0 min 0,0 UV-I 0 W/m 3,2 C -3,2 C 37,0 km/h (5 Bft)
11.01.2023 21:00 4,9 C 4,4 C 89 % 1017,2 hPa 0,0 l/m 20,3 km/h (4 Bft) S-SW 205 0 min 0,0 UV-I 0 W/m 3,2 C -3,4 C 40,2 km/h (6 Bft)
11.01.2023 21:03 4,9 C 4,4 C 89 % 1017,2 hPa 0,0 l/m 22,5 km/h (4 Bft) S-SW 194 0 min 0,0 UV-I 0 W/m 3,2 C -4,2 C 37,0 km/h (5 Bft)
11.01.2023 21:06 4,9 C 4,4 C 89 % 1017,3 hPa 0,0 l/m 22,0 km/h (4 Bft) S-SW 202 0 min 0,0 UV-I 0 W/m 3,2 C -4,1 C 35,4 km/h (5 Bft)
11.01.2023 21:09 4,9 C 4,4 C 89 % 1017,4 hPa 0,0 l/m 21,3 km/h (4 Bft) S-SW 192 0 min 0,0 UV-I 0 W/m 3,2 C -3,8 C 32,2 km/h (5 Bft)
11.01.2023 21:12 5,0 C 4,4 C 89 % 1017,3 hPa 0,0 l/m 22,5 km/h (4 Bft) SW 220 0 min 0,0 UV-I 0 W/m 3,3 C -4,1 C 41,8 km/h (6 Bft)
11.01.2023 21:15 5,1 C 4,4 C 89 % 1017,2 hPa 0,0 l/m 23,4 km/h (4 Bft) S-SW 194 0 min 0,0 UV-I 0 W/m 3,4 C -4,3 C 38,6 km/h (5 Bft)
11.01.2023 21:18 5,1 C 4,4 C 89 % 1017,1 hPa 0,0 l/m 25,8 km/h (4 Bft) S 182 0 min 0,0 UV-I 0 W/m 3,4 C -5,1 C 37,0 km/h (5 Bft)
11.01.2023 21:21 5,1 C 4,4 C 89 % 1017,1 hPa 0,0 l/m 26,4 km/h (4 Bft) S-SW 210 0 min 0,0 UV-I 0 W/m 3,4 C -5,2 C 41,8 km/h (6 Bft)
11.01.2023 21:24 5,1 C 4,4 C 89 % 1017,1 hPa 0,0 l/m 21,0 km/h (4 Bft) S-SW 194 0 min 0,0 UV-I 0 W/m 3,4 C -3,4 C 30,6 km/h (5 Bft)
11.01.2023 21:27 5,2 C 4,4 C 89 % 1017,3 hPa 0,0 l/m 24,1 km/h (4 Bft) S-SW 192 0 min 0,0 UV-I 0 W/m 3,5 C -4,4 C 35,4 km/h (5 Bft)
11.01.2023 21:30 5,2 C 4,4 C 89 % 1017,2 hPa 0,0 l/m 24,6 km/h (4 Bft) S-SW 199 0 min 0,0 UV-I 0 W/m 3,5 C -4,5 C 40,2 km/h (6 Bft)
11.01.2023 21:33 5,2 C 4,4 C 89 % 1017,2 hPa 0,0 l/m 21,6 km/h (4 Bft) S 183 0 min 0,0 UV-I 0 W/m 3,5 C -3,5 C 38,6 km/h (5 Bft)
11.01.2023 21:36 5,2 C 4,4 C 89 % 1017,2 hPa 0,0 l/m 25,9 km/h (4 Bft) S-SW 192 0 min 0,0 UV-I 0 W/m 3,5 C -5,0 C 41,8 km/h (6 Bft)
11.01.2023 21:39 5,2 C 4,4 C 89 % 1017,2 hPa 0,0 l/m 24,7 km/h (4 Bft) S-SW 196 0 min 0,0 UV-I 0 W/m 3,5 C -4,6 C 38,6 km/h (5 Bft)
11.01.2023 21:42 5,2 C 4,4 C 89 % 1017,0 hPa 0,0 l/m 29,4 km/h (5 Bft) S 173 0 min 0,0 UV-I 0 W/m 3,5 C -5,9 C 48,3 km/h (6 Bft)
11.01.2023 21:45 5,3 C 4,4 C 88 % 1017,0 hPa 0,0 l/m 25,7 km/h (4 Bft) S-SO 165 0 min 0,0 UV-I 0 W/m 3,5 C -4,8 C 46,7 km/h (6 Bft)
11.01.2023 21:48 5,3 C 4,4 C 88 % 1016,9 hPa 0,0 l/m 27,1 km/h (4 Bft) S 171 0 min 0,0 UV-I 0 W/m 3,5 C -5,2 C 40,2 km/h (6 Bft)
11.01.2023 21:51 5,3 C 4,4 C 88 % 1016,8 hPa 0,0 l/m 27,3 km/h (4 Bft) S-SW 209 0 min 0,0 UV-I 0 W/m 3,5 C -5,2 C 48,3 km/h (6 Bft)
11.01.2023 21:54 5,3 C 4,4 C 88 % 1017,0 hPa 0,0 l/m 27,8 km/h (4 Bft) S-SW 202 0 min 0,0 UV-I 0 W/m 3,5 C -5,4 C 41,8 km/h (6 Bft)
11.01.2023 21:57 5,3 C 4,4 C 88 % 1016,9 hPa 0,0 l/m 29,6 km/h (5 Bft) SO 144 0 min 0,0 UV-I 0 W/m 3,5 C -5,9 C 48,3 km/h (6 Bft)
11.01.2023 22:00 5,3 C 4,4 C 88 % 1016,9 hPa 0,0 l/m 23,7 km/h (4 Bft) S-SW 193 0 min 0,0 UV-I 0 W/m 3,5 C -4,1 C 46,7 km/h (6 Bft)
11.01.2023 22:03 5,3 C 4,4 C 88 % 1016,9 hPa 0,0 l/m 25,4 km/h (4 Bft) S 178 0 min 0,0 UV-I 0 W/m 3,5 C -4,7 C 37,0 km/h (5 Bft)
11.01.2023 22:06 5,3 C 4,4 C 88 % 1016,8 hPa 0,0 l/m 26,4 km/h (4 Bft) SW 217 0 min 0,0 UV-I 0 W/m 3,5 C -5,0 C 45,1 km/h (6 Bft)
11.01.2023 22:09 5,3 C 4,4 C 88 % 1016,9 hPa 0,0 l/m 26,4 km/h (4 Bft) SW 219 0 min 0,0 UV-I 0 W/m 3,5 C -5,0 C 38,6 km/h (5 Bft)
11.01.2023 22:12 5,3 C 4,4 C 88 % 1017,0 hPa 0,0 l/m 24,9 km/h (4 Bft) S-SW 205 0 min 0,0 UV-I 0 W/m 3,5 C -4,5 C 41,8 km/h (6 Bft)
11.01.2023 22:15 5,3 C 4,4 C 88 % 1017,0 hPa 0,0 l/m 25,5 km/h (4 Bft) S 188 0 min 0,0 UV-I 0 W/m 3,5 C -4,7 C 43,5 km/h (6 Bft)
11.01.2023 22:18 5,3 C 4,4 C 88 % 1017,2 hPa 0,0 l/m 23,1 km/h (4 Bft) S-SW 207 0 min 0,0 UV-I 0 W/m 3,5 C -3,9 C 43,5 km/h (6 Bft)
11.01.2023 22:21 5,3 C 4,4 C 88 % 1017,0 hPa 0,0 l/m 24,9 km/h (4 Bft) S-SW 202 0 min 0,0 UV-I 0 W/m 3,5 C -4,5 C 41,8 km/h (6 Bft)
11.01.2023 22:24 5,3 C 5,0 C 88 % 1017,0 hPa 0,0 l/m 27,8 km/h (4 Bft) S 178 0 min 0,0 UV-I 0 W/m 3,5 C -5,4 C 43,5 km/h (6 Bft)
11.01.2023 22:27 5,3 C 5,0 C 88 % 1017,0 hPa 0,0 l/m 27,6 km/h (4 Bft) S-SW 204 0 min 0,0 UV-I 0 W/m 3,5 C -5,3 C 40,2 km/h (6 Bft)
11.01.2023 22:30 5,3 C 5,0 C 88 % 1016,9 hPa 0,0 l/m 27,3 km/h (4 Bft) S-SW 211 0 min 0,0 UV-I 0 W/m 3,5 C -5,2 C 40,2 km/h (6 Bft)
11.01.2023 22:33 5,4 C 5,0 C 88 % 1016,8 hPa 0,0 l/m 23,5 km/h (4 Bft) S 181 0 min 0,0 UV-I 0 W/m 3,6 C -3,9 C 40,2 km/h (6 Bft)
11.01.2023 22:36 5,4 C 5,0 C 88 % 1016,8 hPa 0,0 l/m 29,3 km/h (5 Bft) S-SW 207 0 min 0,0 UV-I 0 W/m 3,6 C -5,6 C 45,1 km/h (6 Bft)
11.01.2023 22:39 5,4 C 5,0 C 88 % 1016,8 hPa 0,0 l/m 28,8 km/h (4 Bft) S-SW 195 0 min 0,0 UV-I 0 W/m 3,6 C -5,5 C 46,7 km/h (6 Bft)
11.01.2023 22:42 5,4 C 5,0 C 88 % 1016,9 hPa 0,0 l/m 24,6 km/h (4 Bft) S-SW 200 0 min 0,0 UV-I 0 W/m 3,6 C -4,3 C 48,3 km/h (6 Bft)
11.01.2023 22:45 5,4 C 5,0 C 88 % 1016,9 hPa 0,0 l/m 28,6 km/h (4 Bft) S-SW 203 0 min 0,0 UV-I 0 W/m 3,6 C -5,4 C 46,7 km/h (6 Bft)
11.01.2023 22:48 5,5 C 4,4 C 88 % 1016,9 hPa 0,0 l/m 25,3 km/h (4 Bft) S-SO 157 0 min 0,0 UV-I 0 W/m 3,7 C -4,4 C 43,5 km/h (6 Bft)
11.01.2023 22:51 5,5 C 4,4 C 88 % 1017,1 hPa 0,0 l/m 29,4 km/h (5 Bft) S 186 0 min 0,0 UV-I 0 W/m 3,7 C -5,5 C 41,8 km/h (6 Bft)
11.01.2023 22:54 5,5 C 4,4 C 88 % 1016,9 hPa 0,0 l/m 28,1 km/h (4 Bft) S 175 0 min 0,0 UV-I 0 W/m 3,7 C -5,2 C 40,2 km/h (6 Bft)
11.01.2023 22:57 5,5 C 4,4 C 88 % 1016,9 hPa 0,0 l/m 29,9 km/h (5 Bft) SW 223 0 min 0,0 UV-I 0 W/m 3,7 C -5,6 C 46,7 km/h (6 Bft)
11.01.2023 23:00 5,5 C 4,4 C 88 % 1016,9 hPa 0,0 l/m 24,9 km/h (4 Bft) S-SW 194 0 min 0,0 UV-I 0 W/m 3,7 C -4,2 C 40,2 km/h (6 Bft)
11.01.2023 23:03 5,5 C 4,4 C 88 % 1016,8 hPa 0,0 l/m 25,9 km/h (4 Bft) S-SW 194 0 min 0,0 UV-I 0 W/m 3,7 C -4,5 C 41,8 km/h (6 Bft)
11.01.2023 23:06 5,4 C 4,4 C 88 % 1016,8 hPa 0,2 l/m 28,0 km/h (4 Bft) S-SW 196 0 min 0,0 UV-I 0 W/m 3,6 C -5,3 C 40,2 km/h (6 Bft)
11.01.2023 23:09 5,4 C 4,4 C 88 % 1016,8 hPa 0,0 l/m 23,6 km/h (4 Bft) S-SO 167 0 min 0,0 UV-I 0 W/m 3,6 C -4,0 C 37,0 km/h (5 Bft)
11.01.2023 23:12 5,4 C 4,4 C 89 % 1016,7 hPa 0,0 l/m 25,8 km/h (4 Bft) S-SW 205 0 min 0,0 UV-I 0 W/m 3,7 C -4,6 C 40,2 km/h (6 Bft)
11.01.2023 23:15 5,4 C 4,4 C 89 % 1016,7 hPa 0,0 l/m 23,7 km/h (4 Bft) SW 215 0 min 0,0 UV-I 0 W/m 3,7 C -4,0 C 35,4 km/h (5 Bft)
11.01.2023 23:18 5,4 C 4,4 C 89 % 1016,8 hPa 0,0 l/m 22,9 km/h (4 Bft) S 191 0 min 0,0 UV-I 0 W/m 3,7 C -3,7 C 40,2 km/h (6 Bft)
11.01.2023 23:21 5,4 C 4,4 C 89 % 1016,7 hPa 0,2 l/m 27,3 km/h (4 Bft) S 184 0 min 0,0 UV-I 0 W/m 3,7 C -5,1 C 57,9 km/h (7 Bft)
11.01.2023 23:24 5,4 C 4,4 C 89 % 1016,7 hPa 0,0 l/m 27,3 km/h (4 Bft) S 185 0 min 0,0 UV-I 0 W/m 3,7 C -5,1 C 41,8 km/h (6 Bft)
11.01.2023 23:27 5,4 C 4,4 C 89 % 1016,7 hPa 0,0 l/m 25,7 km/h (4 Bft) S 186 0 min 0,0 UV-I 0 W/m 3,7 C -4,6 C 40,2 km/h (6 Bft)
11.01.2023 23:30 5,4 C 4,4 C 89 % 1016,6 hPa 0,0 l/m 21,6 km/h (4 Bft) SW 216 0 min 0,0 UV-I 0 W/m 3,7 C -3,3 C 33,8 km/h (5 Bft)
11.01.2023 23:33 5,4 C 4,4 C 89 % 1016,6 hPa 0,0 l/m 22,7 km/h (4 Bft) SW 215 0 min 0,0 UV-I 0 W/m 3,7 C -3,6 C 33,8 km/h (5 Bft)
11.01.2023 23:36 5,4 C 4,4 C 89 % 1016,7 hPa 0,0 l/m 22,7 km/h (4 Bft) SW 227 0 min 0,0 UV-I 0 W/m 3,7 C -3,6 C 32,2 km/h (5 Bft)
11.01.2023 23:39 5,4 C 4,4 C 89 % 1016,7 hPa 0,0 l/m 23,2 km/h (4 Bft) S 187 0 min 0,0 UV-I 0 W/m 3,7 C -3,8 C 37,0 km/h (5 Bft)
11.01.2023 23:42 5,4 C 4,4 C 89 % 1016,6 hPa 0,0 l/m 24,0 km/h (4 Bft) S-SW 211 0 min 0,0 UV-I 0 W/m 3,7 C -4,1 C 33,8 km/h (5 Bft)
11.01.2023 23:45 5,4 C 4,4 C 89 % 1016,5 hPa 0,0 l/m 21,8 km/h (4 Bft) S-SW 196 0 min 0,0 UV-I 0 W/m 3,7 C -3,3 C 38,6 km/h (5 Bft)
11.01.2023 23:48 5,4 C 4,4 C 89 % 1016,6 hPa 0,0 l/m 19,9 km/h (4 Bft) S-SW 199 0 min 0,0 UV-I 0 W/m 3,7 C -2,6 C 33,8 km/h (5 Bft)
11.01.2023 23:51 5,4 C 4,4 C 89 % 1016,5 hPa 0,0 l/m 26,0 km/h (4 Bft) S-SW 202 0 min 0,0 UV-I 0 W/m 3,7 C -4,7 C 40,2 km/h (6 Bft)
11.01.2023 23:54 5,4 C 4,4 C 89 % 1016,4 hPa 0,0 l/m 23,2 km/h (4 Bft) S-SW 198 0 min 0,0 UV-I 0 W/m 3,7 C -3,8 C 35,4 km/h (5 Bft)
11.01.2023 23:57 5,4 C 4,4 C 89 % 1016,4 hPa 0,0 l/m 22,6 km/h (4 Bft) SW 215 0 min 0,0 UV-I 0 W/m 3,7 C -3,6 C 38,6 km/h (5 Bft)
11.01.2023 23:58 5,5 C 4,4 C 89 % 1016,4 hPa 0,0 l/m 25,7 km/h (4 Bft) S 180 0 min 0,0 UV-I 0 W/m 3,8 C -4,5 C 37,0 km/h (5 Bft)
11.01.2023 23:59 5,4 C 4,4 C 89 % 1016,4 hPa 0,0 l/m 27,4 km/h (4 Bft) S-SW 202 0 min 0,0 UV-I 0 W/m 3,7 C -5,1 C 37,0 km/h (5 Bft)
_ Min-Zeit 19:27 18:54 13:03 06:37 - 09:15 - - - - - 19:21 00:25 09:15
Minimum _ 4,3 C 3,3 C 86 % 1012,0 hPa - 8,3 km/h (2 Bft) - - - - - 2,6 C -7,1 C 12,9 km/h (3 Bft)
_ Max-Zeit 08:45 05:54 02:24 19:00 01:20 00:25 - - 00:00 11:54 12:09 08:06 09:15 23:21
Maximum _ 8,5 C 7,8 C 94 % 1017,7 hPa 0,2 l/m 35,4 km/h
S (5 Bft)
- - 0 min 0,7 UV-I 149 W/m 7,3 C 6,7 C 57,9 km/h
S-SO (7 Bft)
Durchschnitt _ 6,5 C 5,8 C 90 % 1014,8 hPa #10,8 l/m 18,0 km/h (3 Bft) S - #0 min. 0,5 UV-I 66 W/m 5,0 C -0,3 C 28,2 km/h (4 Bft)